Date StartTime U_cm/s V_cm/s W_cm/s Ustd_cm/s Vstd_cm/s Wstd_cm/s Uvar_(cm/s)^2 Vvar_(cm/s)^2 Wvar_(cm/s)^2 KE_(m/s)^2 TurbulentKE_(m/s)^2 HorizWindSpeed_cm/s FrictionSpeec_cm/s DragCoef SpeedOfSound_m/s SonicTemperature_C Pressure_mb 
11/20/2014  00:00:00      -17.415        2.897       -1.872       25.989       26.768       20.621      675.441      716.552      425.231        0.107        0.091       17.654       12.998        0.542      337.413        9.369      862.376
11/20/2014  00:01:00       74.746      -83.050       -8.936       48.330       59.527       29.052     2335.792     3543.447      844.045        0.964        0.336      111.733       25.662        0.053      337.467        9.459      862.383
11/20/2014  00:02:00       66.635     -100.920       -5.598       52.208       70.900       33.634     2725.624     5026.751     1131.261        1.177        0.444      120.934       40.884        0.114      337.477        9.478      862.404
11/20/2014  00:03:00       -8.409     -110.873      -10.293       77.416       71.975       47.175     5993.194     5180.380     2225.450        1.293        0.670      111.192       40.703        0.134      337.851       10.104      862.411
11/20/2014  00:04:00       44.174       -8.297       61.083       66.348      108.818       92.058     4402.023    11841.274     8474.626        1.523        1.236       44.946       90.253        4.032      337.133        8.901      862.395
11/20/2014  00:05:00       81.896      -62.936       43.493       98.384      134.304       79.522     9679.469    18037.601     6323.725        2.329        1.702      103.286       95.852        0.861      337.006        8.686      862.369
11/20/2014  00:06:00      172.680     -179.467      -11.393       75.527       77.244       40.587     5704.340     5966.608     1647.336        3.773        0.666      249.051       40.493        0.026      336.964        8.613      862.367
11/20/2014  00:07:00      101.341     -177.963      -32.058       64.638       57.065       33.741     4178.063     3256.383     1138.481        2.577        0.429      204.795        7.989        0.002      337.088        8.822      862.390
11/20/2014  00:08:00      131.070     -155.007       -5.173       87.198       72.168       54.240     7603.520     5208.187     2941.975        2.849        0.788      202.993       57.979        0.082      337.083        8.814      862.408
11/20/2014  00:09:00       63.039       57.596      108.541       99.778      119.861       86.197     9955.748    14366.629     7429.876        2.541        1.588       85.388      106.571        1.558      336.983        8.649      862.378
11/20/2014  00:10:00       58.725        3.309       58.389       52.293      100.636       66.318     2734.524    10127.617     4398.101        1.206        0.863       58.819       79.121        1.809      336.988        8.658      862.390
11/20/2014  00:11:00       -2.253      -81.028       -2.871       50.730       71.805       32.668     2573.524     5155.906     1067.209        0.769        0.440       81.059       22.953        0.080      337.022        8.715      862.388
11/20/2014  00:12:00      -50.961      -53.728       -7.048       66.116       40.747       25.881     4371.327     1660.299      669.850        0.612        0.335       74.052       21.207        0.082      336.963        8.617      862.382
11/20/2014  00:13:00     -199.409     -104.261      -19.541       39.099       48.657       25.816     1528.705     2367.480      666.467        2.779        0.228      225.020       24.145        0.012      337.007        8.686      862.364
11/20/2014  00:14:00      -91.034      -79.311      -17.631       40.749       46.794       29.038     1660.480     2189.638      843.185        0.979        0.235      120.737       24.311        0.041      337.120        8.880      862.382
11/20/2014  00:15:00      -10.044      -32.551        6.058       43.973       33.921       26.408     1933.650     1150.657      697.384        0.249        0.189       34.066       22.180        0.424      337.069        8.795      862.418
11/20/2014  00:16:00        9.463        4.077       26.425       29.370       52.039       23.663      862.620     2708.026      559.915        0.247        0.207       10.303       25.042        5.907      336.971        8.629      862.452
11/20/2014  00:17:00        7.110      -17.331       32.479       42.868       52.352       36.371     1837.700     2740.775     1322.871        0.365        0.295       18.733       43.198        5.317      336.807        8.358      862.480
11/20/2014  00:18:00       45.349      -57.640       -0.315       25.161       46.669       22.922      633.088     2177.991      525.405        0.436        0.167       73.341       26.030        0.126      336.780        8.311      862.478
11/20/2014  00:19:00      -33.621      -16.878        7.407       38.282       34.116       24.639     1465.484     1163.904      607.087        0.235        0.162       37.619       25.510        0.460      336.779        8.310      862.464
11/20/2014  00:20:00       13.612      -11.608        2.747       28.410       19.174       14.454      807.123      367.626      208.917        0.086        0.069       17.889       10.549        0.348      336.789        8.327      862.463
11/20/2014  00:21:00       40.644       -6.982       46.334       60.523       66.937       54.987     3663.090     4480.582     3023.579        0.751        0.558       41.239       59.518        2.083      336.957        8.607      862.431
11/20/2014  00:22:00       54.440       32.963       87.393       71.878      114.345       80.568     5166.479    13074.818     6491.187        1.821        1.237       63.642       89.502        1.978      336.717        8.205      862.396
11/20/2014  00:23:00       69.469       68.131      133.118      103.264      151.979       82.126    10663.392    23097.685     6744.758        3.384        2.025       97.303      105.621        1.178      336.853        8.431      862.339
11/20/2014  00:24:00       22.309      158.159      175.858       58.108       74.312       49.478     3376.516     5522.329     2448.024        3.389        0.567      159.725       49.479        0.096      336.989        8.657      862.313
11/20/2014  00:25:00       99.667       38.341       87.006      113.922       97.462       83.698    12978.165     9498.755     7005.325        2.422        1.474      106.787       83.837        0.616      337.003        8.682      862.290
11/20/2014  00:26:00       14.446        7.437       59.240       92.713       71.853       56.307     8595.786     5162.856     3170.518        1.035        0.846       16.248       52.753       10.542      337.232        9.067      862.320
11/20/2014  00:27:00       28.977      -30.910       24.241       68.503       69.372       36.281     4692.615     4812.488     1316.279        0.660        0.541       42.368       43.354        1.047      337.353        9.269      862.344
11/20/2014  00:28:00       88.981      -60.668       44.602       86.513      110.289       61.145     7484.552    12163.630     3738.742        1.848        1.169      107.695       70.201        0.425      337.438        9.409      862.328
11/20/2014  00:29:00       93.177     -152.648      -17.453      109.035       96.216       54.587    11888.526     9257.536     2979.709        2.820        1.206      178.839       48.174        0.073      337.503        9.520      862.327
11/20/2014  00:30:00      -10.409      -98.471       -5.194       60.015       71.435       44.073     3601.807     5102.892     1942.444        1.024        0.532       99.020       38.301        0.150      337.612        9.705      862.335
11/20/2014  00:31:00     -133.989     -131.627       -8.139       50.314       61.037       26.245     2531.459     3725.472      688.815        2.114        0.347      187.826       28.429        0.023      336.886        8.487      862.328
11/20/2014  00:32:00      -73.213     -108.999      -17.059       81.721       65.540       27.441     6678.292     4295.473      752.998        1.463        0.586      131.305       26.682        0.041      336.892        8.498      862.291
11/20/2014  00:33:00       38.654     -150.142       -7.373       78.903       97.975       40.508     6225.761     9599.070     1640.885        2.077        0.873      155.038       36.459        0.055      337.435        9.405      862.284
11/20/2014  00:34:00       -1.277      -26.635       35.188       61.706      107.146       50.397     3807.678    11480.286     2539.865        0.988        0.891       26.665       62.308        5.460      337.827       10.062      862.287
11/20/2014  00:35:00       12.661       51.436       90.113       56.744       70.834       43.952     3219.853     5017.393     1931.819        1.055        0.508       52.971       45.031        0.723      337.708        9.863      862.257
11/20/2014  00:36:00     -163.585      -55.925       -4.117       59.599       46.202       25.300     3552.037     2134.592      640.066        1.811        0.316      172.880       23.554        0.019      337.638        9.745      862.293
11/20/2014  00:37:00      -58.685     -101.274        5.671       62.222       48.775       31.086     3871.629     2379.006      966.362        1.047        0.361      117.049       27.259        0.054      337.649        9.766      862.311
11/20/2014  00:38:00      -47.492      -91.175       -1.751       33.557       32.889       25.317     1126.046     1081.714      640.950        0.671        0.142      102.803       13.415        0.017      337.668        9.798      862.304
11/20/2014  00:39:00      -72.994     -109.686        8.709       59.261       66.944       38.853     3511.858     4481.534     1509.545        1.347        0.475      131.754       31.206        0.056      337.459        9.447      862.314
11/20/2014  00:40:00      -77.234     -141.031        4.912       84.418       70.592       42.818     7126.412     4983.165     1833.368        1.991        0.697      160.795       39.004        0.059      337.649        9.765      862.308
11/20/2014  00:41:00     -210.031     -162.957      -35.023       57.399      103.104       39.271     3294.691    10630.375     1542.229        4.368        0.773      265.835       34.982        0.017      337.681        9.815      862.291
11/20/2014  00:42:00     -125.159      -93.549       -9.499       82.538       63.898       48.536     6812.565     4082.936     2355.699        1.888        0.663      156.257       39.515        0.064      337.589        9.663      862.267
11/20/2014  00:43:00     -286.356     -144.343        1.137      127.841       56.941       42.176    16343.293     3242.319     1778.835        6.210        1.068      320.679       49.707        0.024      337.409        9.361      862.262
11/20/2014  00:44:00     -362.181      -97.387      -22.236      111.562      121.050       58.114    12446.066    14653.047     3377.253        8.581        1.524      375.046       50.383        0.018      337.616        9.707      862.229
11/20/2014  00:45:00     -176.402     -103.403       11.021      155.327      115.565       75.466    24126.483    13355.372     5695.046        4.255        2.159      204.474       87.104        0.181      337.423        9.383      862.193
11/20/2014  00:46:00     -238.469     -111.149      -14.056      111.912       76.726       45.233    12524.393     5886.926     2046.029        4.493        1.023      263.100       41.135        0.024      337.518        9.542      862.188
11/20/2014  00:47:00     -300.906     -153.497       -4.407      174.156      146.825       76.034    30330.347    21557.496     5781.237        8.589        2.883      337.795       78.906        0.055      337.507        9.524      862.206
11/20/2014  00:48:00     -226.343      -85.915        1.748      162.987      150.573       72.585    26564.890    22672.376     5268.580        5.655        2.725      242.100       73.949        0.093      337.575        9.640      862.231
11/20/2014  00:49:00     -362.345     -192.755      -14.218      100.590       88.575       55.890    10118.320     7845.453     3123.685        9.486        1.054      410.425       58.495        0.020      337.470        9.462      862.252
11/20/2014  00:50:00     -214.779     -117.714        2.639      130.580      114.347       54.892    17051.120    13075.159     3013.117        4.656        1.657      244.922       64.482        0.069      337.353        9.266      862.239
11/20/2014  00:51:00     -218.275     -139.816        5.499      127.561       89.986       57.023    16271.825     8097.425     3251.641        4.742        1.381      259.215       62.015        0.057      337.363        9.284      862.224
11/20/2014  00:52:00     -147.136     -135.672        8.954       95.688       58.913       46.600     9156.098     3470.729     2171.515        2.746        0.740      200.139       46.023        0.053      337.360        9.280      862.228
11/20/2014  00:53:00     -142.320     -120.150       -8.811       95.098       66.159       45.537     9043.716     4377.076     2073.593        2.513        0.775      186.255       40.708        0.048      337.334        9.235      862.220
11/20/2014  00:54:00     -166.299     -121.787        0.404      137.859       89.178       56.460    19005.101     7952.707     3187.705        3.631        1.507      206.125       63.279        0.094      337.300        9.180      862.208
11/20/2014  00:55:00      -85.320      -95.080        7.954       63.704       64.048       36.983     4058.255     4102.171     1367.706        1.295        0.476      127.748       31.939        0.063      337.242        9.084      862.180
11/20/2014  00:56:00     -174.296     -156.403       -8.148       96.832       79.989       42.666     9376.372     6398.237     1820.350        3.625        0.880      234.181       42.251        0.033      337.268        9.125      862.156
11/20/2014  00:57:00     -166.068     -210.184       -5.159       84.066       74.656       49.024     7067.055     5573.474     2403.377        4.341        0.752      267.873       49.476        0.034      337.292        9.164      862.159
11/20/2014  00:58:00     -137.737     -175.963       -9.894      109.160       61.725       37.926    11915.932     3809.981     1438.382        3.359        0.858      223.461       42.495        0.036      337.259        9.111      862.155
11/20/2014  00:59:00     -122.660     -148.371        1.422       67.924       58.282       42.049     4613.702     3396.755     1768.079        2.342        0.489      192.508       31.170        0.026      337.196        9.005      862.183
11/20/2014  01:00:00     -168.515      -94.153        6.635       97.382       87.648       57.120     9483.292     7682.174     3262.740        2.886        1.021      193.033       51.297        0.071      337.298        9.175      862.173
11/20/2014  01:01:00     -163.447      -53.951       19.804      159.219       81.433       54.784    25350.655     6631.376     3001.324        3.249        1.749      172.121       63.958        0.138      337.450        9.430      862.186
11/20/2014  01:02:00     -151.723      -49.101        4.484       76.772       61.670       38.524     5893.885     3803.237     1484.061        1.831        0.559      159.470       31.573        0.039      337.543        9.586      862.178
11/20/2014  01:03:00     -153.322     -137.868      -10.178       72.159       79.727       41.293     5206.879     6356.459     1705.129        2.794        0.663      206.192       41.760        0.041      337.616        9.708      862.181
11/20/2014  01:04:00     -117.695      -74.060       -2.824       65.628       54.669       34.124     4306.990     2988.663     1164.452        1.390        0.423      139.058       31.688        0.052      337.527        9.562      862.197
11/20/2014  01:05:00     -193.610     -165.924       -7.670      139.649       87.053       54.817    19501.883     7578.249     3004.900        4.757        1.504      254.982       58.910        0.053      337.517        9.541      862.190
11/20/2014  01:06:00     -210.386     -142.658       -8.627      101.420       87.353       61.940    10286.115     7630.462     3836.600        4.322        1.088      254.192       61.383        0.058      337.449        9.427      862.192
11/20/2014  01:07:00      -98.443      -98.734       -0.478       53.746       65.392       32.100     2888.650     4276.121     1030.420        1.382        0.410      139.425       27.843        0.040      337.457        9.443      862.193
11/20/2014  01:08:00     -132.727      -86.477       -3.072       61.423       63.379       29.249     3772.837     4016.960      855.509        1.687        0.432      158.413       25.944        0.027      337.454        9.437      862.172
11/20/2014  01:09:00      -86.389     -166.864        3.711       47.041       48.925       21.349     2212.840     2393.681      455.761        2.019        0.253      187.900       16.643        0.008      337.387        9.325      862.167
11/20/2014  01:10:00      -83.732     -162.299       -5.937       42.738       73.233       28.114     1826.497     5363.084      790.406        2.068        0.399      182.625       26.541        0.021      337.371        9.298      862.152
11/20/2014  01:11:00      -67.154      -49.221        2.148       39.988       63.516       26.379     1599.038     4034.302      695.863        0.663        0.316       83.261       26.631        0.102      337.392        9.334      862.136
11/20/2014  01:12:00      -57.308      -12.411        3.792       82.714       36.117       24.700     6841.585     1304.436      610.076        0.610        0.438       58.636       36.445        0.386      337.222        9.049      862.102
11/20/2014  01:13:00     -107.135      -52.336       -9.345       31.304       24.695       20.385      979.952      609.829      415.555        0.815        0.100      119.235       16.579        0.019      337.304        9.187      862.055
11/20/2014  01:14:00      -16.326      -54.408       -3.052       48.959       23.090       14.510     2396.989      533.170      210.538        0.319        0.157       56.804       15.304        0.073      337.201        9.016      862.007
11/20/2014  01:15:00      -52.792      -68.819        1.221       50.134       29.575       24.668     2513.452      874.651      608.503        0.576        0.200       86.736       26.096        0.091      337.304        9.188      861.965
11/20/2014  01:16:00      -52.718     -163.002       -4.716       34.386       40.615       27.197     1182.379     1649.555      739.654        1.647        0.179      171.315       20.636        0.015      337.409        9.363      861.920
11/20/2014  01:17:00      -64.050      -67.787       -1.417       41.248       41.000       25.597     1701.412     1681.013      655.200        0.637        0.202       93.261       13.733        0.022      337.350        9.265      861.904
11/20/2014  01:18:00      -65.227      -65.797       -0.142       39.658       42.963       21.050     1572.731     1845.779      443.089        0.622        0.193       92.649       22.413        0.059      337.355        9.273      861.883
11/20/2014  01:19:00      -55.208     -133.041      -10.516       43.429       45.134       33.135     1886.066     2037.069     1097.900        1.294        0.251      144.042       12.726        0.008      337.488        9.495      861.879
11/20/2014  01:20:00      -58.041     -103.499        5.222       51.178       46.430       28.552     2619.209     2155.781      815.203        0.985        0.280      118.662       16.580        0.020      337.378        9.311      861.892
11/20/2014  01:21:00        0.128      -53.449       -3.118       40.534       52.407       36.260     1643.012     2746.465     1314.821        0.428        0.285       53.450       26.053        0.238      337.222        9.050      861.907
11/20/2014  01:22:00      -21.808      -75.917        9.077       36.920       51.194       33.682     1363.056     2620.809     1134.458        0.572        0.256       78.988       21.271        0.073      337.025        8.720      861.918
11/20/2014  01:23:00        3.894      -79.020      -11.715       60.471       50.859       34.166     3656.747     2586.614     1167.297        0.690        0.371       79.116       28.946        0.134      337.115        8.871      861.934
11/20/2014  01:24:00       24.444      -50.648        2.347       50.275       47.516       37.690     2527.536     2257.724     1420.567        0.469        0.310       56.238       28.842        0.263      337.119        8.879      861.937
11/20/2014  01:25:00        4.482      -40.944       30.994       33.925       57.884       34.121     1150.880     3350.588     1164.217        0.416        0.283       41.188       33.288        0.653      336.949        8.593      861.964
11/20/2014  01:26:00       23.202      -88.375        1.962       43.770       62.129       37.247     1915.816     3860.021     1387.345        0.776        0.358       91.370       31.704        0.120      336.940        8.579      861.982
11/20/2014  01:27:00      -21.953      -66.305       -0.900       60.521       36.159       30.780     3662.777     1307.499      947.386        0.540        0.296       69.845       15.886        0.052      336.915        8.537      862.030
11/20/2014  01:28:00      -10.905      -16.382        4.139       30.551       28.100       24.273      933.336      789.587      589.196        0.136        0.116       19.680       24.631        1.566      336.879        8.477      862.078
11/20/2014  01:29:00       -0.476      -32.514       15.562       27.158       31.454       35.536      737.561      989.345     1262.792        0.214        0.149       32.517       29.486        0.822      336.830        8.395      862.111
11/20/2014  01:30:00      -10.739      -38.772       21.727       28.436       52.106       41.776      808.579     2715.030     1745.240        0.368        0.263       40.232       37.090        0.850      336.786        8.321      862.136
11/20/2014  01:31:00      -61.342      -65.512        5.369       84.122       42.235       30.363     7076.536     1783.815      921.888        0.893        0.489       89.748       26.280        0.086      336.708        8.193      862.165
11/20/2014  01:32:00      -31.340      -13.257       24.535       63.156       62.952       40.897     3988.729     3963.015     1672.588        0.569        0.481       34.028       46.167        1.841      336.892        8.499      862.148
11/20/2014  01:33:00      -12.677       -7.629       48.113       26.279       78.790       60.396      690.599     6207.939     3647.704        0.654        0.527       14.796       64.037       18.732      336.690        8.163      862.129
11/20/2014  01:34:00      -17.516      -74.554      -19.461       42.741       39.125       30.754     1826.764     1530.767      945.788        0.527        0.215       76.584       31.845        0.173      336.743        8.252      862.138
11/20/2014  01:35:00      -29.717      -78.702       10.396       38.458       42.761       33.419     1479.040     1828.502     1116.829        0.580        0.221       84.126       19.693        0.055      336.710        8.197      862.113
11/20/2014  01:36:00       -6.129      -80.019      -15.809       37.189       43.683       21.699     1383.004     1908.228      470.846        0.523        0.188       80.254       11.775        0.022      336.644        8.085      862.114
11/20/2014  01:37:00      -11.901      -39.656        3.057       26.536       24.316       23.134      704.173      591.275      535.166        0.178        0.092       41.403       16.509        0.159      336.563        7.949      862.127
11/20/2014  01:38:00       -9.640        9.354       27.998       13.810       19.461       22.449      190.714      378.718      503.953        0.102        0.054       13.433       15.486        1.329      336.385        7.651      862.148
11/20/2014  01:39:00        0.072      -14.082       31.853       20.878       67.223       44.827      435.890     4518.944     2009.492        0.409        0.348       14.082       48.891       12.054      336.310        7.526      862.157
11/20/2014  01:40:00       33.814      -66.778       -7.063       50.392       39.936       27.731     2539.347     1594.858      769.019        0.528        0.245       74.851       16.210        0.047      336.363        7.615      862.184
11/20/2014  01:41:00      -29.487      -50.689       -5.797       31.302       38.533       20.928      979.835     1484.774      437.993        0.319        0.145       58.641        7.088        0.015      336.459        7.777      862.185
11/20/2014  01:42:00      -33.147      -15.944       11.655       28.707       36.482       23.561      824.120     1330.925      555.108        0.210        0.136       36.782       15.527        0.178      336.298        7.505      862.155
11/20/2014  01:43:00      -44.577      -52.887       -2.852       34.023       34.726       19.130     1157.589     1205.898      365.954        0.376        0.136       69.167       15.278        0.049      336.298        7.506      862.160
11/20/2014  01:44:00      -17.707      -26.697        6.659       19.587       27.604       22.999      383.645      761.999      528.944        0.137        0.084       32.035       19.043        0.353      336.249        7.425      862.140
11/20/2014  01:45:00      -12.008      -30.982        6.070       39.690       47.562       40.998     1575.303     2262.142     1680.850        0.333        0.276       33.228       26.977        0.659      336.211        7.361      862.117
11/20/2014  01:46:00      -37.782      -73.525       -8.988       40.124       44.188       27.744     1609.950     1952.602      769.742        0.562        0.217       82.665       14.889        0.032      336.289        7.490      862.102
11/20/2014  01:47:00        8.399      -34.577       -2.967       23.185       30.129       25.280      537.565      907.736      639.097        0.168        0.104       35.583       17.570        0.244      336.182        7.312      862.077
11/20/2014  01:48:00       26.658      -17.313       23.967       38.915       73.182       39.708     1514.343     5355.556     1576.751        0.501        0.422       31.786       46.560        2.146      336.027        7.053      862.043
11/20/2014  01:49:00       31.642      -69.463       -8.688       54.541       49.061       30.902     2974.728     2406.962      954.958        0.612        0.317       76.330       30.925        0.164      336.108        7.188      862.062
11/20/2014  01:50:00       26.632      -86.755       -3.301       48.584       44.330       37.345     2360.415     1965.150     1394.666        0.698        0.286       90.750       32.411        0.128      336.048        7.087      862.072
11/20/2014  01:51:00       50.277      -95.350        3.852       53.051       66.046       37.080     2814.400     4362.085     1374.951        1.009        0.428      107.793       39.222        0.132      336.069        7.121      862.078
11/20/2014  01:52:00       25.873        9.685       32.429       50.547       56.875       48.427     2555.012     3234.787     2345.141        0.497        0.407       27.626       47.630        2.972      335.846        6.752      862.075
11/20/2014  01:53:00       35.037       10.265       32.182       45.115       35.790       28.314     2035.321     1280.958      801.667        0.324        0.206       36.510       27.780        0.579      335.775        6.634      862.063
11/20/2014  01:54:00      -37.668      -46.084       -8.744       70.980       25.730       20.394     5038.165      662.028      415.899        0.487        0.306       59.520       13.852        0.054      335.899        6.838      862.082
11/20/2014  01:55:00      -72.297      -44.289        6.522       47.231       45.217       24.193     2230.756     2044.546      585.305        0.604        0.243       84.784       17.118        0.041      335.858        6.772      862.120
11/20/2014  01:56:00     -138.914      -47.129       -4.642       50.049       42.984       24.483     2504.941     1847.622      599.424        1.324        0.248      146.691       25.718        0.031      335.638        6.407      862.144
11/20/2014  01:57:00      -87.071      -43.099       11.486       64.920       40.238       28.033     4214.602     1619.089      785.841        0.809        0.331       97.154       33.980        0.122      335.667        6.455      862.157
11/20/2014  01:58:00      -22.856      -27.338       -0.851       25.670       14.678       15.054      658.943      215.451      226.615        0.119        0.055       35.634       15.405        0.187      335.722        6.545      862.108
11/20/2014  01:59:00      -13.780      -14.649        7.386       11.286       17.955       10.719      127.374      322.376      114.904        0.051        0.028       20.112       11.607        0.333      335.725        6.550      862.029
11/20/2014  02:00:00      -13.321      -26.986       16.065       22.894       43.065       25.192      524.135     1854.574      634.641        0.209        0.151       30.094       25.058        0.693      335.694        6.500      861.935
11/20/2014  02:01:00       11.973      -99.030      -18.701       53.213       32.576       22.811     2831.586     1061.165      520.353        0.736        0.221       99.752       29.408        0.087      335.768        6.622      861.862
11/20/2014  02:02:00        1.007      -63.673      -11.412       45.297       39.718       29.997     2051.816     1577.496      899.803        0.436        0.226       63.681       24.365        0.146      335.637        6.403      861.816
11/20/2014  02:03:00       -5.408      -37.337        1.885       20.843       31.061       17.996      434.435      964.800      323.841        0.157        0.086       37.727       17.694        0.220      335.662        6.448      861.779
11/20/2014  02:04:00       -9.462        9.171       47.322       21.335       28.719       27.756      455.165      824.770      770.389        0.223        0.103       13.178       21.161        2.579      335.553        6.264      861.757
11/20/2014  02:05:00       10.448      -77.712        5.845       45.581       44.770       32.115     2077.616     2004.327     1031.376        0.565        0.256       78.412       31.581        0.162      335.670        6.459      861.786
11/20/2014  02:06:00      -62.742      -27.935       13.147       53.603       31.674       26.770     2873.326     1003.243      716.647        0.474        0.230       68.680       23.865        0.121      335.544        6.249      861.860
11/20/2014  02:07:00      -66.799      -37.665        8.331       51.776       32.364       20.781     2680.764     1047.431      431.860        0.505        0.208       76.686       19.920        0.067      335.433        6.063      861.913
11/20/2014  02:08:00      -62.192      -45.559        8.166       41.737       35.336       25.208     1741.977     1248.624      635.462        0.482        0.181       77.094       21.534        0.078      335.383        5.979      861.932
11/20/2014  02:09:00      -92.707      -50.731       -0.951       28.995       27.183       20.072      840.693      738.930      402.877        0.658        0.099      105.679       16.561        0.025      335.377        5.970      861.929
11/20/2014  02:10:00     -135.753      -36.747       -2.695       23.809       24.795       16.631      566.850      614.781      276.582        1.062        0.073      140.639       13.783        0.010      335.345        5.916      861.934
11/20/2014  02:11:00     -146.830      -34.055       -9.752       41.048       26.695       21.825     1684.951      712.623      476.323        1.284        0.144      150.728       23.600        0.025      335.316        5.867      861.931
11/20/2014  02:12:00     -148.786      -21.659       -2.812       53.605       30.582       26.256     2873.526      935.241      689.376        1.356        0.225      150.354       27.955        0.035      335.264        5.781      861.928
11/20/2014  02:13:00     -101.070       -8.987       -3.570       47.500       33.620       23.313     2256.252     1130.271      543.503        0.712        0.197      101.469       24.754        0.060      335.157        5.604      861.930
11/20/2014  02:14:00     -142.130       -5.690       -4.232       50.618       33.787       30.903     2562.219     1141.545      954.978        1.245        0.233      142.244       31.824        0.050      335.180        5.642      861.904
11/20/2014  02:15:00     -126.898      -10.233       -2.932       43.961       36.047       25.161     1932.558     1299.408      633.054        1.004        0.193      127.310       23.416        0.034      335.311        5.859      861.893
11/20/2014  02:16:00     -169.559      -81.207      -16.496       47.224       38.419       27.191     2230.089     1476.046      739.336        2.003        0.222      188.002       22.196        0.014      335.133        5.565      861.906
11/20/2014  02:17:00     -137.294      -49.156        4.148       50.329       31.401       25.342     2533.025      986.035      642.195        1.272        0.208      145.828       22.109        0.023      335.067        5.455      861.916
11/20/2014  02:18:00     -121.828      -53.003       -3.857       42.241       28.037       22.757     1784.298      786.077      517.902        1.038        0.154      132.858       19.105        0.021      335.048        5.425      861.905
11/20/2014  02:19:00     -127.292      -54.270       -5.690       39.261       22.194       17.644     1541.424      492.584      311.312        1.076        0.117      138.378       18.033        0.017      335.079        5.475      861.890
11/20/2014  02:20:00     -127.824      -66.748       -7.386       42.254       35.219       26.425     1785.435     1240.381      698.259        1.229        0.186      144.202       26.684        0.034      335.125        5.551      861.875
11/20/2014  02:21:00      -81.912      -88.110       -8.064       29.137       27.587       17.380      848.994      761.039      302.052        0.822        0.096      120.303       12.475        0.011      335.191        5.661      861.863
11/20/2014  02:22:00     -118.462      -69.128       -0.744       41.561       28.087       23.326     1727.329      788.881      544.097        1.094        0.153      137.157       20.539        0.022      335.281        5.808      861.856
11/20/2014  02:23:00     -118.617      -40.434       -0.691       36.716       27.281       19.742     1348.097      744.247      389.750        0.909        0.124      125.319       14.577        0.014      335.191        5.661      861.851
11/20/2014  02:24:00     -106.294      -66.857       -9.587       28.603       35.747       20.930      818.116     1277.831      438.064        0.920        0.127      125.572       20.969        0.028      335.206        5.686      861.825
11/20/2014  02:25:00      -90.756      -47.572       -9.379       20.389       22.816       15.818      415.727      520.578      250.199        0.589        0.059      102.469       11.810        0.013      335.240        5.741      861.808
11/20/2014  02:26:00     -100.742      -27.513       -2.236       38.228       28.832       19.981     1461.363      831.281      399.240        0.680        0.135      104.432       18.964        0.033      335.144        5.583      861.829
11/20/2014  02:27:00      -76.908      -14.815       12.636       49.957       42.705       25.240     2495.731     1823.694      637.054        0.562        0.248       78.322       23.766        0.092      335.056        5.437      861.855
11/20/2014  02:28:00     -105.396      -23.125        2.413       53.099       36.342       28.763     2819.489     1320.739      827.337        0.831        0.248      107.903       28.017        0.067      335.031        5.395      861.891
11/20/2014  02:29:00     -109.422       -6.142       -8.438       42.151       30.475       20.848     1776.721      928.706      434.658        0.761        0.157      109.594       22.106        0.041      335.036        5.403      861.922
11/20/2014  02:30:00      -59.872      -17.462       -1.886       38.093       25.951       15.173     1451.085      673.473      230.213        0.312        0.118       62.367       17.104        0.075      334.977        5.304      861.920
11/20/2014  02:31:00     -103.343      -32.370       -3.486       29.887       28.186       17.180      893.253      794.452      295.154        0.686        0.099      108.294       17.150        0.025      335.038        5.407      861.914
11/20/2014  02:32:00     -123.838      -19.274       -6.577       31.031       24.561       16.224      962.910      603.235      263.220        0.879        0.091      125.329       14.015        0.013      335.005        5.352      861.933
11/20/2014  02:33:00     -146.013      -34.390       -5.373       31.659       27.047       16.431     1002.279      731.564      269.975        1.227        0.100      150.008       12.513        0.007      335.002        5.347      861.945
11/20/2014  02:34:00     -112.201      -41.761        8.019       44.202       29.318       20.515     1953.778      859.539      420.849        0.882        0.162      119.721       21.444        0.032      335.005        5.352      861.960
11/20/2014  02:35:00     -112.136      -43.673       -1.435       32.930       29.201       17.315     1084.417      852.688      299.799        0.836        0.112      120.341       16.233        0.018      334.970        5.294      861.964
11/20/2014  02:36:00     -117.249      -25.321       -7.520       29.161       23.327       18.815      850.389      544.142      353.991        0.810        0.087      119.952       10.208        0.007      335.001        5.344      861.967
11/20/2014  02:37:00     -102.893       -2.816       -3.599       40.981       27.986       21.925     1679.402      783.191      480.689        0.677        0.147      102.931       24.295        0.056      335.000        5.345      861.962
11/20/2014  02:38:00      -54.721      -15.101        1.518       32.988       30.082       18.403     1088.218      904.902      338.678        0.278        0.117       56.766       18.983        0.112      335.002        5.347      861.963
11/20/2014  02:39:00      -85.167      -43.433       -6.788       23.427       32.520       13.558      548.827     1057.578      183.821        0.549        0.090       95.603       11.477        0.014      335.066        5.454      861.966
11/20/2014  02:40:00     -107.292      -40.385      -13.149       25.887       23.853       16.489      670.136      568.970      271.871        0.741        0.076      114.641       14.028        0.015      334.964        5.284      861.965
11/20/2014  02:41:00     -114.707      -30.721      -10.119       39.610       26.766       23.636     1568.979      716.427      558.646        0.852        0.142      118.749       23.148        0.038      334.935        5.236      861.969
11/20/2014  02:42:00     -111.346      -40.072       -6.940       24.444       31.004       17.409      597.491      961.222      303.087        0.796        0.093      118.337       12.255        0.011      334.878        5.142      861.985
11/20/2014  02:43:00     -134.921      -12.472      -10.006       48.468       35.919       26.583     2349.114     1290.145      706.665        1.140        0.217      135.496       27.018        0.040      334.849        5.090      861.991
11/20/2014  02:44:00     -100.006      -11.585       -1.880       48.201       33.089       25.422     2323.382     1094.911      646.290        0.710        0.203      100.675       26.237        0.068      334.985        5.319      861.985
11/20/2014  02:45:00     -122.802      -41.625       -2.606       41.137       24.817       23.302     1692.252      615.899      542.972        0.983        0.143      129.665       22.927        0.031      334.841        5.079      861.980
11/20/2014  02:46:00     -107.467      -52.837       -5.628       34.666       25.210       21.089     1201.763      635.523      444.762        0.833        0.114      119.754       18.600        0.024      335.114        5.533      861.990
11/20/2014  02:47:00      -94.843      -47.979       -1.980       32.827       26.707       18.090     1077.616      713.256      327.257        0.671        0.106      106.289       15.039        0.020      335.124        5.550      861.989
11/20/2014  02:48:00      -82.979      -41.992        6.091       47.886       36.692       20.756     2293.069     1346.304      430.800        0.638        0.204       92.999       22.724        0.060      335.093        5.498      861.993
11/20/2014  02:49:00      -88.142      -71.386        1.504       31.495       28.190       22.331      991.920      794.651      498.687        0.758        0.114      113.424       19.179        0.029      335.238        5.739      862.007
11/20/2014  02:50:00      -60.974      -24.823        2.804       30.222       24.878       18.205      913.345      618.911      331.428        0.310        0.093       65.833       12.088        0.034      335.101        5.512      862.028
11/20/2014  02:51:00      -67.092      -66.023       -1.052       35.117       34.569       20.153     1233.186     1195.047      406.134        0.585        0.142       94.130       18.397        0.038      335.294        5.832      862.036
11/20/2014  02:52:00     -100.735      -29.927       -2.536       27.388       39.931       20.030      750.084     1594.502      401.219        0.690        0.137      105.087       15.382        0.021      335.218        5.705      862.063
11/20/2014  02:53:00      -99.913       -4.229        3.255       44.496       26.817       28.607     1979.855      719.176      818.354        0.676        0.176      100.002       29.791        0.089      335.107        5.520      862.084
11/20/2014  02:54:00      -93.832      -25.770       -3.085       23.370       23.716       15.214      546.135      562.451      231.462        0.541        0.067       97.306       15.098        0.024      335.048        5.425      862.098
11/20/2014  02:55:00      -86.079      -14.689       -7.441       18.606       18.677       12.182      346.165      348.812      148.409        0.426        0.042       87.323       11.345        0.017      335.066        5.454      862.096
11/20/2014  02:56:00      -71.246      -23.774       -4.535       34.439       18.768       12.471     1186.053      352.251      155.523        0.368        0.085       75.107       10.784        0.021      335.043        5.415      862.100
11/20/2014  02:57:00      -38.301      -58.960        4.321       36.859       23.245       18.958     1358.618      540.346      359.398        0.361        0.113       70.308        9.016        0.016      335.146        5.588      862.116
11/20/2014  02:58:00      -45.302      -79.309        2.753       18.125       15.486       11.806      328.517      239.821      139.387        0.453        0.035       91.336        6.529        0.005      335.356        5.934      862.124
11/20/2014  02:59:00      -64.474      -32.425       -0.534       23.408       15.346       10.237      547.919      235.506      104.802        0.305        0.044       72.168       10.715        0.022      335.188        5.656      862.138
11/20/2014  03:00:00      -20.606      -16.801        6.933       29.632       17.987       15.349      878.048      323.530      235.596        0.110        0.072       26.587       11.134        0.175      335.075        5.469      862.147
11/20/2014  03:01:00      -11.580      -22.847        6.112       10.870       14.997        7.129      118.148      224.896       50.820        0.054        0.020       25.614        4.810        0.035      334.980        5.311      862.144
11/20/2014  03:02:00      -46.778      -74.021       -0.827       21.885       20.102        9.613      478.940      404.097       92.408        0.432        0.049       87.563        9.602        0.012      335.332        5.894      862.144
11/20/2014  03:03:00      -30.622      -77.158       -2.787       19.088       23.356       14.614      364.343      545.484      213.556        0.401        0.056       83.012       13.228        0.025      335.384        5.980      862.158
11/20/2014  03:04:00      -20.455      -33.781        7.977       27.666       20.309       15.166      765.407      412.475      230.016        0.152        0.070       39.491       13.715        0.121      335.265        5.783      862.177
11/20/2014  03:05:00        0.862      -17.171       18.360       27.719       14.761       13.167      768.362      217.892      173.378        0.090        0.058       17.193       17.433        1.028      335.133        5.565      862.201
11/20/2014  03:06:00       10.810        2.882       10.298       21.156        7.232        7.497      447.565       52.303       56.205        0.039        0.028       11.188        4.511        0.163      334.858        5.107      862.206
11/20/2014  03:07:00      -43.424       11.684       -8.111       18.157       19.566       10.556      329.672      382.827      111.421        0.146        0.041       44.969        6.426        0.020      334.858        5.108      862.212
11/20/2014  03:08:00      -18.704       39.392      -11.775       10.343       11.162       11.998      106.980      124.583      143.956        0.121        0.019       43.607        3.629        0.007      335.031        5.395      862.223
11/20/2014  03:09:00      -31.240       44.784      -10.930       24.584       13.970       13.333      604.370      195.157      177.761        0.204        0.049       54.603       10.616        0.038      335.147        5.587      862.233
11/20/2014  03:10:00       21.863       55.705       -7.483       14.742       15.899       13.401      217.326      252.775      179.588        0.214        0.032       59.842        8.282        0.019      335.113        5.531      862.246
11/20/2014  03:11:00        4.789       33.383       -8.323       12.517       15.875        4.266      156.680      252.026       18.199        0.082        0.021       33.725        5.027        0.022      335.124        5.549      862.254
11/20/2014  03:12:00       12.572       38.019       -6.197       23.956       33.376        8.660      573.884     1113.975       74.993        0.170        0.088       40.043       10.115        0.064      335.257        5.769      862.260
11/20/2014  03:13:00       17.847       39.580       -8.297       16.249       26.143       10.993      264.022      683.482      120.840        0.151        0.053       43.417        6.944        0.026      335.208        5.687      862.259
11/20/2014  03:14:00        9.627       -9.724       -3.867       21.516       22.817       15.767      462.948      520.606      248.604        0.072        0.062       13.684       13.975        1.043      335.123        5.548      862.259
11/20/2014  03:15:00       22.419       17.068       -1.080       17.724       13.137       11.931      314.123      172.581      142.339        0.071        0.031       28.177       11.439        0.165      335.118        5.540      862.275
11/20/2014  03:16:00      -17.766       32.607       -9.774       21.892       15.842        7.477      479.281      250.953       55.910        0.113        0.039       37.133        7.795        0.044      335.121        5.545      862.297
11/20/2014  03:17:00      -59.421      -19.896       -9.631       10.228       12.573        7.395      104.617      158.092       54.688        0.217        0.016       62.663        4.759        0.006      334.673        4.801      862.323
11/20/2014  03:18:00      -36.097      -32.750       -2.692       10.056        7.801        7.725      101.127       60.854       59.671        0.130        0.011       48.740        3.762        0.006      334.761        4.948      862.342
11/20/2014  03:19:00        3.974       -8.991       -4.734       25.372       26.415        6.337      643.751      697.770       40.152        0.075        0.069        9.830        8.708        0.785      335.007        5.357      862.353
11/20/2014  03:20:00       38.608       10.711       -3.148       14.333       10.915        6.327      205.440      119.131       40.032        0.099        0.018       40.066        5.906        0.022      335.122        5.546      862.348
11/20/2014  03:21:00       54.014       25.683        6.183        5.155        8.409        6.975       26.572       70.711       48.647        0.188        0.007       59.809        3.620        0.004      334.902        5.182      862.352
11/20/2014  03:22:00       50.638       19.193        2.332       16.544       12.243        8.331      273.711      149.882       69.411        0.172        0.025       54.153        8.671        0.026      334.961        5.279      862.356
11/20/2014  03:23:00       60.702       30.782        2.407       20.137       16.674        6.883      405.488      278.023       47.380        0.268        0.037       68.061        5.358        0.006      334.972        5.297      862.375
11/20/2014  03:24:00       90.701       39.834        8.794       16.365       12.688       20.190      267.802      160.978      407.656        0.536        0.042       99.063       11.575        0.014      334.834        5.068      862.368
11/20/2014  03:25:00       80.189       36.485        4.931       22.665       19.338       20.127      513.721      373.952      405.113        0.454        0.065       88.099       10.281        0.014      334.637        4.739      862.378
11/20/2014  03:26:00      121.595       53.434        8.765       40.560       36.591       25.352     1645.082     1338.917      642.733        1.067        0.181      132.818       19.801        0.022      334.546        4.590      862.378
11/20/2014  03:27:00      132.242       75.513        7.256       33.698       31.067       31.624     1135.584      965.144     1000.049        1.317        0.155      152.283       19.107        0.016      334.547        4.592      862.373
11/20/2014  03:28:00      112.956       69.020       37.607       49.209       25.760       34.651     2421.532      663.599     1200.667        1.161        0.214      132.374       18.112        0.019      334.653        4.768      862.362
11/20/2014  03:29:00       87.057       40.511       15.960       32.852       24.230       21.429     1079.265      587.105      459.203        0.580        0.106       96.021       15.466        0.026      334.542        4.582      862.356
11/20/2014  03:30:00      104.056       66.866       23.931       37.171       28.934       20.126     1381.665      837.178      405.067        0.925        0.131      123.688       15.924        0.017      334.493        4.502      862.354
11/20/2014  03:31:00       79.061       48.307       20.677       30.321       22.780       21.422      919.355      518.922      458.891        0.545        0.095       92.652        8.634        0.009      334.568        4.626      862.359
11/20/2014  03:32:00       60.087       32.901       12.817       21.574       16.488       15.270      465.455      271.848      233.166        0.291        0.049       68.505        5.791        0.007      334.580        4.646      862.363
11/20/2014  03:33:00       43.285       13.166       24.980       23.478       16.757       21.883      551.221      280.793      478.870        0.199        0.066       45.243       13.634        0.091      334.526        4.556      862.345
11/20/2014  03:34:00       15.864      -51.496        2.227       24.463       22.299       16.304      598.436      497.248      265.835        0.213        0.068       53.884       15.301        0.081      334.785        4.987      862.345
11/20/2014  03:35:00       27.498      -65.525        4.028       17.029       17.411       15.100      290.002      303.127      228.016        0.294        0.041       71.061       10.203        0.021      335.036        5.404      862.348
11/20/2014  03:36:00       41.650      -46.769       -2.996       11.169       17.075        8.958      124.746      291.542       80.245        0.221        0.025       62.626        4.693        0.006      335.197        5.673      862.359
11/20/2014  03:37:00        2.715       -4.398       11.732       28.448       16.294       11.001      809.308      265.504      121.012        0.068        0.060        5.169       10.944        4.483      334.997        5.339      862.378
11/20/2014  03:38:00      -54.534      -14.367       -2.403       19.031       11.536        8.839      362.160      133.086       78.124        0.188        0.029       56.395        5.819        0.011      334.710        4.862      862.409
11/20/2014  03:39:00      -44.338        8.403       -7.354       20.412       23.543        5.549      416.646      554.292       30.791        0.155        0.050       45.128        4.233        0.009      335.007        5.354      862.426
11/20/2014  03:40:00      -12.190       12.097        2.163       11.755       23.530       10.739      138.168      553.680      115.322        0.055        0.040       17.173        6.246        0.132      335.289        5.824      862.437
11/20/2014  03:41:00      -36.154      -33.926       -5.922       17.271       11.814        9.817      298.278      139.563       96.369        0.151        0.027       49.580        8.617        0.030      335.011        5.362      862.463
11/20/2014  03:42:00      -74.042      -51.176       -2.700       24.944       18.881       14.016      622.207      356.507      196.445        0.464        0.059       90.007       14.180        0.025      334.873        5.134      862.506
11/20/2014  03:43:00      -65.223      -34.362        3.517       30.415       16.010       15.744      925.042      256.307      247.867        0.344        0.071       73.721       16.059        0.047      334.951        5.263      862.527
11/20/2014  03:44:00      -46.044      -21.301       -3.946       24.543       12.480       12.471      602.376      155.744      155.517        0.175        0.046       50.732       12.602        0.062      334.896        5.171      862.535
11/20/2014  03:45:00      -51.953      -31.212       -4.878       12.331       11.796        7.777      152.059      139.138       60.480        0.202        0.018       60.608        4.766        0.006      335.029        5.392      862.538
11/20/2014  03:46:00      -70.856      -31.832       -5.245       23.733       18.361       12.822      563.255      337.130      164.403        0.356        0.053       77.678       10.106        0.017      334.841        5.080      862.541
11/20/2014  03:47:00      -42.390      -47.893       -1.292       41.326       28.680       19.602     1707.831      822.529      384.229        0.350        0.146       63.958       17.221        0.072      334.792        5.000      862.547
11/20/2014  03:48:00      -14.797      -52.121       -2.541       23.812       16.443       12.639      567.020      270.372      159.747        0.197        0.050       54.180        3.736        0.005      334.946        5.254      862.548
11/20/2014  03:49:00      -12.312      -32.391       -0.224       15.857       10.627       12.812      251.448      112.932      164.146        0.086        0.026       34.652        7.007        0.041      335.547        6.254      862.531
11/20/2014  03:50:00      -24.458      -19.750       -4.504        9.796       12.196        7.270       95.965      148.737       52.854        0.065        0.015       31.437        4.081        0.017      335.469        6.123      862.502
11/20/2014  03:51:00      -35.415       -9.705       -4.683       14.270       10.098        6.631      203.643      101.969       43.971        0.086        0.017       36.721        3.112        0.007      334.896        5.170      862.464
11/20/2014  03:52:00       -0.965        7.590        4.280       13.636        7.987        7.629      185.946       63.792       58.203        0.019        0.015        7.651        8.694        1.291      334.969        5.292      862.416
11/20/2014  03:53:00       14.668      -21.876       -0.143       19.397       22.768       13.733      376.227      518.368      188.603        0.089        0.054       26.339       15.938        0.366      334.950        5.261      862.372
11/20/2014  03:54:00      -12.879      -30.241       -4.359       11.490        7.280        6.298      132.023       52.995       39.662        0.066        0.011       32.869        6.373        0.038      335.117        5.538      862.351
11/20/2014  03:55:00      -40.699      -13.911       -3.452        6.548        6.304        4.856       42.875       39.736       23.579        0.098        0.005       43.010        2.582        0.004      334.939        5.242      862.357
11/20/2014  03:56:00      -23.641       -4.358       -1.371       12.523        6.983        5.008      156.815       48.763       25.075        0.041        0.012       24.040        3.882        0.026      334.749        4.926      862.381
11/20/2014  03:57:00       37.475       31.478        8.867       20.873       17.068       10.414      435.673      291.306      108.459        0.165        0.042       48.941        5.162        0.011      334.773        4.968      862.417
11/20/2014  03:58:00       28.192       76.253      -12.701       15.572       20.838       11.321      242.493      434.202      128.174        0.379        0.040       81.298       14.298        0.031      334.716        4.872      862.444
11/20/2014  03:59:00      -11.936      123.494      -23.974       11.794       29.259        8.316      139.097      856.082       69.157        0.852        0.053      124.069        3.624        0.001      334.748        4.925      862.456
11/20/2014  04:00:00      -29.431      133.927      -21.090       23.134       30.094       20.415      535.166      905.642      416.778        1.055        0.093      137.122        5.886        0.002      334.761        4.946      862.444
11/20/2014  04:01:00       -9.876      100.973      -19.784       18.622       32.341       10.374      346.789     1045.971      107.612        0.609        0.075      101.455        8.631        0.007      335.091        5.494      862.404
11/20/2014  04:02:00       33.121       20.519       -4.936        9.463       10.580        6.808       89.546      111.936       46.354        0.090        0.012       38.962        6.942        0.032      335.228        5.721      862.360
11/20/2014  04:03:00       31.431       -8.359        1.331        9.022       11.463        8.360       81.404      131.406       69.891        0.067        0.014       32.524        7.653        0.055      335.147        5.589      862.332
11/20/2014  04:04:00       12.643      -28.170       -9.900       18.991       11.486        6.843      360.671      131.917       46.822        0.080        0.027       30.877        9.104        0.087      335.044        5.416      862.325
11/20/2014  04:05:00      -18.263      -37.655       -5.870       21.821       11.064        9.312      476.134      122.411       86.717        0.124        0.034       41.851        8.707        0.043      335.030        5.394      862.326
11/20/2014  04:06:00      -18.099      -19.856       -0.437       26.819       16.291       13.892      719.260      265.402      192.983        0.095        0.059       26.867       12.855        0.229      334.870        5.128      862.319
11/20/2014  04:07:00       24.251      -27.487       -8.925       25.195       27.409       14.692      634.781      751.262      215.842        0.151        0.080       36.656       16.110        0.193      334.897        5.173      862.308
11/20/2014  04:08:00        6.400       21.735       49.704       29.695       40.358       34.050      881.799     1628.749     1159.369        0.333        0.183       22.658       30.779        1.845      334.864        5.117      862.291
11/20/2014  04:09:00      -11.877       74.519      112.532       19.876       60.067       32.583      395.039     3608.070     1061.679        1.171        0.253       75.460       35.423        0.220      334.947        5.257      862.282
11/20/2014  04:10:00       -4.293       66.476      100.522       30.610       47.429       23.378      937.002     2249.521      546.509        0.914        0.187       66.615       17.431        0.068      334.908        5.190      862.298
11/20/2014  04:11:00       23.277       68.301       87.099       34.500       46.156       35.942     1190.254     2130.397     1291.830        0.870        0.231       72.159       30.623        0.180      334.873        5.133      862.294
11/20/2014  04:12:00        0.863       47.520       67.227       27.485       50.334       28.444      755.416     2533.499      809.039        0.544        0.205       47.528       31.313        0.434      334.836        5.073      862.287
11/20/2014  04:13:00       19.269       -4.109       38.810       22.128       31.449       22.143      489.661      989.020      490.301        0.193        0.098       19.702       20.955        1.131      334.736        4.906      862.285
11/20/2014  04:14:00       18.991       19.200       25.069       14.234       11.121       10.945      202.602      123.670      119.797        0.090        0.022       27.006        1.674        0.004      334.665        4.788      862.281
11/20/2014  04:15:00       46.878      -28.330       -2.076       24.909       42.632       11.470      620.435     1817.466      131.565        0.279        0.128       54.773       15.998        0.085      334.866        5.121      862.296
11/20/2014  04:16:00       50.212      -53.019        7.893       33.516       34.487       20.481     1123.300     1189.348      419.460        0.406        0.137       73.023       18.992        0.068      334.957        5.274      862.326
11/20/2014  04:17:00      -23.923      -24.343        9.128       35.293       27.694       20.873     1245.571      766.976      435.690        0.185        0.122       34.130       23.792        0.486      334.730        4.896      862.375
11/20/2014  04:18:00        0.510      -14.192        5.346       33.731       29.915       23.069     1137.801      894.915      532.201        0.140        0.128       14.201       21.395        2.270      334.726        4.890      862.425
11/20/2014  04:19:00      -57.824      -43.394        3.218       48.258       30.842       27.431     2328.844      951.210      752.451        0.463        0.202       72.296       23.096        0.102      334.739        4.911      862.445
11/20/2014  04:20:00      -22.344       -8.977        8.519       37.600       52.955       27.116     1413.725     2804.279      735.273        0.280        0.248       24.080       28.645        1.415      334.709        4.860      862.445
11/20/2014  04:21:00      -32.188       24.140       27.158       29.773       47.916       28.386      886.447     2295.964      805.786        0.317        0.199       40.235       25.067        0.388      334.683        4.818      862.474
11/20/2014  04:22:00      -97.067      -38.859        7.164       52.172       70.317       33.171     2721.967     4944.424     1100.294        0.987        0.438      104.557       26.318        0.063      334.726        4.888      862.542
11/20/2014  04:23:00      -89.105      -69.810       -2.093       56.981       34.154       25.840     3246.781     1166.515      667.702        0.895        0.254      113.195       24.963        0.049      334.695        4.837      862.566
11/20/2014  04:24:00        1.276      -60.442        8.982       19.636       44.726       18.308      385.585     2000.398      335.171        0.323        0.136       60.455        7.990        0.017      334.776        4.972      862.584
11/20/2014  04:25:00      -74.754      -21.244        1.061       26.155       39.413       19.550      684.062     1553.371      382.208        0.433        0.131       77.715       10.216        0.017      334.760        4.946      862.601
11/20/2014  04:26:00      -52.625        2.581       -4.816       25.147       22.913       13.959      632.365      525.014      194.857        0.208        0.068       52.688       12.795        0.059      334.854        5.102      862.626
11/20/2014  04:27:00      -59.309       45.825      -12.515       18.662       30.232       14.937      348.262      913.989      223.112        0.363        0.074       74.950        9.735        0.017      334.840        5.078      862.630
11/20/2014  04:28:00      -62.524       23.337       -6.953       27.810       27.249       20.550      773.419      742.497      422.296        0.322        0.097       66.738       13.007        0.038      335.057        5.439      862.607
11/20/2014  04:29:00      -37.240       31.626       -9.149       33.551       22.972       17.908     1125.640      527.692      320.711        0.222        0.099       48.857       14.662        0.090      334.975        5.302      862.568
11/20/2014  04:30:00       -6.463       10.090        7.195        8.838       19.710       10.255       78.102      388.485      105.168        0.038        0.029       11.983        2.501        0.044      334.871        5.128      862.542
11/20/2014  04:31:00      -72.868      -21.081      -11.068       33.279       16.689        9.676     1107.514      278.514       93.618        0.368        0.074       75.856        5.357        0.005      334.799        5.010      862.535
11/20/2014  04:32:00     -129.762      -57.996       -5.027       30.114       29.514       23.345      906.864      871.053      545.011        1.127        0.116      142.133       19.208        0.018      334.550        4.596      862.549
11/20/2014  04:33:00     -114.076      -61.039        1.225       34.006       22.643       17.591     1156.381      512.717      309.436        0.936        0.099      129.380       17.068        0.017      334.617        4.707      862.566
11/20/2014  04:34:00      -70.990     -107.105        2.178       44.021       52.619       26.644     1937.852     2768.727      709.897        1.097        0.271      128.495       27.816        0.047      334.651        4.764      862.583
11/20/2014  04:35:00      -52.997     -120.256       10.096       43.538       60.781       33.488     1895.542     3694.271     1121.471        1.204        0.336      131.416       24.912        0.036      334.696        4.838      862.586
11/20/2014  04:36:00      -44.648     -135.958        2.340       38.821       68.192       24.825     1507.102     4650.210      616.287        1.363        0.339      143.101       25.274        0.031      334.716        4.870      862.576
11/20/2014  04:37:00     -112.612     -108.961       -9.135       38.760       58.038       24.953     1502.307     3368.427      622.639        1.506        0.275      156.697       18.718        0.014      334.702        4.849      862.555
11/20/2014  04:38:00      -85.594      -57.933       -5.508       37.836       33.408       19.730     1431.562     1116.077      389.280        0.682        0.147      103.356       15.654        0.023      334.617        4.709      862.527
11/20/2014  04:39:00      -93.442      -68.101       -0.473       35.106       29.083       25.570     1232.403      845.836      653.835        0.805        0.137      115.625       22.231        0.037      334.618        4.711      862.498
11/20/2014  04:40:00      -42.382      -53.858        8.605       46.981       27.417       22.291     2207.202      751.684      496.876        0.411        0.173       68.534       25.703        0.141      334.702        4.848      862.465
11/20/2014  04:41:00      -47.024      -82.780        2.554       36.735       34.466       20.725     1349.491     1187.939      429.544        0.602        0.148       95.205       21.832        0.053      334.730        4.896      862.450
11/20/2014  04:42:00      -24.880      -55.878        2.484       25.165       37.583       21.770      633.296     1412.498      473.933        0.313        0.126       61.167       17.358        0.081      334.724        4.886      862.441
11/20/2014  04:43:00      -63.838      -70.537        1.478       64.645       40.036       25.568     4178.955     1602.889      653.741        0.774        0.322       95.135       30.520        0.103      334.705        4.852      862.438
11/20/2014  04:44:00      -79.211      -64.316       -3.382       35.707       27.321       22.885     1274.963      746.448      523.716        0.648        0.127      102.034       15.397        0.023      334.686        4.822      862.435
11/20/2014  04:45:00      -27.591      -20.284        7.954       29.986       20.447       13.322      899.182      418.062      177.486        0.137        0.075       34.245       10.968        0.103      334.634        4.735      862.434
11/20/2014  04:46:00      -27.007       -9.179       16.640       29.929       23.308       16.604      895.743      543.256      275.689        0.140        0.086       28.524       15.464        0.294      334.568        4.626      862.436
11/20/2014  04:47:00      -32.503       -4.942       -1.900       19.906       13.911       10.361      396.232      193.509      107.350        0.089        0.035       32.877        6.276        0.036      334.572        4.632      862.437
11/20/2014  04:48:00      -40.577      -35.604        3.603       30.425       16.131       14.510      925.671      260.213      210.526        0.216        0.070       53.983       16.978        0.099      334.595        4.670      862.437
11/20/2014  04:49:00      -60.677      -31.394       -4.709       24.586       14.689       10.897      604.479      215.776      118.748        0.281        0.047       68.318       12.431        0.033      334.582        4.651      862.440
11/20/2014  04:50:00      -52.540      -31.306        5.983       37.819       18.514       16.061     1430.273      342.782      257.967        0.290        0.102       61.160       14.649        0.057      334.531        4.565      862.452
11/20/2014  04:51:00      -87.506      -56.733        0.766       27.446       23.900       17.365      753.302      571.229      301.560        0.625        0.081      104.288       12.348        0.014      334.399        4.346      862.456
11/20/2014  04:52:00      -39.303      -29.567        9.715       46.413       23.412       17.203     2154.125      548.100      295.940        0.276        0.150       49.183       15.602        0.101      334.377        4.309      862.442
11/20/2014  04:53:00      -27.983      -40.939        3.720       36.265       23.935       15.333     1315.160      572.882      235.115        0.230        0.106       49.589       17.336        0.122      334.362        4.285      862.418
11/20/2014  04:54:00      -29.751      -24.858        6.700       36.165       22.084       11.686     1307.883      487.690      136.552        0.174        0.097       38.769       12.970        0.112      334.301        4.186      862.389
11/20/2014  04:55:00      -16.413      -20.788        2.660       27.731       27.144       14.144      769.013      736.820      200.046        0.121        0.085       26.486       14.699        0.308      334.362        4.286      862.372
11/20/2014  04:56:00       -5.223      -18.939        0.538       16.083       16.538       12.235      258.678      273.513      149.706        0.053        0.034       19.646       10.116        0.265      334.389        4.331      862.374
11/20/2014  04:57:00       -9.060       -5.838        4.236       10.153       12.929        7.492      103.093      167.159       56.124        0.023        0.016       10.778        6.316        0.343      334.351        4.268      862.377
11/20/2014  04:58:00        4.828        0.403        1.025        7.501       15.075        6.744       56.267      227.251       45.486        0.018        0.016        4.844        6.060        1.565      334.380        4.317      862.380
11/20/2014  04:59:00        6.124       23.071        1.321       17.055        4.792        5.973      290.885       22.966       35.672        0.046        0.017       23.870        2.446        0.011      334.386        4.327      862.366
11/20/2014  05:00:00      -36.635       20.782       -6.806       13.948        8.701        7.752      194.556       75.700       60.089        0.108        0.017       42.120        3.579        0.007      334.344        4.256      862.330
11/20/2014  05:01:00      -35.472       32.887      -13.838       11.259       10.585        8.953      126.770      112.034       80.153        0.143        0.016       48.371        5.157        0.011      334.482        4.485      862.294
11/20/2014  05:02:00      -33.642       43.927       -1.196       14.968       16.435       10.879      224.036      270.096      118.355        0.184        0.031       55.330        4.270        0.006      334.470        4.464      862.262
11/20/2014  05:03:00      -35.896       53.754       -4.677       12.522       11.927       12.894      156.796      142.253      166.265        0.233        0.023       64.638        9.099        0.020      334.458        4.443      862.247
11/20/2014  05:04:00      -35.309       51.683       -4.522       26.110       38.319       15.486      681.707     1468.344      239.815        0.316        0.119       62.593       16.507        0.070      334.290        4.166      862.244
11/20/2014  05:05:00       -2.340       80.061       -9.831       23.027       32.004       14.057      530.250     1024.285      197.595        0.413        0.088       80.096       11.252        0.020      334.260        4.115      862.238
11/20/2014  05:06:00       -1.671      105.833       -5.845       12.731       19.702       12.212      162.071      388.175      149.135        0.597        0.035      105.846        9.360        0.008      334.262        4.118      862.232
11/20/2014  05:07:00      -10.203       64.773       -0.636       18.209       20.762       12.100      331.574      431.076      146.417        0.260        0.045       65.571        8.316        0.016      334.423        4.387      862.224
11/20/2014  05:08:00      -12.814       28.391       -4.835       15.563       27.545       13.539      242.215      758.712      183.317        0.109        0.059       31.149        8.696        0.078      334.448        4.428      862.206
11/20/2014  05:09:00       -3.233       38.846       -1.028       15.892       18.329       13.053      252.554      335.961      170.375        0.114        0.038       38.980        4.738        0.015      334.428        4.395      862.202
11/20/2014  05:10:00        1.718       32.972        0.229       20.058       15.023       12.930      402.324      225.700      167.194        0.094        0.040       33.017        6.343        0.037      334.499        4.511      862.209
11/20/2014  05:11:00       -3.035       51.334       -4.092        6.698        8.721        4.156       44.857       76.060       17.275        0.140        0.007       51.424        4.680        0.008      334.537        4.576      862.229
11/20/2014  05:12:00      -44.387      -10.432        0.388       28.021       23.186        9.555      785.202      537.596       91.293        0.175        0.071       45.597       11.136        0.060      334.150        3.933      862.259
11/20/2014  05:13:00      -72.615      -10.088      -12.663       17.261       11.261       10.341      297.939      126.812      106.945        0.303        0.027       73.312       10.343        0.020      333.914        3.542      862.285
11/20/2014  05:14:00      -95.235       -0.978      -13.159       19.146       10.115       11.326      366.555      102.313      128.286        0.492        0.030       95.240        6.555        0.005      333.827        3.397      862.302
11/20/2014  05:15:00      -94.688        9.498      -15.735       21.392        9.548        9.976      457.623       91.171       99.526        0.498        0.032       95.164        8.434        0.008      334.137        3.912      862.306
11/20/2014  05:16:00      -58.232       -3.470       -8.897       14.619        5.679        8.099      213.712       32.252       65.594        0.190        0.016       58.335        8.029        0.019      334.432        4.401      862.290
11/20/2014  05:17:00      -13.733      -21.888        5.368        8.212        9.621        9.792       67.433       92.568       95.890        0.048        0.013       25.839        6.875        0.071      334.243        4.088      862.272
11/20/2014  05:18:00      -27.626      -25.974       -5.831       26.453       13.161       13.251      699.753      173.200      175.600        0.126        0.052       37.919       14.359        0.143      334.028        3.731      862.258
11/20/2014  05:19:00      -80.589      -34.985      -13.494       29.534       23.092       16.332      872.230      533.259      266.718        0.479        0.084       87.856        6.841        0.006      333.740        3.253      862.233
11/20/2014  05:20:00     -117.504      -24.295      -14.197       26.372       31.778       16.511      695.484     1009.846      272.617        0.829        0.099      119.990        5.139        0.002      333.682        3.156      862.224
11/20/2014  05:21:00     -146.261      -18.781      -13.924       45.135       33.122       20.859     2037.207     1097.039      435.079        1.275        0.178      147.462       17.212        0.014      333.619        3.053      862.223
11/20/2014  05:22:00      -99.384        0.427        0.260       64.285       37.797       29.494     4132.611     1428.626      869.904        0.815        0.322       99.385       32.074        0.104      333.722        3.223      862.230
11/20/2014  05:23:00      -91.150        7.039       -6.468       53.291       37.723       20.776     2839.978     1423.060      431.650        0.655        0.235       91.422       21.921        0.057      333.709        3.201      862.245
11/20/2014  05:24:00      -64.377        9.081      -12.605       44.864       33.382       17.939     2012.780     1114.386      321.809        0.392        0.172       65.014       13.637        0.044      333.712        3.207      862.254
11/20/2014  05:25:00      -53.966      -22.377       -2.923       30.210       23.727       11.791      912.631      562.981      139.038        0.252        0.081       58.421       11.399        0.038      333.626        3.063      862.253
11/20/2014  05:26:00      -77.337      -29.043       -0.412       24.982       22.036       15.731      624.093      485.573      247.464        0.409        0.068       82.611       12.034        0.021      333.564        2.962      862.243
11/20/2014  05:27:00     -135.398      -52.969      -13.130       23.899       31.457       17.306      571.173      989.550      299.510        1.159        0.093      145.390       10.520        0.005      333.482        2.825      862.231
11/20/2014  05:28:00     -115.735       -8.415      -11.174       42.591       41.301       27.786     1814.000     1705.795      772.043        0.894        0.215      116.041       25.074        0.047      333.387        2.668      862.223
11/20/2014  05:29:00     -128.677       14.612      -15.447       34.882       32.467       21.593     1216.726     1054.108      466.267        0.987        0.137      129.504       14.091        0.012      333.661        3.122      862.221
11/20/2014  05:30:00     -135.940       35.924       -6.833       39.887       26.726       26.820     1590.982      714.281      719.287        1.142        0.151      140.607       15.839        0.013      334.066        3.793      862.221
11/20/2014  05:31:00      -33.204        2.615        4.462       38.672       22.616       17.253     1495.514      511.473      297.655        0.172        0.115       33.307       18.991        0.325      333.943        3.591      862.224
11/20/2014  05:32:00      -90.193      -36.684       -9.541       20.024       25.245       12.533      400.964      637.293      157.085        0.538        0.060       97.368        7.691        0.006      333.822        3.389      862.225
11/20/2014  05:33:00     -119.449      -46.714      -10.147       30.768       31.713       23.786      946.678     1005.713      565.780        0.954        0.126      128.259       21.286        0.028      333.642        3.090      862.240
11/20/2014  05:34:00     -106.200      -33.341       -1.653       51.134       40.123       34.259     2614.668     1609.868     1173.650        0.889        0.270      111.310       26.766        0.058      333.532        2.908      862.251
11/20/2014  05:35:00     -166.492       52.943      -12.968       76.776       52.293       35.729     5894.550     2734.582     1276.528        2.030        0.495      174.707       34.651        0.039      333.855        3.442      862.259
11/20/2014  05:36:00     -173.828       -3.886      -18.335       42.876       56.559       29.018     1838.321     3198.904      842.022        1.822        0.294      173.872       28.252        0.026      333.741        3.253      862.280
11/20/2014  05:37:00     -169.241       -3.247      -20.017       51.600       65.117       33.011     2662.529     4240.259     1089.715        1.852        0.400      169.273       32.486        0.037      333.587        2.998      862.306
11/20/2014  05:38:00     -119.916      -10.530      -13.337       41.584       45.394       21.264     1729.189     2060.593      452.163        0.945        0.212      120.378       20.879        0.030      333.672        3.140      862.331
11/20/2014  05:39:00     -125.066      -37.412       -5.746       41.990       49.042       35.356     1763.166     2405.151     1250.050        1.125        0.271      130.542       29.250        0.050      333.540        2.920      862.329
11/20/2014  05:40:00     -115.195       -5.480      -11.507       49.644       40.675       23.510     2464.534     1654.482      552.722        0.905        0.234      115.325       22.115        0.037      333.733        3.242      862.297
11/20/2014  05:41:00      -93.582      -26.202       -5.445       38.955       34.063       20.866     1517.496     1160.284      435.391        0.629        0.156       97.181       21.839        0.050      333.752        3.273      862.244
11/20/2014  05:42:00      -93.768      -48.687       -3.976       27.778       28.553       17.836      771.596      815.246      318.106        0.654        0.095      105.655       14.489        0.019      333.685        3.162      862.193
11/20/2014  05:43:00      -91.956      -10.007       -8.392       46.238       35.054       21.784     2137.994     1228.752      474.548        0.623        0.192       92.499       22.201        0.058      333.811        3.369      862.169
11/20/2014  05:44:00     -123.367       11.334      -11.777       31.549       34.185       20.609      995.319     1168.612      424.738        0.904        0.129      123.887       16.461        0.018      333.587        2.998      862.147
11/20/2014  05:45:00     -146.052       29.360      -12.558       46.818       36.338       25.505     2191.946     1320.426      650.497        1.326        0.208      148.974       21.297        0.020      333.520        2.887      862.115
11/20/2014  05:46:00     -135.437       36.398      -12.057       42.664       34.776       26.309     1820.175     1209.370      692.186        1.177        0.186      140.242       22.764        0.026      333.576        2.980      862.093
11/20/2014  05:47:00     -100.389       14.045       -9.806       30.450       33.878       24.612      927.174     1147.749      605.734        0.653        0.134      101.367       15.575        0.024      333.593        3.008      862.086
11/20/2014  05:48:00     -115.672      -21.311       -8.870       31.331       47.113       25.720      981.614     2219.624      661.506        0.889        0.193      117.619       18.219        0.024      333.588        3.001      862.102
11/20/2014  05:49:00     -120.501       -6.140       -5.832       44.189       32.139       26.267     1952.682     1032.886      689.942        0.913        0.184      120.658       22.306        0.034      333.616        3.047      862.128
11/20/2014  05:50:00     -113.564       -1.679       -9.017       30.672       39.558       20.185      940.747     1564.843      407.426        0.795        0.146      113.576       16.714        0.022      333.649        3.102      862.156
11/20/2014  05:51:00      -79.621        5.214       -5.726       37.927       32.382       20.336     1438.435     1048.572      413.551        0.465        0.145       79.791       19.509        0.060      333.827        3.397      862.154
11/20/2014  05:52:00      -38.002      -44.472        3.077       36.523       29.100       18.007     1333.896      846.828      324.258        0.297        0.125       58.497       16.201        0.077      333.913        3.540      862.150
11/20/2014  05:53:00      -54.159      -31.077       -6.061       22.632       15.242       10.497      512.211      232.326      110.183        0.240        0.043       62.442       10.171        0.027      334.079        3.815      862.143
11/20/2014  05:54:00      -37.015      -20.198       -8.829        6.620        4.787        6.122       43.827       22.917       37.480        0.098        0.005       42.167        4.089        0.009      334.148        3.930      862.139
11/20/2014  05:55:00      -38.255      -15.770       -7.998        7.945        7.099        5.893       63.119       50.394       34.732        0.096        0.007       41.378        4.260        0.011      334.083        3.822      862.139
11/20/2014  05:56:00      -53.694      -12.357      -12.228        6.739        7.178        4.974       45.419       51.527       24.738        0.165        0.006       55.097        3.124        0.003      333.960        3.618      862.135
11/20/2014  05:57:00      -52.307       -1.879       -5.883        9.910       17.163        6.496       98.208      294.578       42.201        0.160        0.022       52.341        6.566        0.016      333.883        3.492      862.141
11/20/2014  05:58:00      -32.447        6.182        0.473       14.404       14.482        9.989      207.474      209.718       99.785        0.080        0.026       33.031        6.066        0.034      334.015        3.709      862.145
11/20/2014  05:59:00      -34.150        2.190        0.937       12.943       15.960       10.959      167.521      254.730      120.109        0.086        0.027       34.220        6.873        0.040      333.956        3.610      862.139
11/20/2014  06:00:00      -43.904       30.985       -3.664       19.415       16.854       12.360      376.942      284.044      152.767        0.186        0.041       53.737        6.304        0.014      334.188        3.995      862.107
11/20/2014  06:01:00      -43.464       11.310       -5.474       16.139       19.053        8.790      260.471      363.011       77.266        0.137        0.035       44.912        5.539        0.015      334.122        3.886      862.057
11/20/2014  06:02:00      -67.028       11.781       -9.778       18.919       20.939       13.178      357.928      438.432      173.668        0.285        0.049       68.056        9.777        0.021      334.048        3.765      862.017
11/20/2014  06:03:00      -67.173      -12.263       -5.709       19.767       14.388       10.574      390.743      207.003      111.818        0.270        0.035       68.283       11.146        0.027      333.853        3.440      862.006
11/20/2014  06:04:00      -17.342      -22.146       -1.007       23.749       20.049       14.967      564.027      401.978      224.010        0.099        0.060       28.129       10.582        0.142      333.735        3.245      862.022
11/20/2014  06:05:00      -81.221      -38.589       -8.285       30.320       21.677       20.490      919.313      469.897      419.835        0.498        0.090       89.922       19.829        0.049      333.632        3.073      862.055
11/20/2014  06:06:00      -66.725      -55.771       -9.701       19.924       23.729       17.057      396.973      563.069      290.951        0.445        0.063       86.963       11.437        0.017      333.596        3.016      862.087
11/20/2014  06:07:00      -80.548      -21.994       -5.554       39.388       24.632       22.237     1551.418      606.747      494.472        0.483        0.133       83.497       23.493        0.079      333.636        3.080      862.109
11/20/2014  06:08:00      -52.364      -35.516        1.795       43.231       36.921       21.687     1868.903     1363.160      470.321        0.385        0.185       63.272       23.120        0.134      333.677        3.149      862.109
11/20/2014  06:09:00      -90.660      -21.617       -0.834       26.973       22.304       16.154      727.548      497.481      260.938        0.509        0.074       93.202       13.571        0.021      333.648        3.101      862.098
11/20/2014  06:10:00      -97.301      -38.793       -9.616       26.903       36.420       19.336      723.754     1326.403      373.876        0.674        0.121      104.749       15.286        0.021      333.668        3.133      862.094
11/20/2014  06:11:00     -126.283      -18.114      -10.382       26.034       22.353       17.318      677.759      499.650      299.916        0.893        0.074      127.576       14.774        0.013      333.632        3.073      862.109
11/20/2014  06:12:00     -159.962      -42.328      -15.917       30.795       29.357       19.246      948.355      861.862      370.422        1.491        0.109      165.468       17.289        0.011      333.659        3.118      862.151
11/20/2014  06:13:00     -168.337      -58.319      -12.689       32.935       36.428       18.327     1084.736     1327.004      335.895        1.732        0.137      178.153       14.990        0.007      333.667        3.132      862.191
11/20/2014  06:14:00     -143.636      -58.262       -5.368       42.663       35.904       20.262     1820.145     1289.089      410.534        1.379        0.176      155.003       17.168        0.012      333.714        3.211      862.231
11/20/2014  06:15:00     -140.676      -29.721      -15.744       31.973       34.500       22.685     1022.260     1190.231      514.614        1.182        0.136      143.781       21.026        0.021      333.726        3.230      862.245
11/20/2014  06:16:00     -146.548       -5.935      -16.016       38.125       33.880       18.834     1453.492     1147.872      354.711        1.236        0.148      146.668       18.417        0.016      333.747        3.264      862.241
11/20/2014  06:17:00     -204.559       36.683      -16.367       30.334       33.784       16.400      920.131     1141.346      268.966        2.289        0.117      207.823        9.689        0.002      333.765        3.293      862.225
11/20/2014  06:18:00     -158.065       10.328      -17.752       56.563       42.124       21.564     3199.363     1774.414      465.012        1.542        0.272      158.402       24.859        0.025      333.657        3.114      862.223
11/20/2014  06:19:00      -93.127       -4.534      -11.245       42.564       45.307       19.265     1811.686     2052.736      371.151        0.653        0.212       93.238       17.434        0.035      333.637        3.082      862.224
11/20/2014  06:20:00     -131.483       -0.330      -13.704       31.091       31.190       22.223      966.652      972.794      493.845        0.995        0.122      131.483       13.817        0.011      333.706        3.197      862.237
11/20/2014  06:21:00     -128.101       10.635       -9.426       27.158       27.196       19.990      737.567      739.622      399.615        0.924        0.094      128.541       11.695        0.008      333.698        3.183      862.233
11/20/2014  06:22:00     -135.710       -2.689       -9.056       31.784       31.921       18.571     1010.227     1018.944      344.891        1.044        0.119      135.737       11.579        0.007      333.770        3.302      862.219
11/20/2014  06:23:00      -93.406      -14.800      -12.426       44.399       39.091       21.716     1971.233     1528.071      471.604        0.653        0.199       94.571       26.290        0.077      333.783        3.324      862.190
11/20/2014  06:24:00      -73.497       -7.676       -3.758       45.678       37.456       20.278     2086.511     1402.974      411.193        0.469        0.195       73.897       19.924        0.073      333.805        3.360      862.154
11/20/2014  06:25:00      -86.108       13.206       -2.472       58.718       28.455       25.589     3447.851      809.670      654.776        0.625        0.246       87.115       27.369        0.099      333.737        3.248      862.125
11/20/2014  06:26:00      -72.765      -14.757        1.958       35.169       28.043       24.182     1236.882      786.430      584.789        0.406        0.130       74.247       21.933        0.087      333.694        3.175      862.101
11/20/2014  06:27:00      -72.371      -27.725       -0.808       39.037       29.956       16.339     1523.869      897.342      266.958        0.435        0.134       77.500       14.855        0.037      333.723        3.224      862.087
11/20/2014  06:28:00      -77.543      -46.276        2.974       34.565       26.120       15.023     1194.720      682.247      225.696        0.513        0.105       90.301       14.458        0.026      333.661        3.122      862.075
11/20/2014  06:29:00      -88.705      -36.805       -3.419       30.269       29.924       17.621      916.204      895.458      310.492        0.568        0.106       96.037       15.479        0.026      333.728        3.234      862.075
11/20/2014  06:30:00      -59.826      -48.982       -9.817       36.699       28.834       17.569     1346.826      831.396      308.668        0.428        0.124       77.320       16.830        0.047      333.736        3.245      862.091
11/20/2014  06:31:00      -81.513      -59.572        0.813       34.409       25.199       19.004     1184.012      634.988      361.151        0.619        0.109      100.961       12.162        0.015      333.781        3.321      862.097
11/20/2014  06:32:00      -31.465      -22.606        3.410       29.910       27.088       17.415      894.631      733.756      303.299        0.172        0.097       38.744       12.324        0.101      333.834        3.410      862.109
11/20/2014  06:33:00      -21.923      -17.324        4.701       35.663       16.327       12.770     1271.874      266.586      163.076        0.125        0.085       27.942       16.182        0.335      333.837        3.413      862.113
11/20/2014  06:34:00      -31.350      -29.818        3.731       21.962       28.080       14.918      482.323      788.469      222.545        0.169        0.075       43.266       11.847        0.075      333.917        3.547      862.120
11/20/2014  06:35:00      -36.145      -22.911       -5.094       30.877       10.508       12.471      953.372      110.427      155.515        0.154        0.061       42.795       10.579        0.061      333.897        3.516      862.128
11/20/2014  06:36:00      -25.558      -25.964        4.811       24.061       14.935       10.250      578.941      223.058      105.057        0.113        0.045       36.433        5.957        0.027      333.946        3.595      862.126
11/20/2014  06:37:00        8.444        0.330        5.052        7.844        9.191        9.023       61.528       84.475       81.420        0.016        0.011        8.450        3.333        0.156      333.963        3.623      862.114
11/20/2014  06:38:00       39.641       15.105        2.191       11.617        5.642        6.544      134.954       31.837       42.819        0.101        0.010       42.421        2.802        0.004      334.055        3.777      862.084
11/20/2014  06:39:00       46.513       26.313       -3.012       11.742       14.222       14.924      137.870      202.270      222.723        0.171        0.028       53.440       12.537        0.055      333.915        3.543      862.073
11/20/2014  06:40:00       50.932       16.986        4.124       15.281       15.531       16.756      233.495      241.197      280.748        0.183        0.038       53.690       13.716        0.065      333.916        3.547      862.076
11/20/2014  06:41:00        5.604       34.793       32.034       17.016       16.252       16.105      289.559      264.138      259.377        0.154        0.041       35.241        9.296        0.070      333.892        3.504      862.082
11/20/2014  06:42:00       40.017       33.699       25.357       40.415       24.177       24.531     1633.407      584.507      601.788        0.310        0.141       52.317       25.799        0.243      333.832        3.406      862.084
11/20/2014  06:43:00       50.835       18.023       12.650       31.433       24.188       21.747      988.051      585.064      472.936        0.256        0.102       53.935       17.057        0.100      333.818        3.383      862.075
11/20/2014  06:44:00       73.825       20.364       17.965       30.914       26.116       21.853      955.648      682.036      477.557        0.415        0.106       76.582       20.957        0.075      333.755        3.276      862.062
11/20/2014  06:45:00       54.625       45.495       52.605       31.670       26.114       22.598     1003.006      681.954      510.660        0.501        0.110       71.089       15.706        0.049      333.791        3.338      862.062
11/20/2014  06:46:00       69.041       37.649       50.314       33.153       30.975       28.473     1099.122      959.461      810.738        0.579        0.143       78.639       18.435        0.055      333.784        3.325      862.070
11/20/2014  06:47:00       66.911       71.870       60.039       32.741       26.558       26.412     1072.006      705.323      697.594        0.786        0.124       98.195       15.064        0.024      333.794        3.342      862.081
11/20/2014  06:48:00       38.365       41.896       48.130       31.345       26.275       25.840      982.515      690.366      667.689        0.394        0.117       56.808       17.065        0.090      333.765        3.293      862.083
11/20/2014  06:49:00       42.630       40.913       58.868       32.075       23.739       16.504     1028.809      563.535      272.384        0.441        0.093       59.086       12.003        0.041      333.764        3.293      862.084
11/20/2014  06:50:00       26.180       25.804       41.224       19.381       26.353       15.812      375.634      694.485      250.014        0.219        0.066       36.759       13.685        0.139      333.788        3.332      862.087
11/20/2014  06:51:00       38.871      -27.075        9.277       34.985       26.592       23.121     1223.932      707.142      534.568        0.240        0.123       47.371       22.762        0.231      333.859        3.450      862.091
11/20/2014  06:52:00       59.103      -21.574        7.647       24.941       29.397       19.875      622.056      864.201      395.033        0.295        0.094       62.917       17.697        0.079      333.845        3.428      862.088
11/20/2014  06:53:00       12.004        9.663       31.182       25.026       16.554       16.176      626.307      274.041      261.652        0.119        0.058       15.410       17.555        1.298      333.879        3.483      862.090
11/20/2014  06:54:00       24.723       20.021        0.056       12.764       17.509       12.536      162.922      306.578      157.146        0.082        0.031       31.813       10.285        0.105      333.775        3.311      862.083
11/20/2014  06:55:00       14.651       29.822       -1.857       10.626       11.229       11.506      112.908      126.089      132.378        0.074        0.019       33.227        7.190        0.047      333.738        3.250      862.082
11/20/2014  06:56:00        2.940       33.884       -1.466       10.613        7.958        4.838      112.631       63.329       23.406        0.068        0.010       34.012        4.185        0.015      333.688        3.168      862.080
11/20/2014  06:57:00        1.397       15.315       -0.762        9.062        8.429        6.940       82.118       71.048       48.158        0.022        0.010       15.379        5.811        0.143      333.781        3.321      862.089
11/20/2014  06:58:00       23.789       33.265       -3.219       11.143        8.387        6.012      124.168       70.342       36.140        0.096        0.012       40.896        5.268        0.017      333.765        3.295      862.087
11/20/2014  06:59:00       35.257       41.098       20.246       21.131       17.947       25.257      446.539      322.107      637.930        0.237        0.070       54.149       17.496        0.104      333.701        3.188      862.093
11/20/2014  07:00:00       45.592       64.486       45.770       33.221       21.977       24.104     1103.625      482.986      580.989        0.525        0.108       78.975       16.758        0.045      333.668        3.134      862.106
11/20/2014  07:01:00       40.986       65.795       52.997       27.913       21.522       22.190      779.109      463.199      492.382        0.528        0.087       77.517       19.001        0.060      333.682        3.155      862.124
11/20/2014  07:02:00       53.736       32.612       37.131       20.830       26.822       21.947      433.885      719.411      481.688        0.348        0.082       62.858       19.155        0.093      333.609        3.037      862.138
11/20/2014  07:03:00       46.116       33.491       19.230       15.984       15.881       14.768      255.500      252.199      218.103        0.217        0.036       56.994        8.090        0.020      333.649        3.102      862.138
11/20/2014  07:04:00       40.540       52.605       40.182       21.917       15.303       18.686      480.333      234.192      349.151        0.354        0.053       66.414        8.329        0.016      333.680        3.153      862.138
11/20/2014  07:05:00       47.851       31.702       16.213       21.431       18.258       19.078      459.298      333.340      363.987        0.236        0.058       57.400        8.883        0.024      333.714        3.211      862.143
11/20/2014  07:06:00       64.028       37.236       19.366       26.330       19.330       15.856      693.254      373.663      251.408        0.359        0.066       74.068       10.418        0.020      333.741        3.253      862.149
11/20/2014  07:07:00       44.307       35.554       11.995       24.734       17.703       11.527      611.781      313.394      132.867        0.221        0.053       56.808       12.650        0.050      333.718        3.215      862.159
11/20/2014  07:08:00       10.841       23.987        0.637       17.731       13.588       12.351      314.389      184.647      152.544        0.067        0.033       26.323        9.627        0.134      333.708        3.200      862.156
11/20/2014  07:09:00        6.314       17.669       -6.247       11.003        7.053        6.499      121.076       49.744       42.232        0.030        0.011       18.763        4.867        0.067      333.718        3.215      862.154
11/20/2014  07:10:00       10.970       38.056      -10.230        6.483        8.374        8.384       42.024       70.120       70.285        0.093        0.009       39.606        3.718        0.009      333.712        3.208      862.136
11/20/2014  07:11:00       46.315       34.039        3.867       14.573       13.671       13.563      212.365      186.900      183.951        0.195        0.029       57.478        6.098        0.011      333.765        3.295      862.111
11/20/2014  07:12:00       67.843       46.618        5.077       21.469       14.388       11.881      460.938      207.029      141.150        0.381        0.040       82.316       10.549        0.016      333.725        3.229      862.090
11/20/2014  07:13:00       79.358       46.765        6.353       22.113       20.272       16.238      489.002      410.954      263.676        0.484        0.058       92.113        8.477        0.008      333.701        3.188      862.064
11/20/2014  07:14:00       98.651       62.085       19.187       26.459       18.562       20.094      700.066      344.531      403.785        0.770        0.072      116.561       15.215        0.017      333.625        3.064      862.048
11/20/2014  07:15:00       87.070       68.766       21.625       25.038       21.627       21.668      626.920      467.718      469.491        0.717        0.078      110.951       17.091        0.024      333.581        2.989      862.035
11/20/2014  07:16:00       69.878       36.112        8.688       21.684       18.025       20.713      470.197      324.900      429.043        0.374        0.061       78.658       10.332        0.017      333.593        3.009      862.044
11/20/2014  07:17:00       37.832       22.043        1.594       25.306       17.633       11.770      640.379      310.931      138.532        0.150        0.054       43.786       10.817        0.061      333.647        3.100      862.064
11/20/2014  07:18:00       -2.080       17.048       -3.419       12.668        8.938        5.895      160.466       79.888       34.755        0.029        0.014       17.175        6.190        0.130      333.686        3.163      862.078
11/20/2014  07:19:00      -22.623        4.829       -4.876       13.272       11.945        8.234      176.154      142.679       67.805        0.047        0.019       23.132        6.688        0.084      333.709        3.201      862.097
11/20/2014  07:20:00       -4.683        3.830        5.484        9.682       17.194        8.900       93.736      295.633       79.206        0.027        0.023        6.050        8.146        1.813      333.807        3.364      862.106
11/20/2014  07:21:00        0.327       -2.251       12.577        7.862        5.397        6.960       61.815       29.130       48.441        0.015        0.007        2.274        5.445        5.733      333.948        3.598      862.094
11/20/2014  07:22:00       -8.830       23.231        6.929       11.274       21.567       12.707      127.104      465.116      161.476        0.071        0.038       24.852        8.284        0.111      333.959        3.617      862.083
11/20/2014  07:23:00        4.141        4.247       21.142       18.120       14.913       13.959      328.329      222.404      194.841        0.061        0.037        5.932       12.359        4.341      334.012        3.705      862.061
11/20/2014  07:24:00       16.772       31.117       -6.845       15.343       13.790       11.735      235.394      190.162      137.707        0.093        0.028       35.349        7.600        0.046      333.797        3.348      862.042
11/20/2014  07:25:00       23.887       15.202        2.842        7.888        6.228        5.904       62.221       38.789       34.858        0.047        0.007       28.314        5.222        0.034      333.824        3.393      862.045
11/20/2014  07:26:00       10.703       20.853       -0.995        8.925        3.881        5.271       79.651       15.064       27.783        0.034        0.006       23.439        5.589        0.057      333.882        3.488      862.040
11/20/2014  07:27:00       -2.522       21.385        2.191        4.631        5.570        4.758       21.442       31.026       22.641        0.027        0.004       21.533        1.812        0.007      333.944        3.591      862.027
11/20/2014  07:28:00      -10.152       22.011       -0.511       13.099       18.408        7.783      171.583      338.861       60.568        0.058        0.029       24.240        5.271        0.047      333.968        3.632      862.023
11/20/2014  07:29:00      -31.942       14.985        5.393       24.478       16.088       12.240      599.194      258.815      149.821        0.114        0.050       35.282        9.743        0.076      334.062        3.788      862.027
11/20/2014  07:30:00      -35.176       29.796        4.861       16.650       26.376       15.033      277.220      695.711      225.999        0.167        0.060       46.099       10.836        0.055      334.168        3.962      862.024
11/20/2014  07:31:00      -32.906       26.454        3.511       18.559       21.341       14.950      344.449      455.433      223.492        0.141        0.051       42.221       12.436        0.087      334.132        3.904      862.024
11/20/2014  07:32:00      -31.896        0.193        2.862       20.055        8.394       12.937      402.191       70.457      167.366        0.083        0.032       31.897       12.759        0.160      334.118        3.880      862.014
11/20/2014  07:33:00      -24.978        9.982        7.412       16.623       15.972       12.246      276.328      255.109      149.956        0.073        0.034       26.898        6.710        0.062      334.073        3.806      862.005
11/20/2014  07:34:00      -44.710       30.619        1.693       18.995       21.294       13.410      360.826      453.441      179.835        0.197        0.050       54.189        9.704        0.032      334.171        3.968      861.974
11/20/2014  07:35:00      -47.860       37.282       -3.639       18.905       20.236       16.702      357.387      409.501      278.955        0.237        0.052       60.667       13.614        0.050      334.224        4.056      861.947
11/20/2014  07:36:00      -52.235       17.155        3.887       20.999       19.586       12.561      440.955      383.612      157.777        0.201        0.049       54.980        5.912        0.012      334.225        4.057      861.942
11/20/2014  07:37:00      -48.154        7.909        2.425       20.628       16.845       13.832      425.522      283.740      191.319        0.164        0.045       48.799        4.057        0.007      334.268        4.129      861.951
11/20/2014  07:38:00      -66.053       -4.695       -4.876       16.228       14.853       11.591      263.352      220.600      134.354        0.251        0.031       66.220        9.642        0.021      334.095        3.842      861.964
11/20/2014  07:39:00      -76.725       14.056       -2.883       31.514       17.703       16.983      993.135      313.391      288.408        0.384        0.080       78.002       17.876        0.053      334.108        3.864      861.966
11/20/2014  07:40:00      -71.079       15.950        0.816       22.789       19.588       16.040      519.356      383.695      257.280        0.323        0.058       72.847       13.859        0.036      334.234        4.071      861.957
11/20/2014  07:41:00      -75.522       -8.129       -7.468       22.246       17.026       14.617      494.872      289.885      213.657        0.341        0.050       75.958       12.672        0.028      334.099        3.848      861.952
11/20/2014  07:42:00      -59.014      -29.580        1.612       23.314       27.012       14.089      543.545      729.628      198.509        0.292        0.074       66.012       11.920        0.033      334.156        3.943      861.955
11/20/2014  07:43:00      -77.260       -9.039       -9.437       28.130       27.033       14.441      791.287      730.769      208.550        0.393        0.087       77.787       13.276        0.029      334.170        3.966      861.973
11/20/2014  07:44:00      -79.034       -2.557      -10.004       37.503       24.238       14.329     1406.472      587.462      205.324        0.428        0.110       79.075       13.928        0.031      334.187        3.993      861.987
11/20/2014  07:45:00     -100.210       13.070       -9.834       21.538       18.227       16.413      463.901      332.209      269.372        0.569        0.053      101.059       11.241        0.012      334.251        4.098      861.990
11/20/2014  07:46:00      -99.281       17.448       -4.504       26.406       21.483       18.052      697.274      461.529      325.882        0.583        0.074      100.803       16.647        0.027      334.269        4.131      861.984
11/20/2014  07:47:00      -83.047        5.214      -13.129       22.366       18.664       14.903      500.226      348.330      222.090        0.408        0.054       83.210       11.060        0.018      334.175        3.974      861.974
11/20/2014  07:48:00      -54.311       -3.287       -7.106       24.985       23.088       13.263      624.268      533.064      175.916        0.217        0.067       54.411       11.640        0.046      334.302        4.186      861.988
11/20/2014  07:49:00      -38.946      -18.128       -4.806       24.307       34.737        8.340      590.827     1206.625       69.552        0.187        0.093       42.959        9.691        0.051      334.220        4.049      862.006
11/20/2014  07:50:00      -61.481       -9.043       -3.827       23.266       24.032       15.254      541.312      577.559      232.691        0.261        0.068       62.142       11.117        0.032      334.201        4.018      862.024
11/20/2014  07:51:00      -56.242        8.057       -7.802       23.512       17.685       11.896      552.805      312.776      141.515        0.215        0.050       56.816        9.225        0.026      334.405        4.356      862.035
11/20/2014  07:52:00      -48.513        6.157       -0.044       25.359       21.724       14.365      643.060      471.949      206.353        0.186        0.066       48.903       13.228        0.073      334.297        4.178      862.031
11/20/2014  07:53:00       -9.526       19.610       10.483       33.850       18.539       17.460     1145.836      343.710      304.840        0.119        0.090       21.801       18.726        0.738      334.403        4.355      862.023
11/20/2014  07:54:00       19.150       86.706       -7.701       13.359       16.488       14.652      178.471      271.860      214.668        0.430        0.033       88.796       11.823        0.018      334.219        4.047      862.010
11/20/2014  07:55:00        8.011       60.167       -8.033       12.497       17.166        9.126      156.183      294.678       83.281        0.214        0.027       60.698        5.748        0.009      334.229        4.063      861.995
11/20/2014  07:56:00       29.242       45.174       -4.206       17.228       19.317       15.934      296.807      373.153      253.899        0.192        0.046       53.813       13.249        0.061      334.252        4.103      861.978
11/20/2014  07:57:00       11.588       34.650       -0.994       20.217       21.555       18.213      408.722      464.611      331.730        0.127        0.060       36.537       16.464        0.203      334.276        4.143      861.984
11/20/2014  07:58:00       14.757       18.573       -2.514        9.676       17.383       12.099       93.616      302.176      146.384        0.056        0.027       23.722       10.170        0.184      334.258        4.113      861.996
11/20/2014  07:59:00       17.699       50.649       -5.437       16.165       16.367        8.477      261.294      267.882       71.858        0.175        0.030       53.653        6.123        0.013      334.258        4.112      862.009
11/20/2014  08:00:00       21.581       62.151       -6.834       11.877       16.512       11.792      141.068      272.631      139.057        0.246        0.028       65.792        8.425        0.016      334.263        4.120      862.011
11/20/2014  08:01:00       34.880       28.918        3.292       20.624       20.400       13.897      425.358      416.171      193.127        0.155        0.052       45.309       12.697        0.079      334.300        4.180      862.004
11/20/2014  08:02:00       37.351       29.318       -8.761       24.697       18.918       11.908      609.956      357.882      141.798        0.172        0.055       47.483        9.787        0.042      334.309        4.197      861.995
11/20/2014  08:03:00       52.810       36.691        1.020       15.094       13.588       12.965      227.834      184.638      168.100        0.236        0.029       64.305        8.200        0.016      334.332        4.235      861.987
11/20/2014  08:04:00       60.660       40.816        4.287       13.917       12.012       12.066      193.689      144.289      145.599        0.292        0.024       73.113        7.086        0.009      334.304        4.190      861.984
11/20/2014  08:05:00       63.111       41.580        7.097       16.189       13.726       10.944      262.088      188.397      119.777        0.317        0.029       75.577        9.341        0.015      334.313        4.205      861.978
11/20/2014  08:06:00       69.435       52.301        2.793       14.495        9.459       13.418      210.095       89.482      180.042        0.402        0.024       86.928        5.471        0.004      334.266        4.124      861.968
11/20/2014  08:07:00       66.587       45.024       -3.433       15.138       10.330        8.767      229.172      106.718       76.861        0.344        0.021       80.380        4.271        0.003      334.268        4.125      861.943
11/20/2014  08:08:00       36.444       32.562       -7.409       16.982       18.415       14.075      288.378      339.122      198.100        0.163        0.041       48.871       12.969        0.070      334.296        4.174      861.923
11/20/2014  08:09:00        9.004       16.710       -3.087       10.935       18.445        8.280      119.578      340.219       68.563        0.045        0.026       18.981        8.805        0.215      334.358        4.280      861.921
11/20/2014  08:10:00       10.264       56.284       -8.783       13.617       12.651        7.959      185.430      160.052       63.349        0.188        0.020       57.212        7.335        0.016      334.339        4.246      861.927
11/20/2014  08:11:00        1.170       68.335      -14.391        8.436       10.774        7.290       71.165      116.069       53.150        0.256        0.012       68.345        6.629        0.009      334.310        4.199      861.927
11/20/2014  08:12:00       13.492       66.117      -13.083       13.226       13.463        8.678      174.938      181.265       75.300        0.258        0.022       67.480        8.763        0.017      334.320        4.214      861.924
11/20/2014  08:13:00       12.526       64.833      -12.164       15.672       26.854       12.124      245.602      721.147      146.983        0.281        0.056       66.032       15.257        0.053      334.337        4.245      861.930
11/20/2014  08:14:00       24.484       84.434      -15.824       15.688       15.524       11.532      246.113      240.982      132.983        0.430        0.031       87.912        6.708        0.006      334.328        4.230      861.943
11/20/2014  08:15:00       20.820       81.709       -6.558       13.634       21.426       17.352      185.886      459.090      301.077        0.405        0.047       84.320       13.523        0.026      334.324        4.222      861.932
11/20/2014  08:16:00       18.004       72.793       -6.180       14.724       26.619       16.990      216.785      708.550      288.659        0.344        0.061       74.986       17.500        0.054      334.367        4.293      861.943
11/20/2014  08:17:00       21.941       88.578      -13.710       12.132       13.864        8.801      147.176      192.218       77.451        0.447        0.021       91.255        6.336        0.005      334.370        4.297      861.947
11/20/2014  08:18:00       20.430       58.956      -10.280       13.826       19.919       12.792      191.151      396.783      163.637        0.238        0.038       62.396       12.610        0.041      334.432        4.400      861.950
11/20/2014  08:19:00       25.809       22.426       -4.091       17.500       23.530       15.670      306.266      553.646      245.543        0.115        0.055       34.191       15.973        0.218      334.492        4.500      861.978
11/20/2014  08:20:00       18.699       46.383        0.760       17.351       24.186       21.456      301.072      584.967      460.371        0.192        0.067       50.010       16.447        0.108      334.482        4.483      862.004
11/20/2014  08:21:00       19.053       52.499      -10.486        9.032       10.923        9.935       81.574      119.311       98.694        0.176        0.015       55.849        7.295        0.017      334.494        4.503      862.021
11/20/2014  08:22:00       15.396       30.878       -5.406        8.176       15.701        9.439       66.841      246.508       89.096        0.081        0.020       34.503        8.187        0.056      334.523        4.550      862.030
11/20/2014  08:23:00        9.414       39.253       -1.086       12.647       10.989       13.008      159.953      120.768      169.210        0.104        0.022       40.367        8.218        0.041      334.563        4.617      862.015
11/20/2014  08:24:00       10.905       56.158       -7.995       12.130       19.155        8.347      147.130      366.931       69.680        0.196        0.029       57.207        9.193        0.026      334.557        4.607      862.004
11/20/2014  08:25:00        8.381       69.904       -9.673        9.579       10.955        8.378       91.759      120.002       70.196        0.267        0.014       70.404        7.044        0.010      334.578        4.644      861.993
11/20/2014  08:26:00        4.410       61.554       -7.164        9.768       11.028        8.465       95.415      121.624       71.657        0.207        0.014       61.712        5.371        0.008      334.630        4.729      861.996
11/20/2014  08:27:00        3.601       51.025      -10.493        7.235        8.403        8.408       52.348       70.615       70.702        0.146        0.010       51.152        5.042        0.010      334.628        4.729      862.008
11/20/2014  08:28:00       14.843       31.390       -5.997        9.437       10.167        6.933       89.061      103.362       48.070        0.074        0.012       34.723        2.694        0.006      334.650        4.762      862.040
11/20/2014  08:29:00       19.044        9.924        3.087        8.694        6.209        7.634       75.587       38.553       58.274        0.032        0.009       21.475        6.129        0.081      334.698        4.845      862.082
11/20/2014  08:30:00       12.552       32.267        8.387       10.527       10.122       14.763      110.808      102.461      217.938        0.085        0.022       34.623        5.126        0.022      334.722        4.884      862.121
11/20/2014  08:31:00        0.235       37.636       51.671       18.938       21.568       16.441      358.641      465.162      270.322        0.259        0.055       37.637       11.680        0.096      334.874        5.134      862.135
11/20/2014  08:32:00       80.837       50.306       30.298       32.705       24.741       21.276     1069.613      612.096      452.689        0.606        0.107       95.212       17.932        0.035      334.778        4.975      862.126
11/20/2014  08:33:00       94.991       57.304       36.355       31.614       21.878       24.118      999.427      478.638      581.673        0.784        0.103      110.938       16.770        0.023      334.814        5.033      862.109
11/20/2014  08:34:00       95.708       45.749       16.572       18.041       22.548       16.769      325.490      508.408      281.200        0.632        0.056      106.080        5.664        0.003      334.811        5.031      862.083
11/20/2014  08:35:00       74.539       50.563        4.526       25.899       22.038       20.750      670.750      485.667      430.549        0.486        0.079       90.070        6.176        0.005      334.861        5.112      862.055
11/20/2014  08:36:00       92.872       57.326       -2.817       21.790       25.615       19.606      474.812      656.109      384.414        0.672        0.076      109.140        7.881        0.005      334.814        5.035      862.017
11/20/2014  08:37:00       70.080       48.424       -3.813       31.198       27.372       21.680      973.327      749.211      470.040        0.473        0.110       85.182       14.168        0.028      334.839        5.077      862.000
11/20/2014  08:38:00       67.526       37.413        3.001       44.827       34.546       22.842     2009.459     1193.412      521.758        0.485        0.186       77.197       17.523        0.052      334.869        5.127      861.983
11/20/2014  08:39:00       97.059       40.347       12.530       37.134       27.160       29.989     1378.948      737.689      899.312        0.711        0.151      105.111       24.043        0.052      334.826        5.055      861.987
11/20/2014  08:40:00       57.234       39.434       27.071       36.318       26.111       27.310     1318.982      681.787      745.817        0.415        0.137       69.504       14.396        0.043      334.929        5.225      862.009
11/20/2014  08:41:00       85.879       70.032        1.361       30.033       31.155       25.923      901.963      970.656      671.985        0.741        0.127      110.814       19.431        0.031      334.837        5.073      862.028
11/20/2014  08:42:00       71.515       52.333        5.394       32.322       24.394       19.294     1044.694      595.071      372.251        0.495        0.101       88.618       12.694        0.021      334.788        4.993      862.042
11/20/2014  08:43:00       35.597       43.789        0.022       21.689       20.945       18.204      470.399      438.677      331.388        0.221        0.062       56.432       12.266        0.047      334.849        5.094      862.055
11/20/2014  08:44:00       26.045       34.029      -15.031       15.563       10.860        8.787      242.213      117.931       77.203        0.125        0.022       42.852        5.362        0.016      334.763        4.952      862.059
11/20/2014  08:45:00        9.336       41.601       -2.822       12.411       18.588       11.521      154.037      345.526      132.724        0.123        0.032       42.636        9.300        0.048      334.851        5.097      862.069
11/20/2014  08:46:00       29.932       15.854       22.092       23.533       21.536       14.987      553.812      463.793      224.597        0.144        0.062       33.871        3.485        0.011      334.913        5.200      862.060
11/20/2014  08:47:00       37.709       40.426       26.043       43.461       38.887       26.416     1888.880     1512.215      697.796        0.392        0.205       55.283       21.497        0.151      334.906        5.188      862.058
11/20/2014  08:48:00       77.014       47.785       -2.685       31.860       22.667       16.685     1015.084      513.788      278.374        0.501        0.090       90.634        8.309        0.008      334.846        5.087      862.030
11/20/2014  08:49:00      105.625       54.855        8.419       25.197       18.567       21.592      634.896      344.720      466.233        0.784        0.072      119.020       12.430        0.011      334.856        5.104      862.005
11/20/2014  08:50:00       92.754       42.058       12.868       36.525       26.956       27.075     1334.072      726.613      733.036        0.667        0.140      101.844       21.335        0.044      334.914        5.201      861.976
11/20/2014  08:51:00       93.654       52.182       22.323       32.952       26.603       27.646     1085.840      707.726      764.292        0.727        0.128      107.211       13.217        0.015      334.884        5.150      861.959
11/20/2014  08:52:00       37.616       26.597       47.756       38.952       28.669       22.821     1517.283      821.934      520.783        0.363        0.143       46.069       18.114        0.155      334.981        5.313      861.960
11/20/2014  08:53:00        8.221       34.721       45.171       27.754       34.293       30.123      770.257     1175.993      907.369        0.308        0.143       35.681       30.721        0.741      335.000        5.344      861.948
11/20/2014  08:54:00       82.302       66.390       36.757       25.831       22.137       18.778      667.218      490.066      352.598        0.702        0.075      105.741        8.751        0.007      334.871        5.129      861.946
11/20/2014  08:55:00       68.011       40.223       20.716       21.620       27.334       24.934      467.404      747.169      621.717        0.425        0.092       79.015       14.001        0.031      334.905        5.186      861.948
11/20/2014  08:56:00       10.770       53.167       57.875       25.763       27.644       23.471      663.721      764.173      550.865        0.414        0.099       54.247       18.901        0.121      335.095        5.502      861.946
11/20/2014  08:57:00        9.067       34.400       73.951       34.421       30.565       19.825     1184.810      934.246      393.013        0.462        0.126       35.575       16.850        0.224      335.116        5.537      861.943
11/20/2014  08:58:00       51.245       39.207       53.179       54.900       37.557       37.646     3014.050     1410.543     1417.194        0.642        0.292       64.523       38.765        0.361      335.041        5.413      861.955
11/20/2014  08:59:00       51.964       33.724       31.628       48.840       19.264       23.749     2385.306      371.098      564.010        0.408        0.166       61.948       27.853        0.202      334.953        5.265      861.955
11/20/2014  09:00:00        2.182       39.670       42.569       17.925       24.544       17.813      321.301      602.384      317.292        0.232        0.062       39.730       16.911        0.181      335.065        5.453      861.954
11/20/2014  09:01:00       17.098      -32.902        8.924       24.539       39.307       19.246      602.166     1545.002      370.409        0.199        0.126       37.079       20.326        0.301      335.081        5.479      861.950
11/20/2014  09:02:00       40.870      -22.785        6.374       29.867       39.560       27.925      892.033     1564.968      779.798        0.273        0.162       46.792       25.392        0.294      335.073        5.466      861.958
11/20/2014  09:03:00       43.579      -28.906       -1.742       22.993       29.159       17.419      528.666      850.272      303.435        0.221        0.084       52.295       17.037        0.106      335.039        5.409      861.979
11/20/2014  09:04:00       12.046      -45.420        7.728       14.811       18.109       14.841      219.353      327.920      220.252        0.152        0.038       46.990        7.605        0.026      335.091        5.496      862.012
11/20/2014  09:05:00        5.503      -24.773       12.806       11.875       25.294       11.672      141.006      639.765      136.246        0.086        0.046       25.377       13.278        0.274      335.072        5.463      862.044
11/20/2014  09:06:00       24.382       38.516        7.616       13.723       14.610       12.476      188.316      213.454      155.643        0.135        0.028       45.585        9.614        0.044      334.918        5.208      862.061
11/20/2014  09:07:00       49.619       36.766        8.553       15.766       13.004       12.854      248.556      169.111      165.220        0.223        0.029       61.756       10.313        0.028      334.876        5.140      862.046
11/20/2014  09:08:00       82.864       59.666       15.554       22.682       18.965       15.827      514.472      359.673      250.484        0.590        0.056      102.110        5.620        0.003      334.923        5.216      862.015
11/20/2014  09:09:00       75.541       38.839       12.573       44.345       38.044       28.137     1966.454     1447.376      791.686        0.579        0.210       84.941       14.783        0.030      335.036        5.405      861.975
11/20/2014  09:10:00       92.033       62.112       32.472       32.835       30.097       27.668     1078.136      905.815      765.510        0.807        0.137      111.031       19.356        0.030      335.045        5.419      861.938
11/20/2014  09:11:00      104.093       57.700       47.395       47.263       34.709       39.397     2233.751     1204.692     1552.142        1.070        0.250      119.015       26.979        0.051      335.004        5.351      861.904
11/20/2014  09:12:00       81.455       45.760       47.218       44.733       37.755       40.976     2001.074     1425.426     1679.022        0.803        0.255       93.428       31.057        0.110      334.977        5.308      861.890
11/20/2014  09:13:00       67.636       46.295       25.901       51.806       35.960       31.022     2683.828     1293.107      962.360        0.616        0.247       81.963       34.431        0.176      334.993        5.333      861.884
11/20/2014  09:14:00      103.302       56.084       21.623       46.812       32.630       20.281     2191.406     1064.725      411.318        0.898        0.183      117.545        8.925        0.006      334.953        5.267      861.888
11/20/2014  09:15:00       72.969       45.911       17.677       25.443       24.274       25.721      647.359      589.223      661.547        0.482        0.095       86.211       11.172        0.017      334.973        5.300      861.880
11/20/2014  09:16:00       59.256       46.413       27.915       41.862       17.949       21.960     1752.449      322.180      482.239        0.450        0.128       75.269       24.475        0.106      334.984        5.319      861.872
11/20/2014  09:17:00       67.281       55.895        6.836       29.717       26.001       19.907      883.099      676.063      396.281        0.483        0.098       87.470       10.656        0.015      335.018        5.374      861.868
11/20/2014  09:18:00      101.851       58.633       18.091       29.063       19.604       33.466      844.629      384.310     1119.941        0.824        0.117      117.522       13.978        0.014      335.053        5.431      861.868
11/20/2014  09:19:00       77.955       37.703        4.911       40.052       29.716       19.357     1604.153      883.068      374.705        0.519        0.143       86.594       18.933        0.048      334.986        5.320      861.875
11/20/2014  09:20:00       60.627       24.534        8.413       33.017       38.282       22.927     1090.146     1465.527      525.639        0.371        0.154       65.403       12.231        0.035      335.021        5.380      861.867
11/20/2014  09:21:00       91.186       43.583        5.214       36.918       29.960       23.632     1362.965      897.593      558.484        0.653        0.141      101.066       11.090        0.012      334.978        5.307      861.849
11/20/2014  09:22:00       72.295       29.557       -1.294       37.234       26.356       24.978     1386.362      694.620      623.898        0.440        0.135       78.103       15.823        0.041      334.969        5.292      861.829
11/20/2014  09:23:00       62.412       34.872       -1.273       23.789       25.353       20.134      565.918      642.786      405.388        0.336        0.081       71.493       12.564        0.031      335.004        5.349      861.819
11/20/2014  09:24:00       83.025       48.741       12.815       26.990       17.209       21.630      728.442      296.157      467.876        0.546        0.075       96.275        7.790        0.007      334.983        5.316      861.824
11/20/2014  09:25:00       75.831       51.188       11.964       18.834       17.742       21.441      354.724      314.789      459.712        0.482        0.056       91.490       10.379        0.013      334.973        5.300      861.840
11/20/2014  09:26:00       24.091       27.789       29.344       25.273       20.742       24.995      638.722      430.246      624.770        0.195        0.085       36.777        6.446        0.031      335.082        5.480      861.875
11/20/2014  09:27:00        0.747       11.388       12.647       24.507       18.009       25.701      600.572      324.339      660.516        0.094        0.079       11.413       15.927        1.948      335.133        5.564      861.923
11/20/2014  09:28:00        3.236       19.243       31.747       24.449       42.831       30.904      597.736     1834.490      955.060        0.239        0.169       19.513       32.542        2.781      335.147        5.587      861.968
11/20/2014  09:29:00       66.932       46.826       22.104       19.145       20.908       17.961      366.515      437.139      322.612        0.414        0.056       81.686       15.405        0.036      335.019        5.378      862.002
11/20/2014  09:30:00       82.722       42.105       16.383       25.346       20.765       16.171      642.422      431.193      261.508        0.511        0.067       92.822        8.721        0.009      335.072        5.463      862.012
11/20/2014  09:31:00       29.889       33.643       -5.770       28.309       20.726       14.696      801.384      429.577      215.973        0.175        0.072       45.002        8.416        0.035      335.087        5.489      861.990
11/20/2014  09:32:00       30.063       48.183       -0.119       32.704       22.460       18.094     1069.578      504.461      327.389        0.256        0.095       56.792        8.464        0.022      335.094        5.499      861.959
11/20/2014  09:33:00       21.264       71.932       -9.916       21.486       34.830       16.052      461.650     1213.162      257.669        0.383        0.097       75.009       15.603        0.043      335.082        5.480      861.934
11/20/2014  09:34:00       15.798       46.650       -3.824       27.529       39.014       14.593      757.839     1522.105      212.967        0.247        0.125       49.252       11.510        0.055      335.089        5.493      861.907
11/20/2014  09:35:00       29.433       71.630       -9.715       23.422       33.287       16.638      548.601     1108.046      276.812        0.401        0.097       77.441       15.862        0.042      335.092        5.497      861.879
11/20/2014  09:36:00       32.810       85.618       -8.403       16.738       24.216       20.518      280.152      586.404      420.992        0.488        0.064       91.689       15.979        0.030      335.081        5.479      861.827
11/20/2014  09:37:00       22.598       55.550       -7.442       24.822       30.657       16.539      616.145      939.854      273.552        0.274        0.091       59.971       15.201        0.064      335.095        5.501      861.785
11/20/2014  09:38:00        8.818      138.735      -22.410       18.435       36.473       15.344      339.862     1330.281      235.436        1.087        0.095      139.015       14.570        0.011      335.050        5.429      861.766
11/20/2014  09:39:00       23.774       99.264       -7.629       21.274       36.923       23.298      452.563     1363.306      542.803        0.642        0.118      102.071       24.384        0.057      335.088        5.491      861.766
11/20/2014  09:40:00       30.080       61.982      -13.710       18.873       28.976       15.320      356.208      839.602      234.716        0.318        0.072       68.895       14.790        0.046      335.099        5.509      861.773
11/20/2014  09:41:00       26.238       64.805       -7.553       21.874       24.381       13.663      478.487      594.449      186.669        0.310        0.063       69.915       13.894        0.039      335.142        5.580      861.768
11/20/2014  09:42:00       20.712       58.268       -6.344       22.503       28.541       19.287      506.391      814.571      371.987        0.278        0.085       61.840       15.261        0.061      335.191        5.660      861.754
11/20/2014  09:43:00       28.906       39.404       -6.418       41.919       29.660       26.068     1757.177      879.707      679.558        0.287        0.166       48.870       22.442        0.211      335.265        5.781      861.721
11/20/2014  09:44:00       12.746       35.517       -4.157       49.238       21.822       17.668     2424.374      476.201      312.174        0.233        0.161       37.735       10.460        0.077      335.220        5.710      861.699
11/20/2014  09:45:00       70.652       29.554       -2.056       48.033       26.479       16.090     2307.169      701.149      258.886        0.457        0.163       76.584       10.754        0.020      335.205        5.684      861.687
11/20/2014  09:46:00       55.469       38.553        5.522       30.076       25.035       26.359      904.554      626.729      694.819        0.341        0.111       67.551       18.751        0.077      335.218        5.705      861.693
11/20/2014  09:47:00       62.679       36.620        2.711       19.847       19.990       18.522      393.896      399.600      343.074        0.321        0.057       72.592        8.852        0.015      335.247        5.754      861.695
11/20/2014  09:48:00       73.341       42.331       13.250       27.730       27.365       26.218      768.973      748.853      687.365        0.478        0.110       84.681       15.646        0.034      335.325        5.883      861.686
11/20/2014  09:49:00       40.817       26.151       12.300       31.708       23.213       19.869     1005.418      538.827      394.771        0.222        0.097       48.476       12.973        0.072      335.285        5.817      861.700
11/20/2014  09:50:00       45.754       25.956        2.764       21.911       16.867       19.845      480.095      284.485      393.805        0.197        0.058       52.604       14.190        0.073      335.246        5.751      861.703
11/20/2014  09:51:00       -0.455       34.103       -3.586       22.339       31.796       12.477      499.019     1010.968      155.680        0.142        0.083       34.106       10.598        0.097      335.213        5.696      861.683
11/20/2014  09:52:00      -11.833       48.083       -7.845       21.291       21.877        9.393      453.321      478.590       88.223        0.177        0.051       49.518        3.634        0.005      335.389        5.990      861.680
11/20/2014  09:53:00      -25.753       67.462       -9.722       25.523       22.110       19.824      651.424      488.832      393.010        0.342        0.077       72.211       15.051        0.043      335.374        5.965      861.689
11/20/2014  09:54:00      -48.212       55.685      -12.805       24.856       31.129       16.662      617.818      969.046      277.623        0.373        0.093       73.656       14.743        0.040      335.568        6.288      861.694
11/20/2014  09:55:00      -37.607       67.131       -8.309       16.372       29.544       16.319      268.044      872.823      266.294        0.370        0.070       76.947       10.699        0.019      335.497        6.169      861.700
11/20/2014  09:56:00        6.921       29.907       12.795       24.062       23.965       12.589      578.962      574.329      158.495        0.121        0.066       30.697       11.089        0.130      335.562        6.278      861.698
11/20/2014  09:57:00       23.057       41.945        6.863       24.238       21.816       12.666      587.473      475.936      160.432        0.178        0.061       47.865        6.658        0.019      335.459        6.106      861.684
11/20/2014  09:58:00       23.800       30.557       -1.947       28.369       21.222       19.104      804.795      450.361      364.956        0.156        0.081       38.732       15.548        0.161      335.512        6.195      861.692
11/20/2014  09:59:00       22.621       22.367       -5.300       20.701       22.336       14.592      428.542      498.875      212.924        0.109        0.057       31.812        8.829        0.077      335.433        6.064      861.691
11/20/2014  10:00:00       13.079       19.205        4.412       16.685       10.625       15.887      278.385      112.891      252.410        0.060        0.032       23.236        5.192        0.050      335.452        6.095      861.704
11/20/2014  10:01:00        3.550       16.847       -9.274        7.744       12.784        5.547       59.969      163.442       30.769        0.032        0.013       17.217        5.866        0.116      335.434        6.064      861.683
11/20/2014  10:02:00        2.238        8.593       -6.284       10.591        8.883       10.951      112.164       78.915      119.935        0.021        0.016        8.880        6.832        0.592      335.550        6.259      861.676
11/20/2014  10:03:00      -15.739        0.705       11.681       23.552        8.687       12.383      554.716       75.458      153.328        0.058        0.039       15.755        6.255        0.158      335.734        6.564      861.658
11/20/2014  10:04:00       -8.874       -6.125       13.003       27.382       13.269       12.217      749.792      176.067      149.250        0.068        0.054       10.783        8.991        0.695      335.859        6.774      861.649
11/20/2014  10:05:00       -4.054        9.008        8.883       18.794       10.187       14.857      353.221      103.770      220.734        0.043        0.034        9.879        5.161        0.273      335.797        6.671      861.628
11/20/2014  10:06:00       22.842       34.438       -1.859       18.534       16.625       11.332      343.501      276.402      128.418        0.123        0.037       41.325        7.418        0.032      335.609        6.356      861.611
11/20/2014  10:07:00        9.910       20.806       -6.298       12.359       14.227       12.393      152.745      202.395      153.597        0.054        0.025       23.045        7.902        0.118      335.711        6.527      861.609
11/20/2014  10:08:00      -82.229      -48.929        2.618       38.232       34.830       18.522     1461.674     1213.110      343.051        0.609        0.151       95.685       16.260        0.029      335.685        6.484      861.594
11/20/2014  10:09:00      -68.295      -47.476       -0.014       55.779       33.923       21.161     3111.322     1150.747      447.799        0.581        0.235       83.176       21.745        0.068      335.730        6.558      861.583
11/20/2014  10:10:00     -101.120      -32.132        4.316       28.121       24.452       14.749      790.792      597.922      217.533        0.644        0.080      106.102       12.419        0.014      335.723        6.548      861.550
11/20/2014  10:11:00      -82.437       -9.684      -13.580       18.476       16.806       17.044      341.364      282.437      290.488        0.399        0.046       83.004        4.695        0.003      335.672        6.464      861.541
11/20/2014  10:12:00      -39.980       28.655       -3.917       17.891       27.195       16.421      320.074      739.587      269.645        0.188        0.066       49.188       11.931        0.059      335.683        6.481      861.525
11/20/2014  10:13:00       -9.100       43.133        3.783       10.207       13.144       17.214      104.174      172.760      296.333        0.127        0.029       44.083        7.141        0.026      335.764        6.615      861.510
11/20/2014  10:14:00       10.859       20.414      -13.306       13.754       12.861        7.879      189.167      165.413       62.075        0.056        0.021       23.122        7.939        0.118      335.686        6.484      861.492
11/20/2014  10:15:00      -25.238        6.236       -3.490        6.723        4.792        9.403       45.200       22.959       88.417        0.042        0.008       25.997        4.425        0.029      335.753        6.596      861.486
11/20/2014  10:16:00        7.488       12.574       17.368       24.605       14.514       13.997      605.402      210.659      195.925        0.076        0.051       14.635       16.380        1.253      335.991        6.993      861.485
11/20/2014  10:17:00       46.622       30.730       -0.766       14.217       17.157       15.678      202.135      294.361      245.810        0.193        0.037       55.839        9.965        0.032      335.714        6.532      861.481
11/20/2014  10:18:00       16.811       41.922        2.491       15.416       19.035       14.563      237.644      362.349      212.094        0.143        0.041       45.167        6.418        0.020      335.802        6.679      861.468
11/20/2014  10:19:00        5.099       44.171       -9.829       22.155       18.122       10.736      490.841      328.416      115.269        0.150        0.047       44.465        7.467        0.028      335.806        6.686      861.474
11/20/2014  10:20:00       35.352       50.248       -8.081       30.760       16.852       13.745      946.178      284.006      188.929        0.263        0.071       61.438        9.814        0.026      335.731        6.561      861.473
11/20/2014  10:21:00       14.240       41.472        0.796       21.541       14.775       13.729      464.017      218.312      188.484        0.140        0.044       43.849        7.580        0.030      335.799        6.674      861.489
11/20/2014  10:22:00       37.066       28.415       -2.102       24.875       10.838       13.276      618.787      117.466      176.251        0.155        0.046       46.704        8.393        0.032      335.806        6.686      861.497
11/20/2014  10:23:00       33.056       26.060       -2.024       25.911       18.851       15.420      671.394      355.359      237.791        0.152        0.063       42.093       13.915        0.109      335.869        6.790      861.500
11/20/2014  10:24:00       25.912       33.188       -3.202       20.033       17.730       19.918      401.309      314.353      396.744        0.145        0.056       42.105       11.948        0.081      335.799        6.673      861.485
11/20/2014  10:25:00       26.601       24.059       -2.240       18.331       12.521       13.464      336.009      156.781      181.272        0.098        0.034       35.867        6.621        0.034      335.794        6.667      861.483
11/20/2014  10:26:00       54.789       42.040        4.450       22.252       24.206       16.745      495.164      585.913      280.385        0.307        0.068       69.059       12.816        0.034      335.793        6.664      861.479
11/20/2014  10:27:00       66.382       45.963        5.099       21.313       14.691       14.753      454.224      215.840      217.654        0.372        0.044       80.742        9.005        0.012      335.759        6.609      861.473
11/20/2014  10:28:00       48.965       39.118       -0.809       31.060       19.411       14.501      964.713      376.778      210.293        0.274        0.078       62.672       10.900        0.030      335.780        6.643      861.457
11/20/2014  10:29:00       53.333       41.904       10.557       19.212       15.478       18.887      369.099      239.580      356.722        0.284        0.048       67.825        9.184        0.018      335.824        6.717      861.446
11/20/2014  10:30:00       70.467       34.663       17.442       21.650       20.778       23.828      468.740      431.721      567.797        0.397        0.073       78.531       11.398        0.021      335.900        6.840      861.457
11/20/2014  10:31:00       70.360       45.455       -1.758       30.611       27.604       21.658      937.057      761.979      469.055        0.459        0.108       83.766       15.472        0.034      335.832        6.729      861.456
11/20/2014  10:32:00       53.178       43.414        2.656       24.000       25.252       19.787      575.982      637.663      391.538        0.316        0.080       68.649        8.082        0.014      335.855        6.767      861.444
11/20/2014  10:33:00       74.128       50.325        4.889       49.964       28.266       27.438     2496.417      798.947      752.839        0.605        0.202       89.596       10.147        0.013      335.852        6.762      861.397
11/20/2014  10:34:00       54.071       72.763       46.337       62.073       28.870       32.165     3853.062      833.480     1034.589        0.804        0.286       90.654       37.544        0.172      335.986        6.983      861.367
11/20/2014  10:35:00       83.488       59.960        1.043       51.634       27.711       29.021     2666.062      767.926      842.234        0.742        0.214      102.788       21.132        0.042      335.789        6.658      861.347
11/20/2014  10:36:00       35.673       36.064       -5.323       24.254       26.804       20.796      588.264      718.440      432.491        0.217        0.087       50.727       16.020        0.100      335.788        6.656      861.358
11/20/2014  10:37:00       16.962       27.260       -4.251       12.062       11.456        9.735      145.491      131.239       94.762        0.071        0.019       32.106        6.902        0.046      335.798        6.672      861.362
11/20/2014  10:38:00       32.567       29.401        2.175       14.090       21.630       13.589      198.524      467.853      184.667        0.139        0.043       43.875       11.667        0.071      335.856        6.768      861.336
11/20/2014  10:39:00       11.943       76.209       -3.480       14.772       23.542       14.838      218.221      554.237      220.179        0.348        0.050       77.139       11.619        0.023      335.864        6.781      861.309
11/20/2014  10:40:00       15.656       31.164        2.988       15.251       17.899       15.308      232.605      320.385      234.330        0.101        0.039       34.876       10.182        0.085      335.930        6.891      861.299
11/20/2014  10:41:00       32.205       -0.517       -6.666       10.139        6.393        7.513      102.809       40.874       56.450        0.064        0.010       32.209        6.250        0.038      335.862        6.781      861.312
11/20/2014  10:42:00        5.031        8.118       25.828       19.463       20.890       15.129      378.821      436.399      228.891        0.090        0.052        9.551       18.709        3.837      336.191        7.326      861.325
11/20/2014  10:43:00       25.152       30.254       16.734       20.500       17.981       25.641      420.258      323.327      657.466        0.161        0.070       39.344       18.396        0.219      335.971        6.959      861.303
11/20/2014  10:44:00       57.279       41.012        6.848       31.710       30.155       22.866     1005.554      909.308      522.860        0.372        0.122       70.448       14.267        0.041      335.959        6.940      861.252
11/20/2014  10:45:00       64.042       43.601        8.298       32.831       30.289       23.463     1077.899      917.403      550.511        0.431        0.127       77.476        9.897        0.016      335.993        6.996      861.211
11/20/2014  10:46:00       43.374        8.160       -2.046       26.122       18.594       22.146      682.349      345.730      490.449        0.174        0.076       44.135       10.730        0.059      335.984        6.983      861.194
11/20/2014  10:47:00       23.058        8.880        1.301       13.859        9.811       11.074      192.079       96.253      122.625        0.051        0.021       24.708        4.589        0.034      336.060        7.107      861.191
11/20/2014  10:48:00       59.958       22.037       10.504       34.413       15.943       18.090     1184.224      254.165      327.238        0.298        0.088       63.880       15.560        0.059      336.024        7.048      861.191
11/20/2014  10:49:00       73.172       40.928       15.814       38.274       30.718       24.662     1464.913      943.583      608.238        0.515        0.151       83.841       13.060        0.024      336.030        7.058      861.181
11/20/2014  10:50:00      103.234       67.210        5.948       19.983       19.053       17.977      399.314      363.018      323.175        0.815        0.054      123.184       11.447        0.009      335.876        6.800      861.167
11/20/2014  10:51:00       36.322       44.460       23.776       34.519       20.628       28.120     1191.548      425.504      790.721        0.313        0.120       57.411       25.232        0.193      336.020        7.041      861.167
11/20/2014  10:52:00       26.374       36.216       48.037       34.554       25.989       15.264     1193.975      675.402      232.984        0.321        0.105       44.801       11.577        0.067      336.151        7.260      861.168
11/20/2014  10:53:00       79.352       50.475       21.396       34.247       21.942       25.871     1172.885      481.469      669.334        0.581        0.116       94.045       17.995        0.037      336.120        7.208      861.134
11/20/2014  10:54:00       69.207       53.045       41.552       43.365       37.467       33.858     1880.490     1403.779     1146.385        0.688        0.222       87.197       20.707        0.056      336.124        7.214      861.079
11/20/2014  10:55:00       69.920       55.774       58.623       48.163       40.513       31.592     2319.688     1641.306      998.071        0.820        0.248       89.440       29.328        0.108      336.127        7.219      861.054
11/20/2014  10:56:00       65.880       82.655       66.703       34.965       32.606       28.187     1222.555     1063.165      794.517        0.935        0.154      105.698       20.385        0.037      336.131        7.228      861.035
11/20/2014  10:57:00       43.061       40.047       42.753       40.248       26.538       30.022     1619.913      704.275      901.332        0.426        0.161       58.805       15.185        0.067      336.131        7.225      861.008
11/20/2014  10:58:00       68.320       38.186       49.731       40.413       38.069       34.156     1633.178     1449.234     1166.622        0.642        0.212       78.268       24.965        0.102      336.093        7.162      860.988
11/20/2014  10:59:00       57.616       24.994       33.760       41.450       29.328       26.876     1718.089      860.106      722.332        0.419        0.165       62.804       19.247        0.094      336.098        7.170      860.988
11/20/2014  11:00:00       51.242       59.386       46.328       32.821       21.113       16.323     1077.212      445.779      266.456        0.504        0.089       78.437       11.907        0.023      336.125        7.216      860.993
11/20/2014  11:01:00       78.074       57.242       13.747       18.949       14.573       20.895      359.075      212.372      436.607        0.528        0.050       96.810       11.254        0.014      336.005        7.015      860.989
11/20/2014  11:02:00       85.177       25.771       11.443       40.181       37.378       27.564     1614.519     1397.129      759.762        0.591        0.189       88.990       12.683        0.020      336.026        7.051      860.957
11/20/2014  11:03:00       54.235       50.747       47.350       41.699       51.009       39.363     1738.822     2601.868     1549.411        0.682        0.295       74.275       41.191        0.308      336.054        7.097      860.915
11/20/2014  11:04:00       34.337       58.295       55.729       27.232       20.781       13.061      741.589      431.839      170.592        0.451        0.067       67.656       13.167        0.038      336.075        7.131      860.893
11/20/2014  11:05:00       36.878       53.247       58.923       48.946       33.976       27.378     2395.753     1154.371      749.576        0.598        0.215       64.771       24.969        0.149      336.156        7.268      860.882
11/20/2014  11:06:00      121.372       72.484       45.821       41.598       26.949       32.904     1730.373      726.274     1082.704        1.281        0.177      141.369       22.534        0.025      336.065        7.116      860.857
11/20/2014  11:07:00      110.022       46.402       26.851       70.845       47.429       49.053     5018.995     2249.474     2406.190        1.232        0.484      119.407       42.771        0.128      336.050        7.092      860.824
11/20/2014  11:08:00       93.206       84.459       24.433       75.053       44.886       53.305     5632.970     2014.737     2841.409        1.345        0.524      125.780       42.321        0.113      336.055        7.100      860.805
11/20/2014  11:09:00      108.916       57.711        5.606       34.931       29.045       25.229     1220.158      843.609      636.522        0.896        0.135      123.261       11.119        0.008      335.981        6.975      860.796
11/20/2014  11:10:00       45.606       36.627       22.936       46.853       24.225       30.570     2195.230      586.849      934.545        0.383        0.186       58.493       29.742        0.259      336.146        7.252      860.782
11/20/2014  11:11:00       28.627       47.371       49.777       30.674       30.033       19.001      940.877      901.952      361.027        0.387        0.110       55.349        6.960        0.016      336.197        7.336      860.779
11/20/2014  11:12:00       22.977       32.896       33.089       41.029       25.331       25.797     1683.342      641.638      665.480        0.285        0.150       40.126       23.744        0.350      336.066        7.119      860.770
11/20/2014  11:13:00       68.093       51.654       34.258       29.410       24.363       13.510      864.945      593.566      182.508        0.506        0.082       85.468       11.038        0.017      335.952        6.928      860.781
11/20/2014  11:14:00       38.981       10.106       -2.168       26.916       25.844       25.175      724.451      667.908      633.804        0.183        0.101       40.270        9.607        0.057      335.989        6.990      860.790
11/20/2014  11:15:00       35.412       20.083       12.217       25.096       25.006       20.734      629.818      625.314      429.881        0.175        0.084       40.710        8.817        0.047      336.094        7.164      860.800
11/20/2014  11:16:00       20.121       16.203        6.221       31.105       27.507       26.854      967.531      756.641      721.121        0.158        0.122       25.834       19.395        0.564      336.262        7.445      860.798
11/20/2014  11:17:00       -7.461      -24.918        7.945       25.499       23.293       20.321      650.187      542.560      412.952        0.117        0.080       26.011       15.898        0.374      336.311        7.527      860.788
11/20/2014  11:18:00       -1.058       28.649       41.217       16.760       30.739       22.574      280.911      944.902      509.592        0.213        0.087       28.669       17.433        0.370      336.247        7.421      860.776
11/20/2014  11:19:00       79.257       49.888       22.209       42.865       26.650       26.393     1837.366      710.216      696.568        0.625        0.162       93.651       15.975        0.029      336.051        7.091      860.740
11/20/2014  11:20:00      122.590       90.292       16.083       38.377       27.210       26.621     1472.807      740.406      708.699        1.318        0.146      152.253       23.138        0.023      336.074        7.132      860.683
11/20/2014  11:21:00      159.761       97.674       -0.234       39.120       38.485       40.242     1530.363     1481.114     1619.380        1.985        0.232      187.253       22.699        0.015      336.115        7.201      860.637
11/20/2014  11:22:00      120.447       58.429        3.623       41.306       34.800       31.859     1706.168     1211.025     1015.009        1.093        0.197      133.871       10.597        0.006      336.094        7.165      860.635
11/20/2014  11:23:00      109.348       55.035       10.693       34.729       32.913       26.719     1206.090     1083.288      713.925        0.905        0.150      122.417       17.200        0.020      336.084        7.149      860.653
11/20/2014  11:24:00       44.385       32.514       25.591       42.798       35.570       20.865     1831.686     1265.217      435.345        0.361        0.177       55.020       17.699        0.103      336.208        7.356      860.675
11/20/2014  11:25:00       46.025       44.807       32.399       39.707       39.094       30.334     1576.651     1528.376      920.174        0.460        0.201       64.233       22.513        0.123      336.163        7.279      860.702
11/20/2014  11:26:00       43.427       54.780        6.644       22.827       18.953       13.647      521.070      359.230      186.234        0.300        0.053       69.905        9.655        0.019      336.066        7.118      860.719
11/20/2014  11:27:00       41.035       43.712        2.902       25.780       31.271       22.590      664.618      977.895      510.318        0.288        0.108       59.955       15.144        0.064      336.089        7.155      860.717
11/20/2014  11:28:00       62.697       35.395        9.063       35.324       29.282       22.433     1247.813      857.445      503.240        0.394        0.130       71.998       11.920        0.027      336.059        7.105      860.707
11/20/2014  11:29:00       24.385       17.653       -8.430       44.986       29.231       31.596     2023.703      854.475      998.309        0.243        0.194       30.104       26.999        0.804      336.112        7.194      860.693
11/20/2014  11:30:00       36.176       57.600       -0.766       26.591       24.818       19.552      707.071      615.936      382.261        0.317        0.085       68.018       13.256        0.038      336.092        7.159      860.669
11/20/2014  11:31:00       61.150       53.754        5.098       28.935       22.661       25.800      837.246      513.539      665.627        0.434        0.101       81.418       11.704        0.021      336.085        7.148      860.635
11/20/2014  11:32:00       51.440       44.763       22.011       33.296       27.839       23.328     1108.642      774.988      544.192        0.378        0.121       68.189       18.459        0.073      336.146        7.251      860.591
11/20/2014  11:33:00       41.753       39.626       12.235       22.148       23.952       24.993      490.544      573.686      624.627        0.258        0.084       57.563       14.017        0.059      336.170        7.292      860.568
11/20/2014  11:34:00       29.571       44.509        0.074       20.573       34.240       21.302      423.267     1172.395      453.784        0.245        0.102       53.437       19.517        0.133      336.139        7.239      860.564
11/20/2014  11:35:00       33.873       64.847       -2.625       22.956       36.159       21.806      526.965     1307.456      475.498        0.383        0.115       73.161       22.631        0.096      336.112        7.196      860.539
11/20/2014  11:36:00       42.438       39.231        2.004       14.870       22.037       15.248      221.120      485.615      232.503        0.214        0.047       57.794       14.930        0.067      336.130        7.224      860.522
11/20/2014  11:37:00        0.235       31.811       -4.430       17.186       15.118       14.211      295.342      228.553      201.966        0.088        0.036       31.812       10.460        0.108      336.169        7.292      860.535
11/20/2014  11:38:00       32.449       47.667      -17.064       16.114       34.871        9.983      259.667     1215.992       99.657        0.260        0.079       57.663       10.950        0.036      336.116        7.201      860.567
11/20/2014  11:39:00       59.752       53.852       -4.857       12.008       23.289       12.913      144.190      542.370      166.757        0.367        0.043       80.439        6.107        0.006      336.156        7.269      860.569
11/20/2014  11:40:00       58.955       42.171       -2.318       24.736       20.436       16.499      611.882      417.611      272.206        0.328        0.065       72.485       14.062        0.038      336.136        7.235      860.534
11/20/2014  11:41:00       50.102       50.573        5.710       26.303       22.323       20.036      691.847      498.311      401.431        0.335        0.080       71.189       15.529        0.048      336.184        7.316      860.476
11/20/2014  11:42:00       55.752       28.852        4.400       26.062       23.479       19.458      679.246      551.247      378.610        0.278        0.080       62.776       16.387        0.068      336.259        7.441      860.422
11/20/2014  11:43:00       66.084       37.233        2.788       25.984       19.824       23.074      675.164      392.982      532.400        0.368        0.080       75.851       15.343        0.041      336.274        7.465      860.406
11/20/2014  11:44:00       54.072       37.841        0.815       25.190       22.705       20.080      634.559      515.514      403.199        0.295        0.078       65.998        5.506        0.007      336.254        7.430      860.398
11/20/2014  11:45:00       44.773       20.916        3.995       26.592       16.515       14.707      707.133      272.750      216.307        0.183        0.060       49.418       13.301        0.072      336.247        7.421      860.395
11/20/2014  11:46:00        9.965       36.683       30.749       19.274       23.462       15.166      371.471      550.442      229.998        0.177        0.058       38.012       11.227        0.087      336.387        7.654      860.366
11/20/2014  11:47:00       51.426       55.910        8.148       40.156       19.732       22.804     1612.499      389.358      520.020        0.418        0.126       75.964       16.727        0.048      336.380        7.642      860.323
11/20/2014  11:48:00       73.100       44.152        6.709       31.345       23.863       22.762      982.514      569.444      518.110        0.470        0.104       85.399       16.893        0.039      336.332        7.564      860.277
11/20/2014  11:49:00       60.826       35.094        0.927       38.741       25.825       19.479     1500.897      666.947      379.449        0.374        0.127       70.224       16.104        0.053      336.262        7.446      860.234
11/20/2014  11:50:00       23.316       61.041      -10.690       23.955       28.207       18.576      573.853      795.632      345.052        0.305        0.086       65.342       15.183        0.054      336.327        7.556      860.185
11/20/2014  11:51:00       39.491       64.428       -9.610       26.537       37.383       29.377      704.227     1397.454      863.012        0.438        0.148       75.568       26.148        0.120      336.330        7.559      860.147
11/20/2014  11:52:00       77.332       42.360       -2.152       52.868       30.258       25.495     2795.015      915.555      649.984        0.607        0.218       88.174       22.738        0.066      336.330        7.559      860.134
11/20/2014  11:53:00       83.735       46.080       23.116       53.331       36.559       32.780     2844.235     1336.561     1074.520        0.746        0.263       95.576       23.826        0.062      336.386        7.653      860.125
11/20/2014  11:54:00       50.435       58.505      -17.374       24.468       25.109       30.089      598.687      630.460      905.345        0.420        0.107       77.244       11.785        0.023      336.423        7.714      860.135
11/20/2014  11:55:00       59.656       34.300       -7.927       36.446       34.071       29.517     1328.281     1160.826      871.235        0.408        0.168       68.814       18.658        0.074      336.485        7.817      860.154
11/20/2014  11:56:00       75.724       73.339        7.239       27.724       24.419       21.850      768.614      596.295      477.425        0.650        0.092      105.418       15.116        0.021      336.370        7.626      860.168
11/20/2014  11:57:00      110.491       49.546       10.619       33.869       33.722       26.370     1147.133     1137.159      695.375        0.888        0.149      121.091       14.993        0.015      336.409        7.691      860.142
11/20/2014  11:58:00       92.506       66.424        9.790       40.207       17.008       20.195     1616.597      289.279      407.826        0.769        0.116      113.884       12.894        0.013      336.383        7.649      860.090
11/20/2014  11:59:00       85.885       49.889       13.960       38.196       24.721       23.744     1458.970      611.108      563.766        0.635        0.132       99.323       12.896        0.017      336.502        7.847      860.054
11/20/2014  12:00:00      100.807       79.761       11.833       39.014       27.672       31.353     1522.084      765.751      983.041        0.997        0.164      128.545       16.055        0.016      336.369        7.624      860.032
11/20/2014  12:01:00      102.459       71.215        4.946       29.303       27.468       26.446      858.643      754.502      699.370        0.895        0.116      124.778       12.110        0.009      336.354        7.599      860.025
11/20/2014  12:02:00       34.498       23.378       -2.854       24.494       24.106       11.312      599.972      581.111      127.955        0.153        0.065       41.673       12.141        0.085      336.331        7.562      860.025
11/20/2014  12:03:00       35.868       26.992        7.959       15.262       13.788       11.620      232.939      190.097      135.023        0.132        0.028       44.890        6.795        0.023      336.364        7.617      860.007
11/20/2014  12:04:00       66.126       27.737        6.624       18.571       22.129       19.075      344.896      489.712      363.837        0.319        0.060       71.708       16.245        0.051      336.343        7.583      859.964
11/20/2014  12:05:00       81.460       61.144       35.029       65.423       29.958       37.844     4280.183      897.469     1432.143        0.910        0.330      101.854       31.484        0.096      336.409        7.692      859.917
11/20/2014  12:06:00       90.316       68.283       26.228       43.446       26.606       35.322     1887.585      707.860     1247.662        0.867        0.192      113.223       28.059        0.061      336.441        7.745      859.908
11/20/2014  12:07:00       23.156       87.101       87.701       40.423       44.341       35.273     1634.041     1966.148     1244.195        1.033        0.242       90.126       28.571        0.100      336.530        7.894      859.923
11/20/2014  12:08:00       61.503       38.442       41.579       46.354       49.756       39.742     2148.721     2475.654     1579.449        0.660        0.310       72.528       38.038        0.275      336.476        7.803      859.948
11/20/2014  12:09:00       19.233       58.847       71.613       33.738       40.415       41.689     1138.281     1633.365     1737.949        0.673        0.225       61.911       38.551        0.388      336.534        7.901      859.953
11/20/2014  12:10:00       62.848       98.497       89.350       50.108       41.438       32.010     2510.830     1717.093     1024.654        1.344        0.263      116.839       26.642        0.052      336.540        7.912      859.926
11/20/2014  12:11:00       59.820      -33.080       18.652       48.772       90.965       43.342     2378.727     8274.695     1878.553        0.877        0.627       68.357       57.621        0.711      336.503        7.849      859.912
11/20/2014  12:12:00       51.532      -79.475        7.671       42.356       71.803       36.415     1794.019     5155.680     1326.019        0.865        0.414       94.720       32.437        0.117      336.678        8.142      859.883
11/20/2014  12:13:00       23.341      -51.901       25.497       38.175       39.994       30.037     1457.344     1599.516      902.246        0.392        0.198       56.908       25.886        0.207      336.688        8.159      859.853
11/20/2014  12:14:00       37.731      -36.913       14.498       29.431       39.477       25.671      866.198     1558.416      659.022        0.304        0.154       52.784       16.110        0.093      336.684        8.154      859.820
11/20/2014  12:15:00       46.244       23.850       18.035       43.729       33.316       21.761     1912.192     1109.957      473.543        0.326        0.175       52.032       16.286        0.098      336.594        8.000      859.784
11/20/2014  12:16:00       80.270       37.606       22.695       31.795       21.774       25.114     1010.938      474.118      630.715        0.524        0.106       88.642       12.273        0.019      336.487        7.821      859.758
11/20/2014  12:17:00       40.535       22.509        3.789       26.378       14.633       14.180      695.784      214.129      201.069        0.164        0.056       46.365        7.342        0.025      336.435        7.734      859.754
11/20/2014  12:18:00       42.551       28.799        5.491       11.584       10.719       20.172      134.195      114.889      406.907        0.166        0.033       51.381        7.053        0.019      336.411        7.695      859.757
11/20/2014  12:19:00       19.937       26.924       33.957       16.962       15.668       20.849      287.702      245.476      434.698        0.162        0.048       33.501       13.826        0.170      336.576        7.970      859.751
11/20/2014  12:20:00       -1.846       46.424       67.092       23.984       27.996       24.029      575.235      783.788      577.408        0.430        0.097       46.461       15.110        0.106      336.706        8.188      859.738
11/20/2014  12:21:00        9.173       29.603       52.157       27.396       42.500       34.415      750.541     1806.281     1184.379        0.371        0.187       30.992       28.240        0.830      336.681        8.147      859.734
11/20/2014  12:22:00       26.353      -39.886        0.283       26.636       47.590       22.649      709.493     2264.831      512.964        0.289        0.174       47.805       25.010        0.274      336.727        8.223      859.734
11/20/2014  12:23:00       21.740      -65.996       -6.186       27.326       32.935       21.959      746.702     1084.698      482.186        0.359        0.116       69.484       19.775        0.081      336.768        8.293      859.727
11/20/2014  12:24:00      -27.153        2.297        5.316       14.698       17.926       14.603      216.034      321.355      213.246        0.076        0.038       27.250       13.548        0.247      336.826        8.390      859.730
11/20/2014  12:25:00        0.722       47.904       -0.958       18.186       24.156       14.549      330.719      583.493      211.663        0.171        0.056       47.909       15.793        0.109      336.656        8.105      859.716
11/20/2014  12:26:00      -11.244       14.326       10.439       23.114       13.949       11.754      534.265      194.586      138.166        0.065        0.043       18.212        8.689        0.228      336.808        8.359      859.686
11/20/2014  12:27:00      -21.115       22.046       -0.155       18.388       32.852       15.102      338.108     1079.228      228.067        0.129        0.082       30.527        4.949        0.026      336.802        8.348      859.638
11/20/2014  12:28:00       -1.502       67.950      -18.332       11.615       11.434       10.546      134.899      130.726      111.213        0.267        0.019       67.967        6.194        0.008      336.531        7.899      859.589
11/20/2014  12:29:00       18.464       62.497      -11.768       13.912       22.318       16.153      193.536      498.087      260.935        0.267        0.048       65.167        7.028        0.012      336.580        7.978      859.553
11/20/2014  12:30:00       39.083       45.238        5.026       29.125       30.212       19.747      848.261      912.753      389.953        0.287        0.108       59.783       12.363        0.043      336.704        8.186      859.535
11/20/2014  12:31:00       45.521       52.104       51.260       42.775       38.278       32.409     1829.714     1465.221     1050.352        0.588        0.217       69.188       28.888        0.174      336.898        8.508      859.510
11/20/2014  12:32:00       23.822       63.825       70.658       36.780       43.926       44.096     1352.779     1929.464     1944.435        0.743        0.261       68.126       30.265        0.197      336.857        8.441      859.486
11/20/2014  12:33:00       29.042       61.826       50.235       37.550       27.911       24.225     1410.014      779.041      586.860        0.498        0.139       68.308       19.381        0.081      336.860        8.446      859.452
11/20/2014  12:34:00       35.071       58.633       75.377       49.859       44.521       36.819     2485.914     1982.091     1355.627        0.809        0.291       68.322       35.302        0.267      336.853        8.433      859.429
11/20/2014  12:35:00       49.263       82.422       22.839       44.107       37.523       43.815     1945.387     1407.955     1919.784        0.751        0.264       96.022       31.837        0.110      336.839        8.410      859.413
11/20/2014  12:36:00       26.095       35.611       -5.237       16.579       16.406       13.985      274.847      269.141      195.588        0.136        0.037       44.148        8.903        0.041      336.814        8.369      859.420
11/20/2014  12:37:00       45.658       10.872        7.488       44.703       31.367       20.163     1998.324      983.917      406.557        0.282        0.169       46.935       10.592        0.051      337.057        8.774      859.442
11/20/2014  12:38:00       57.676       41.078      -14.227       42.032       22.431       15.309     1766.650      503.148      234.364        0.386        0.125       70.809       12.755        0.032      336.867        8.457      859.466
11/20/2014  12:39:00        2.511       61.817       -9.500       16.750       33.233       23.655      280.551     1104.408      559.564        0.293        0.097       61.868       12.333        0.040      337.011        8.697      859.492
11/20/2014  12:40:00      -46.584       62.502        2.892       47.216       33.977       34.344     2229.377     1154.422     1179.540        0.532        0.228       77.952       32.679        0.176      336.930        8.562      859.522
11/20/2014  12:41:00      -35.074       19.493      -20.420       29.385       10.906       12.277      863.461      118.935      150.727        0.158        0.057       40.126       14.979        0.139      336.775        8.305      859.537
11/20/2014  12:42:00       -6.186       20.215      -15.677       33.029       21.974       18.991     1090.911      482.864      360.667        0.131        0.097       21.140       11.479        0.295      337.041        8.745      859.536
11/20/2014  12:43:00       30.635       29.857       24.202       21.075       24.503       26.386      444.141      600.406      696.245        0.208        0.087       42.778       10.500        0.060      337.213        9.034      859.522
11/20/2014  12:44:00       -1.640       41.664       87.947       35.758       64.422       42.759     1278.620     4150.183     1828.314        0.836        0.363       41.696       41.958        1.013      337.376        9.308      859.476
11/20/2014  12:45:00       25.031      -58.562       -3.536       24.263       48.019       40.222      588.698     2305.861     1617.783        0.429        0.226       63.687       30.800        0.234      337.007        8.691      859.441
11/20/2014  12:46:00       32.018        7.052       28.588       29.693       37.651       32.759      881.687     1417.566     1073.170        0.263        0.169       32.785       29.177        0.792      337.230        9.062      859.396
11/20/2014  12:47:00       49.205      -25.546       22.193       40.952       84.813       37.931     1677.070     7193.272     1438.778        0.694        0.515       55.441       39.891        0.518      337.132        8.900      859.364
11/20/2014  12:48:00       29.585      -39.837       -3.251       40.104       54.732       30.075     1608.309     2995.568      904.523        0.399        0.275       49.621       20.494        0.171      337.231        9.065      859.357
11/20/2014  12:49:00       39.848      -29.655        7.332       24.427       26.663       18.355      596.672      710.928      336.889        0.208        0.082       49.672       15.541        0.098      337.346        9.259      859.363
11/20/2014  12:50:00       16.238       10.055       35.699       29.957       41.795       23.391      897.418     1746.852      547.123        0.241        0.160       19.099       28.484        2.224      337.509        9.530      859.380
11/20/2014  12:51:00       28.080      -80.234       -0.810       44.623       32.440       22.521     1991.171     1052.382      507.217        0.539        0.178       85.006       17.181        0.041      337.319        9.211      859.394
11/20/2014  12:52:00       39.746       19.497       16.761       38.314       35.707       27.416     1467.983     1275.004      751.646        0.287        0.175       44.271       10.105        0.052      337.130        8.896      859.387
11/20/2014  12:53:00       30.963       -9.806        5.711       20.316       22.867       14.905      412.751      522.918      222.150        0.112        0.058       32.478        7.799        0.058      337.167        8.958      859.374
11/20/2014  12:54:00       33.346       14.426       17.941       24.580       20.499       21.045      604.198      420.207      442.899        0.155        0.073       36.333       11.345        0.097      337.331        9.234      859.332
11/20/2014  12:55:00       11.105      102.955       -7.861       22.512       40.018       26.260      506.778     1601.435      689.568        0.679        0.140      103.552       26.785        0.067      337.027        8.722      859.304
11/20/2014  12:56:00       -4.300      106.431      -15.136       33.978       23.755       18.974     1154.531      564.313      360.006        0.683        0.104      106.518       17.584        0.027      336.988        8.658      859.255
11/20/2014  12:57:00      -14.189       69.557      -21.116       17.158       29.157       13.269      294.396      850.130      176.078        0.340        0.066       70.990        6.680        0.009      336.964        8.618      859.214
11/20/2014  12:58:00       16.466       19.293       15.792       14.831       15.331       13.637      219.958      235.048      185.964        0.077        0.032       25.364        8.327        0.108      337.277        9.141      859.182
11/20/2014  12:59:00       40.794       31.983        4.890       23.409       18.826       20.546      547.976      354.426      422.119        0.202        0.066       51.836        9.819        0.036      337.195        9.005      859.169
11/20/2014  13:00:00      -16.198      -13.835       11.517       34.185       31.800       16.959     1168.599     1011.230      287.596        0.153        0.123       21.302       11.541        0.294      337.493        9.505      859.179
11/20/2014  13:01:00      -33.826      -40.257       -3.005       32.115       27.053       22.772     1031.356      731.846      518.580        0.253        0.114       52.581       17.958        0.117      337.389        9.330      859.202
11/20/2014  13:02:00       -4.108       14.223        2.364       26.013       23.784       22.872      676.663      565.667      523.115        0.099        0.088       14.804        9.116        0.379      337.361        9.283      859.233
11/20/2014  13:03:00       24.390       30.253      -17.007       16.506       18.856       11.481      272.459      355.530      131.810        0.128        0.038       38.860        9.388        0.058      337.212        9.036      859.247
11/20/2014  13:04:00      -61.679      -48.944        3.700       49.146       31.546       22.008     2415.320      995.179      484.341        0.505        0.195       78.739       16.264        0.043      337.539        9.580      859.267
11/20/2014  13:05:00      -24.620      -46.957       -3.455       40.364       37.240       20.557     1629.230     1386.809      422.584        0.313        0.172       53.020       15.296        0.083      337.606        9.694      859.271
11/20/2014  13:06:00     -103.041      -64.224       -0.726       70.997       38.325       25.459     5040.630     1468.836      648.171        1.095        0.358      121.417       18.811        0.024      337.356        9.275      859.285
11/20/2014  13:07:00      -57.835      -91.234        0.709       45.864       50.268       28.451     2103.545     2526.909      809.478        0.855        0.272      108.020       34.643        0.103      337.425        9.389      859.294
11/20/2014  13:08:00      -84.229      -69.187      -11.833       17.061       32.720       15.093      291.083     1070.571      227.806        0.681        0.079      109.001       10.911        0.010      337.175        8.970      859.280
11/20/2014  13:09:00      -88.329      -55.409       -4.338       51.376       33.998       21.700     2639.505     1155.864      470.875        0.758        0.213      104.270       10.265        0.010      337.284        9.155      859.262
11/20/2014  13:10:00      -11.157       17.896       21.236       20.923       27.856       13.661      437.786      775.935      186.621        0.115        0.070       21.089       12.674        0.361      337.675        9.810      859.205
11/20/2014  13:11:00       28.583        1.972       45.279       55.208       70.562       62.011     3047.952     4978.980     3845.328        0.737        0.594       28.651       57.570        4.037      337.580        9.650      859.150
11/20/2014  13:12:00       33.901       58.217       71.192       43.086       45.932       40.171     1856.374     2109.707     1613.684        0.759        0.279       67.368       35.270        0.274      337.432        9.401      859.111
11/20/2014  13:13:00       16.126        5.846       30.627       23.094       29.638       24.432      533.341      878.402      596.929        0.162        0.100       17.153       21.606        1.587      337.721        9.886      859.092
11/20/2014  13:14:00       -7.933        9.508        2.485       26.282       22.512       20.399      690.765      506.800      416.129        0.089        0.081       12.383       16.682        1.815      337.747        9.930      859.096
11/20/2014  13:15:00       -6.261       42.200        4.680       24.872       35.389       22.889      618.624     1252.379      523.901        0.212        0.120       42.662       24.153        0.321      337.806       10.029      859.106
11/20/2014  13:16:00      -17.673       31.385       13.686       21.716       47.920       24.815      471.570     2296.305      615.776        0.243        0.169       36.019       24.999        0.482      337.837       10.080      859.117
11/20/2014  13:17:00      -61.312       -6.881       -5.081       31.420       28.305       18.927      987.226      801.177      358.241        0.299        0.107       61.697       13.442        0.047      337.769        9.965      859.102
11/20/2014  13:18:00       -7.600       35.543       -6.828       13.569       19.121       11.367      184.111      365.603      129.214        0.102        0.034       36.346        8.141        0.050      337.786        9.995      859.080
11/20/2014  13:19:00       63.871       59.365       -4.959       51.761       41.407       24.747     2679.166     1714.543      612.437        0.632        0.250       87.199       15.650        0.032      337.591        9.668      859.017
11/20/2014  13:20:00       63.263       57.239       10.132       42.663       40.279       33.175     1820.153     1622.433     1100.603        0.596        0.227       85.314       20.323        0.057      337.701        9.852      858.962
11/20/2014  13:21:00      114.622       82.809       17.035       32.379       23.674       25.417     1048.382      560.482      646.000        1.127        0.113      141.406       13.122        0.009      337.481        9.484      858.919
11/20/2014  13:22:00       15.870       83.249       -4.743       58.729       41.308       24.817     3449.132     1706.310      615.880        0.649        0.289       84.748       22.507        0.071      337.539        9.580      858.881
11/20/2014  13:23:00      -23.313      104.385      -20.653       17.429       14.605       11.846      303.770      213.302      140.317        0.626        0.033      106.957        6.587        0.004      337.452        9.436      858.847
11/20/2014  13:24:00      -16.955       70.920      -20.744       25.310       25.628       12.403      640.574      656.793      153.838        0.360        0.073       72.918        7.065        0.009      337.561        9.618      858.828
11/20/2014  13:25:00        4.691       89.360      -13.651       25.551       34.739       22.221      652.863     1206.800      493.762        0.527        0.118       89.483       22.090        0.061      337.693        9.839      858.834
11/20/2014  13:26:00       57.814      100.700       -7.088       49.689       43.788       27.132     2468.980     1917.346      736.165        0.933        0.256      116.116       27.655        0.057      337.604        9.690      858.823
11/20/2014  13:27:00       33.835       55.996       70.964       61.742       58.234       57.248     3812.125     3391.201     3277.364        0.990        0.524       65.424       57.331        0.768      337.792       10.004      858.820
11/20/2014  13:28:00      105.726      111.151       75.381       67.177       56.331       55.863     4512.746     3173.160     3120.708        2.001        0.540      153.403       55.943        0.133      337.713        9.872      858.821
11/20/2014  13:29:00       13.661       10.246       39.060       35.887       40.560       22.301     1287.889     1645.154      497.335        0.262        0.172       17.076        9.962        0.340      337.951       10.271      858.860
11/20/2014  13:30:00        1.813       -3.125       22.614       31.288       23.464       21.975      978.937      550.548      482.898        0.127        0.101        3.613       13.049       13.047      338.001       10.355      858.900
11/20/2014  13:31:00       27.066       24.431        3.290       19.942       43.598       21.834      397.692     1900.818      476.714        0.206        0.139       36.461       22.199        0.371      337.863       10.126      858.907
11/20/2014  13:32:00       86.191       53.877       18.375       39.467       23.135       31.483     1557.628      535.246      991.184        0.688        0.154      101.645       21.765        0.046      337.704        9.859      858.918
11/20/2014  13:33:00       49.414       27.314       27.597       51.422       29.007       29.317     2644.264      841.381      859.475        0.415        0.217       56.461       33.228        0.346      337.745        9.927      858.915
11/20/2014  13:34:00       31.037       59.334       71.324       39.056       38.029       30.669     1525.392     1446.238      940.591        0.674        0.196       66.962       29.142        0.189      337.803       10.023      858.893
11/20/2014  13:35:00       54.946       56.580       47.306       32.713       31.264       30.995     1070.149      977.417      960.708        0.573        0.150       78.869       20.950        0.071      337.825       10.058      858.881
11/20/2014  13:36:00       13.073        5.064       30.884       33.849       29.852       24.676     1145.736      891.152      608.883        0.190        0.132       14.020       26.616        3.604      338.164       10.629      858.865
11/20/2014  13:37:00       81.250        5.175       30.158       41.178       32.791       28.431     1695.662     1075.262      808.306        0.556        0.179       81.414       27.475        0.114      337.929       10.235      858.868
11/20/2014  13:38:00       55.814       42.316       40.158       45.571       32.242       33.860     2076.726     1039.542     1146.522        0.539        0.213       70.042       33.165        0.224      338.141       10.592      858.852
11/20/2014  13:39:00      109.465       95.786       84.295      119.704       69.399       61.758    14329.077     4816.264     3814.108        2.561        1.148      145.457       62.797        0.186      338.177       10.651      858.787
11/20/2014  13:40:00       53.694      106.258      104.642      101.638       62.321       58.092    10330.287     3883.938     3374.710        2.135        0.879      119.054       59.373        0.249      338.166       10.631      858.718
11/20/2014  13:41:00      199.277      104.162       29.909       68.915       55.132       52.903     4749.253     3039.577     2798.702        3.102        0.529      224.858       44.880        0.040      337.930       10.233      858.653
11/20/2014  13:42:00      116.713       69.956       -1.163       83.305       47.555       48.837     6939.667     2261.495     2385.004        1.505        0.579      136.073       29.592        0.047      338.009       10.369      858.605
11/20/2014  13:43:00      117.284       46.267       15.470       89.727       55.296       47.442     8050.970     3057.668     2250.744        1.474        0.668      126.080       25.878        0.042      338.216       10.716      858.600
11/20/2014  13:44:00      224.409      114.756        3.839       56.321       53.513       46.577     3172.078     2863.642     2169.400        3.587        0.410      252.049       23.577        0.009      337.773        9.968      858.600
11/20/2014  13:45:00      151.859       91.795        5.888       59.268       38.688       42.614     3512.752     1496.746     1815.933        1.917        0.341      177.447       32.106        0.033      337.784        9.991      858.596
11/20/2014  13:46:00      126.913      117.940       -5.225       60.005       38.074       26.187     3600.629     1449.594      685.737        1.789        0.287      173.253       16.909        0.010      337.883       10.158      858.587
11/20/2014  13:47:00      122.266       94.237       23.744       33.522       30.512       37.056     1123.709      930.957     1373.168        1.391        0.171      154.368       11.199        0.005      337.894       10.176      858.556
11/20/2014  13:48:00      165.814       66.532       33.262       95.209       67.192       64.773     9064.707     4514.765     4195.555        2.540        0.889      178.664       52.239        0.085      338.018       10.383      858.537
11/20/2014  13:49:00       96.753       66.243       42.034       72.066       56.813       49.476     5193.554     3227.698     2447.907        1.319        0.543      117.258       41.154        0.123      337.961       10.289      858.554
11/20/2014  13:50:00       81.909       63.441      -11.735       87.619       39.453       24.284     7677.030     1556.553      589.712        1.035        0.491      103.604       10.932        0.011      337.981       10.322      858.571
11/20/2014  13:51:00      108.150       67.578       95.646       72.104       75.193       62.416     5198.923     5654.047     3895.714        2.008        0.737      127.527       55.524        0.190      338.157       10.616      858.571
11/20/2014  13:52:00      111.948      110.701      111.216       68.117       74.347       52.212     4639.873     5527.495     2726.058        2.502        0.645      157.439       45.102        0.082      337.958       10.282      858.563
11/20/2014  13:53:00       19.775       -0.255       42.474       31.172       44.296       24.654      971.724     1962.130      607.838        0.287        0.177       19.777       24.777        1.570      338.190       10.673      858.570
11/20/2014  13:54:00       39.831       29.540       49.603       44.437       58.017       47.982     1974.660     3365.987     2302.291        0.628        0.382       49.589       44.284        0.797      338.256       10.783      858.573
11/20/2014  13:55:00       67.863       74.727       65.106       65.153       47.374       48.992     4244.931     2244.304     2400.190        1.166        0.444      100.943       49.751        0.243      338.103       10.528      858.575
11/20/2014  13:56:00      135.459       35.626       12.973       78.000       54.288       40.678     6084.063     2947.169     1654.677        1.523        0.534      140.066       27.419        0.038      338.092       10.507      858.584
11/20/2014  13:57:00       70.301       76.624       57.983       48.587       46.437       35.765     2360.660     2156.368     1279.131        0.998        0.290      103.988       30.814        0.088      338.077       10.483      858.587
11/20/2014  13:58:00       64.419       42.709       60.727       50.147       50.954       40.262     2514.711     2596.357     1621.008        0.820        0.337       77.291       32.425        0.176      338.107       10.533      858.581
11/20/2014  13:59:00       67.697       44.889       62.779       53.587       38.223       31.123     2871.542     1460.966      968.633        0.792        0.265       81.227       33.128        0.166      338.139       10.587      858.571
11/20/2014  14:00:00      122.092       75.705       41.581       45.870       38.756       44.359     2104.030     1502.017     1967.756        1.397        0.279      143.658       36.531        0.065      338.018       10.384      858.553
11/20/2014  14:01:00      131.720       25.313       23.918       51.121       53.354       33.140     2613.384     2846.700     1098.291        1.256        0.328      134.130       25.302        0.036      338.121       10.557      858.526
11/20/2014  14:02:00       71.265       63.247       53.294       49.348       51.319       47.195     2435.202     2633.611     2227.387        0.961        0.365       95.283       41.516        0.190      338.133       10.579      858.497
11/20/2014  14:03:00       86.122       90.943       66.079       38.728       30.194       32.456     1499.864      911.699     1053.390        1.176        0.173      125.250       23.113        0.034      338.116       10.550      858.476
11/20/2014  14:04:00       32.538       64.584       52.477       28.962       22.472       30.012      838.806      504.997      900.725        0.511        0.112       72.317       21.221        0.086      338.160       10.623      858.449
11/20/2014  14:05:00       22.711       47.819       74.163       37.810       44.977       37.266     1429.565     2022.974     1388.776        0.657        0.242       52.938       32.580        0.379      338.249       10.771      858.417
11/20/2014  14:06:00      100.550       42.745       54.835       41.335       40.654       37.501     1708.555     1652.739     1406.290        0.985        0.238      109.258       33.093        0.092      338.088       10.503      858.401
11/20/2014  14:07:00       65.949       80.654       99.352       53.700       43.306       27.638     2883.694     1875.413      763.855        1.312        0.276      104.184       22.971        0.049      338.118       10.553      858.395
11/20/2014  14:08:00      106.992       95.500       61.313       46.844       43.958       41.831     2194.322     1932.297     1749.794        1.510        0.294      143.414       26.746        0.035      338.099       10.520      858.380
11/20/2014  14:09:00       74.420       38.731       35.482       37.847       57.945       32.915     1432.360     3357.638     1083.384        0.708        0.294       83.896       30.717        0.134      338.088       10.503      858.352
11/20/2014  14:10:00       20.190       32.251       49.388       39.281       31.952       24.351     1542.988     1020.951      592.987        0.352        0.158       38.050       21.793        0.328      338.207       10.702      858.316
11/20/2014  14:11:00       68.457       23.947       39.482       41.141       24.976       33.327     1692.621      623.800     1110.666        0.512        0.171       72.525       27.633        0.145      338.153       10.612      858.289
11/20/2014  14:12:00       87.976       34.297       33.158       65.504       58.178       40.245     4290.816     3384.656     1619.621        0.965        0.465       94.425       30.066        0.101      338.210       10.706      858.261
11/20/2014  14:13:00       60.466      108.425      109.226       52.425       49.092       40.522     2748.340     2409.986     1642.053        1.707        0.340      124.145       32.286        0.068      338.243       10.761      858.255
11/20/2014  14:14:00       57.316      -21.959       40.832       56.352       87.546       47.041     3175.528     7664.342     2212.845        0.924        0.653       61.379       56.874        0.859      338.250       10.773      858.252
11/20/2014  14:15:00      101.408      -87.358       25.803       79.255       66.206       44.389     6281.398     4383.234     1970.349        1.561        0.632      133.847       42.743        0.102      338.310       10.873      858.242
11/20/2014  14:16:00       22.473       23.072       25.450       27.847       30.645       24.442      775.437      939.108      597.402        0.200        0.116       32.208       18.259        0.321      338.421       11.062      858.249
11/20/2014  14:17:00      105.465       72.446       20.730       39.252       34.163       43.070     1540.715     1167.134     1855.005        1.068        0.228      127.951       20.024        0.024      338.242       10.760      858.255
11/20/2014  14:18:00       72.755       55.496       24.573       38.559       24.084       30.922     1486.773      580.035      956.159        0.600        0.151       91.505       21.520        0.055      338.257       10.784      858.257
11/20/2014  14:19:00       44.996       38.124       37.779       35.592       24.023       26.823     1266.756      577.114      719.476        0.373        0.128       58.975       22.903        0.151      338.240       10.756      858.273
11/20/2014  14:20:00       30.139       19.002       33.279       32.649       27.530       23.904     1065.929      757.923      571.387        0.239        0.120       35.629       18.731        0.276      338.283       10.829      858.283
11/20/2014  14:21:00       42.188       40.868        2.856       35.808       28.672       20.687     1282.182      822.055      427.943        0.299        0.127       58.737       15.068        0.066      338.284       10.831      858.293
11/20/2014  14:22:00       28.960       23.963        2.468       29.175       23.585       12.707      851.191      556.252      161.475        0.149        0.078       37.589       14.520        0.149      338.278       10.821      858.296
11/20/2014  14:23:00        1.934       12.951       -5.333       11.789       13.288        9.467      138.982      176.569       89.615        0.030        0.020       13.094        9.733        0.552      338.207       10.700      858.294
11/20/2014  14:24:00       -5.269       34.127       -9.659       12.637        9.440        7.598      159.699       89.111       57.732        0.080        0.015       34.532        3.452        0.010      338.152       10.610      858.289
11/20/2014  14:25:00       29.029       25.460        3.515       27.820       14.806       16.967      773.957      219.225      287.873        0.139        0.064       38.612       11.797        0.093      338.231       10.741      858.269
11/20/2014  14:26:00       24.851       29.228        0.554       38.831       23.757       17.227     1507.827      564.406      296.778        0.192        0.118       38.365       14.940        0.152      338.268       10.805      858.243
11/20/2014  14:27:00       76.903       18.187       12.335       40.970       31.978       28.477     1678.573     1022.624      810.938        0.495        0.176       79.025       23.554        0.089      338.284       10.831      858.228
11/20/2014  14:28:00       77.780       63.382       43.098       42.739       33.122       39.077     1826.580     1097.085     1526.981        0.819        0.223      100.335       33.528        0.112      338.307       10.870      858.218
11/20/2014  14:29:00       90.759       95.339       72.114       44.619       32.356       32.591     1990.863     1046.880     1062.182        1.331        0.205      131.632       22.713        0.030      338.326       10.902      858.203
11/20/2014  14:30:00       94.211       78.114       37.123       39.935       16.674       33.701     1594.813      278.026     1135.779        0.968        0.150      122.383       25.853        0.045      338.228       10.738      858.193
11/20/2014  14:31:00       72.618       46.522       16.293       23.321       27.628       26.721      543.884      763.323      713.991        0.486        0.101       86.242       16.458        0.036      338.238       10.752      858.172
11/20/2014  14:32:00       73.549       41.809       41.858       49.352       28.960       29.033     2435.640      838.660      842.901        0.651        0.206       84.602       21.569        0.065      338.298       10.855      858.142
11/20/2014  14:33:00       51.801       33.668       10.563       36.565       29.871       27.665     1337.011      892.259      765.352        0.346        0.150       61.781        7.234        0.014      338.315       10.884      858.119
11/20/2014  14:34:00      107.796       61.947        9.534       46.388       38.712       29.277     2151.852     1498.637      857.117        1.003        0.225      124.327       11.689        0.009      338.297       10.852      858.106
11/20/2014  14:35:00       51.700       39.288       15.612       39.253       36.129       23.312     1540.786     1305.304      543.439        0.392        0.169       64.934       16.832        0.067      338.361       10.959      858.105
11/20/2014  14:36:00       64.521       36.666        5.159       33.823       38.127       21.513     1143.983     1453.692      462.788        0.430        0.153       74.211       13.394        0.033      338.365       10.965      858.115
11/20/2014  14:37:00       42.671        7.098       11.662       27.366       38.175       21.605      748.917     1457.351      466.764        0.234        0.134       43.257       15.880        0.135      338.419       11.058      858.116
11/20/2014  14:38:00       25.937       41.972       10.984       27.209       21.204       18.847      740.345      449.596      355.224        0.205        0.077       49.340       13.519        0.075      338.409       11.042      858.117
11/20/2014  14:39:00       -4.710        9.581       -2.689       11.087       12.495        7.706      122.931      156.121       59.386        0.023        0.017       10.676        6.678        0.391      338.445       11.103      858.105
11/20/2014  14:40:00       12.449       27.730       23.658       15.733       12.432       16.100      247.521      154.546      259.212        0.107        0.033       30.396        7.016        0.053      338.476       11.153      858.090
11/20/2014  14:41:00       28.034       22.170       34.232       21.407       19.180       15.710      458.272      367.885      246.798        0.176        0.054       35.741        8.931        0.062      338.479       11.157      858.088
11/20/2014  14:42:00       11.466       -4.890        1.806       20.820       12.610       18.645      433.474      159.004      347.621        0.055        0.047       12.465       10.057        0.651      338.404       11.031      858.081
11/20/2014  14:43:00      -17.651       56.384        1.967       24.847       51.103       20.437      617.363     2611.516      417.666        0.357        0.182       59.083       27.630        0.219      338.547       11.272      858.079
11/20/2014  14:44:00      -18.695       68.983      -18.015       14.778       31.583       11.293      218.398      997.460      127.539        0.339        0.067       71.472        8.791        0.015      338.383       10.998      858.083
11/20/2014  14:45:00       -7.423       49.202      -14.455       11.039       27.628        8.066      121.867      763.295       65.053        0.182        0.048       49.759       10.496        0.044      338.379       10.990      858.083
11/20/2014  14:46:00        5.331       66.076      -10.054        9.451       18.318        8.931       89.320      335.553       79.760        0.250        0.025       66.290        4.981        0.006      338.350       10.941      858.078
11/20/2014  14:47:00       10.543       54.004       -8.018       13.058       30.980       10.728      170.507      959.778      115.089        0.217        0.062       55.023       14.427        0.069      338.351       10.942      858.076
11/20/2014  14:48:00       14.892       24.954       22.689       22.075       18.713       31.518      487.295      350.181      993.388        0.159        0.092       29.060       19.266        0.440      338.479       11.158      858.069
11/20/2014  14:49:00       29.067       42.873       59.979       37.658       28.285       26.064     1418.116      800.048      679.307        0.459        0.145       51.798       23.403        0.204      338.464       11.134      858.077
11/20/2014  14:50:00       29.681       75.691       77.667       39.163       28.519       22.371     1533.709      813.313      500.472        0.774        0.142       81.302       18.998        0.055      338.400       11.027      858.076
11/20/2014  14:51:00       95.004       63.383       37.490       39.708       37.638       32.297     1576.710     1416.651     1043.094        0.924        0.202      114.207       21.064        0.034      338.426       11.069      858.071
11/20/2014  14:52:00       92.867       34.762       43.752       57.015       49.706       36.962     3250.754     2470.735     1366.172        0.942        0.354       99.160       28.105        0.080      338.422       11.061      858.055
11/20/2014  14:53:00       72.874       64.516       82.976       50.704       49.799       34.665     2570.930     2479.938     1201.654        1.130        0.313       97.329       31.221        0.103      338.442       11.097      858.049
11/20/2014  14:54:00      117.709       98.260      103.046       81.051       66.246       63.516     6569.312     4388.481     4034.264        2.456        0.750      153.331       39.155        0.065      338.372       10.978      858.037
11/20/2014  14:55:00      131.081       78.603       71.716       93.292       72.477       68.130     8703.467     5252.846     4641.644        2.355        0.930      152.842       58.729        0.148      338.265       10.798      858.044
11/20/2014  14:56:00       76.550      130.237      111.018       71.609       54.581       56.009     5127.781     2979.121     3136.987        2.319        0.562      151.068       34.527        0.052      338.358       10.954      858.046
11/20/2014  14:57:00      104.359      111.469      105.797       81.503       88.918       70.701     6642.767     7906.392     4998.659        2.702        0.977      152.696       62.585        0.168      338.277       10.818      858.046
11/20/2014  14:58:00      140.627      105.366       70.219       71.150       49.940       63.401     5062.310     2494.010     4019.673        2.369        0.579      175.721       47.265        0.072      338.224       10.727      858.049
11/20/2014  14:59:00      101.568       67.474       51.732       63.216       57.108       42.508     3996.261     3261.315     1806.969        1.330        0.453      121.938       40.528        0.110      338.338       10.922      858.052
11/20/2014  15:00:00       56.286       93.344       89.602       71.563       55.846       64.026     5121.221     3118.773     4099.337        1.612        0.617      109.001       52.087        0.228      338.349       10.939      858.062
11/20/2014  15:01:00      122.353       44.695       40.849       84.702       57.901       64.743     7174.468     3352.508     4191.687        1.667        0.736      130.261       53.121        0.166      338.286       10.834      858.079
11/20/2014  15:02:00       72.775       24.782       43.686       65.383       55.862       44.882     4274.904     3120.545     2014.421        0.861        0.470       76.879       41.763        0.295      338.286       10.834      858.089
11/20/2014  15:03:00       29.191       -0.980       51.905       50.093       77.695       41.655     2509.309     6036.553     1735.155        0.691        0.514       29.208       53.927        3.409      338.365       10.968      858.083
11/20/2014  15:04:00       39.260     -112.860      -15.424       37.418       47.333       22.693     1400.108     2240.399      514.981        0.934        0.208      119.494       13.394        0.013      338.454       11.116      858.080
11/20/2014  15:05:00       35.320     -125.777      -12.175       53.659       40.709       29.421     2879.318     1657.223      865.612        1.131        0.270      130.642       10.102        0.006      338.487       11.172      858.086
11/20/2014  15:06:00       65.256      -62.724       -4.511       36.458       39.701       23.813     1329.184     1576.183      567.063        0.584        0.174       90.513       16.890        0.035      338.441       11.094      858.104
11/20/2014  15:07:00       66.673     -115.826      -11.386       31.933       40.977       17.483     1019.745     1679.105      305.667        1.050        0.150      133.645       17.554        0.017      338.461       11.129      858.114
11/20/2014  15:08:00       12.914       16.200       33.300       28.392       42.192       29.426      806.126     1780.181      865.867        0.249        0.173       20.717       30.537        2.173      338.483       11.166      858.121
11/20/2014  15:09:00       35.712       43.034       44.143       43.720       28.993       14.884     1911.466      840.579      221.527        0.402        0.149       55.922       12.089        0.047      338.465       11.136      858.128
11/20/2014  15:10:00       97.949       47.000       26.366       64.323       53.514       34.635     4137.478     2863.760     1199.608        1.035        0.410      108.641       24.343        0.050      338.368       10.970      858.123
11/20/2014  15:11:00      132.993       99.066       20.299       62.915       50.108       51.199     3958.253     2510.835     2621.380        1.850        0.455      165.835       38.732        0.055      338.283       10.828      858.109
11/20/2014  15:12:00      146.820       96.942       18.061       39.390       28.327       33.541     1551.576      802.428     1124.995        1.738        0.174      175.937       13.670        0.006      338.266       10.800      858.109
11/20/2014  15:13:00       72.393       48.790       37.083       56.072       39.024       33.466     3144.039     1522.892     1119.947        0.739        0.289       87.300       27.100        0.096      338.336       10.918      858.111
11/20/2014  15:14:00       81.709      -38.623       32.081       84.885       90.366       44.016     7205.441     8165.982     1937.370        1.325        0.865       90.377       62.092        0.472      338.434       11.082      858.113
11/20/2014  15:15:00       60.450       -0.092       39.924       56.564       83.721       44.343     3199.450     7009.150     1966.329        0.871        0.609       60.450       34.648        0.329      338.491       11.179      858.106
11/20/2014  15:16:00      111.611       83.958       56.346      110.451       57.231       39.909    12199.460     3275.392     1592.753        1.987        0.853      139.664       43.529        0.097      338.438       11.088      858.121
11/20/2014  15:17:00      103.116       33.259       33.193       77.607       60.684       46.492     6022.839     3682.571     2161.465        1.235        0.593      108.347       29.498        0.074      338.402       11.026      858.121
11/20/2014  15:18:00       59.559       57.013       46.584       40.068       45.710       36.707     1605.428     2089.425     1347.371        0.700        0.252       82.449       30.965        0.141      338.406       11.036      858.120
11/20/2014  15:19:00      104.878       45.114       43.083       61.242       48.375       39.255     3750.553     2340.168     1540.966        1.126        0.382      114.170       30.418        0.071      338.394       11.014      858.119
11/20/2014  15:20:00       51.405       31.807       39.725       70.168       42.975       34.281     4923.581     1846.882     1175.197        0.659        0.397       60.450       34.414        0.324      338.473       11.147      858.141
11/20/2014  15:21:00       28.378       37.788       67.897       41.393       57.792       29.384     1713.389     3339.894      863.445        0.638        0.296       47.258       33.188        0.493      338.501       11.196      858.163
11/20/2014  15:22:00       79.840      -90.897        5.530       74.993       94.225       48.881     5623.887     8878.364     2389.308        1.578        0.845      120.982       51.901        0.184      338.486       11.170      858.183
11/20/2014  15:23:00       72.757       22.142       78.134      100.661       85.909       60.816    10132.676     7380.380     3698.592        1.655        1.061       76.052       76.157        1.003      338.470       11.142      858.200
11/20/2014  15:24:00       55.027      -45.597       37.592       51.463       67.840       45.879     2648.490     4602.278     2104.873        0.794        0.468       71.464       46.239        0.419      338.479       11.157      858.204
11/20/2014  15:25:00       48.931      -58.542       31.205       59.573       73.292       41.176     3548.958     5371.664     1695.451        0.870        0.531       76.298       32.237        0.179      338.518       11.223      858.202
11/20/2014  15:26:00       76.897      -39.324       34.284       57.837       72.972       58.203     3345.116     5324.900     3387.635        1.034        0.603       86.368       57.018        0.436      338.535       11.252      858.189
11/20/2014  15:27:00      115.137       54.318       74.038      123.293       53.868       46.460    15201.158     2901.717     2158.522        2.097        1.013      127.306       49.035        0.148      338.485       11.167      858.165
11/20/2014  15:28:00      128.884       53.141       61.551       73.471       57.430       60.578     5397.982     3298.164     3669.712        1.779        0.618      139.410       44.357        0.101      338.416       11.050      858.114
11/20/2014  15:29:00      158.097       99.307       18.997       54.415       48.146       39.076     2961.023     2317.998     1526.905        2.101        0.340      186.699       30.762        0.027      338.412       11.042      858.073
11/20/2014  15:30:00      136.045       70.857       35.680       65.375       49.286       43.146     4273.837     2429.077     1861.608        1.668        0.428      153.392       36.544        0.057      338.414       11.050      858.048
11/20/2014  15:31:00       66.223       68.783       68.965       81.614       54.945       50.471     6660.786     3018.930     2547.283        1.305        0.611       95.481       37.014        0.150      338.470       11.144      858.060
11/20/2014  15:32:00       17.352       65.658       98.196       47.662       52.129       32.728     2271.624     2717.398     1071.130        1.016        0.303       67.912       32.433        0.228      338.541       11.263      858.090
11/20/2014  15:33:00       48.469       28.498       70.724       50.710       80.404       48.477     2571.501     6464.841     2350.063        0.977        0.569       56.226       52.513        0.872      338.571       11.314      858.098
11/20/2014  15:34:00      156.674       46.213       49.972       95.082       53.385       65.817     9040.654     2849.981     4331.907        2.270        0.811      163.348       38.415        0.055      338.447       11.103      858.094
11/20/2014  15:35:00      123.504       88.233       55.963       95.463       78.277       63.207     9113.229     6127.274     3995.123        2.270        0.962      151.783       47.937        0.100      338.401       11.025      858.074
11/20/2014  15:36:00      200.536      123.187       48.690       70.700       72.470       49.576     4998.517     5251.877     2457.768        3.523        0.635      235.351       39.126        0.028      338.372       10.976      858.041
11/20/2014  15:37:00      231.007      108.001       33.231      104.743       73.654       54.970    10971.085     5424.958     3021.650        4.277        0.971      255.007       30.220        0.014      338.399       11.021      858.041
11/20/2014  15:38:00       97.324       74.918       91.925       89.100       76.334       64.345     7938.771     5826.902     4140.304        2.072        0.895      122.820       57.244        0.217      338.448       11.104      858.051
11/20/2014  15:39:00       56.252       73.706       74.032       74.484       67.377       48.571     5547.859     4539.616     2359.184        1.326        0.622       92.719       38.525        0.173      338.448       11.105      858.073
11/20/2014  15:40:00       56.490       17.784       43.182       45.224       43.985       32.204     2045.200     1934.713     1037.122        0.519        0.251       59.223       27.843        0.221      338.494       11.183      858.095
11/20/2014  15:41:00      116.261     -122.181       -9.231       58.345       46.849       29.156     3404.128     2194.851      850.088        1.749        0.322      168.656       31.279        0.034      338.557       11.289      858.108
11/20/2014  15:42:00       32.749      -49.299       18.281       39.865       70.104       39.848     1589.194     4914.592     1587.842        0.596        0.405       59.185       45.697        0.596      338.637       11.424      858.124
11/20/2014  15:43:00      120.762      -52.911        9.650       91.920      117.932       71.087     8449.354    13907.888     5053.332        2.244        1.371      131.845       84.310        0.409      338.650       11.444      858.108
11/20/2014  15:44:00      121.591     -101.024       33.833      106.990      104.969       63.619    11446.925    11018.447     4047.325        2.632        1.326      158.083       73.311        0.215      338.705       11.535      858.103
11/20/2014  15:45:00      124.162     -153.034      -32.680       52.844       48.647       29.378     2792.480     2366.553      863.076        2.296        0.301      197.067       22.171        0.013      338.778       11.659      858.113
11/20/2014  15:46:00       10.846       -9.682       -7.769       24.229       62.115       31.079      587.047     3858.280      965.912        0.284        0.271       14.539       34.109        5.504      338.812       11.718      858.107
11/20/2014  15:47:00        3.043       -8.955       24.093       16.498       20.718       16.167      272.198      429.241      261.369        0.082        0.048        9.458       13.846        2.143      338.792       11.684      858.099
11/20/2014  15:48:00      -15.641       14.987       20.616       30.797       32.694       33.675      948.436     1068.867     1133.975        0.202        0.158       21.662       18.504        0.730      338.846       11.774      858.075
11/20/2014  15:49:00        5.576      -16.027       -0.811       23.917       23.227       16.383      572.034      539.505      268.414        0.083        0.069       16.969       13.923        0.673      338.879       11.831      858.056
11/20/2014  15:50:00       11.842      -15.766        5.200       25.115       32.738       22.560      630.776     1071.798      508.956        0.131        0.111       19.718       20.412        1.072      338.774       11.654      858.035
11/20/2014  15:51:00       -4.817      -13.781       -3.295       14.295       14.873       11.862      204.337      221.204      140.718        0.039        0.028       14.598        5.365        0.135      338.784       11.671      858.013
11/20/2014  15:52:00      -47.757      -18.188       -1.975       41.476       21.501       15.415     1720.222      462.300      237.609        0.252        0.121       51.103       16.393        0.103      338.743       11.603      858.003
11/20/2014  15:53:00      -57.352       -8.016       -2.651       28.456       21.056       14.827      809.729      443.349      219.840        0.242        0.074       57.909       10.839        0.035      338.791       11.682      857.997
11/20/2014  15:54:00       -8.164       10.068       13.522       40.955       41.316       29.040     1677.306     1706.977      843.320        0.229        0.211       12.963       25.931        4.002      338.773       11.652      857.992
11/20/2014  15:55:00       38.490       20.269       28.169       23.101       18.273       27.175      533.664      333.910      738.465        0.215        0.080       43.501       15.936        0.134      338.839       11.763      858.009
11/20/2014  15:56:00      -17.214       66.710        2.982       34.805       33.017       32.010     1211.364     1090.155     1024.668        0.404        0.166       68.895       22.373        0.105      338.712       11.550      858.035
11/20/2014  15:57:00       19.707       35.440       -8.389       25.270       34.217       14.861      638.568     1170.775      220.851        0.187        0.102       40.551       17.528        0.187      338.615       11.387      858.050
11/20/2014  15:58:00       12.519       64.731      -15.502       23.418       22.681       12.134      548.404      514.446      147.227        0.290        0.061       65.930        9.840        0.022      338.566       11.307      858.057
11/20/2014  15:59:00        2.560       75.940      -22.400       20.010       20.898       11.721      400.412      436.741      137.380        0.362        0.049       75.983        8.467        0.012      338.547       11.271      858.063
11/20/2014  16:00:00       -4.231       74.033      -19.045       20.050       14.388       10.223      402.011      207.020      104.513        0.329        0.036       74.154        9.801        0.017      338.570       11.311      858.051
11/20/2014  16:01:00      -24.738       68.276      -19.092       25.093       22.959       19.065      629.658      527.123      363.471        0.358        0.076       72.620       17.527        0.058      338.627       11.408      858.051
11/20/2014  16:02:00       -8.425       81.676      -13.365       16.082       34.048       19.457      258.623     1159.299      378.593        0.436        0.090       82.109       22.461        0.075      338.647       11.439      858.058
11/20/2014  16:03:00       -5.838      102.136      -23.633       16.455       23.287        9.788      270.773      542.291       95.797        0.597        0.045      102.303        5.140        0.003      338.586       11.335      858.067
11/20/2014  16:04:00      -11.055       84.815      -13.825       24.472       23.022       13.037      598.894      530.024      169.971        0.440        0.065       85.532       11.996        0.020      338.605       11.369      858.077
11/20/2014  16:05:00      -43.072       68.336      -18.575       21.539       13.846       13.727      463.929      191.705      188.422        0.386        0.042       80.777        9.606        0.014      338.634       11.420      858.080
11/20/2014  16:06:00      -32.774       78.960      -18.566       32.687       22.415       14.752     1068.449      502.450      217.608        0.472        0.089       85.492       12.403        0.021      338.621       11.399      858.075
11/20/2014  16:07:00      -79.725       79.552      -28.231       18.959       20.568       12.642      359.429      423.055      159.809        0.721        0.047      112.626        7.711        0.005      338.642       11.433      858.077
11/20/2014  16:08:00      -82.468       86.565      -26.434       23.195       22.539       11.198      538.015      508.003      125.391        0.808        0.059      119.560        7.864        0.004      338.576       11.322      858.101
11/20/2014  16:09:00      -47.682      115.674      -29.354       22.929       27.619       11.910      525.726      762.806      141.859        0.897        0.072      125.116        7.456        0.004      338.559       11.293      858.125
11/20/2014  16:10:00       -6.918      148.507      -33.872       28.499       19.726       12.648      812.209      389.100      159.973        1.231        0.068      148.668        7.338        0.002      338.484       11.165      858.152
11/20/2014  16:11:00       48.687       86.012      -10.027       38.730       55.398       38.257     1500.038     3068.993     1463.584        0.795        0.302       98.836       38.411        0.151      338.470       11.142      858.170
11/20/2014  16:12:00       12.067      109.977      -18.525       31.828       32.647       18.075     1013.029     1065.805      326.692        0.749        0.120      110.637       18.082        0.027      338.475       11.150      858.179
11/20/2014  16:13:00      -26.639       73.832       -5.170       41.131       39.892       21.610     1691.797     1591.362      466.978        0.497        0.188       78.491       13.954        0.032      338.591       11.346      858.186
11/20/2014  16:14:00        6.132      178.894      -35.401       20.285       22.158       11.635      411.498      490.961      135.363        1.717        0.052      178.999        8.960        0.003      338.462       11.129      858.188
11/20/2014  16:15:00      -13.599      135.502      -31.555       22.218       22.856       11.059      493.652      522.407      122.299        1.034        0.057      136.182       11.590        0.007      338.462       11.130      858.200
11/20/2014  16:16:00      -39.435       78.165      -15.226       30.225       28.841       19.854      913.566      831.776      394.178        0.502        0.107       87.549       20.966        0.057      338.658       11.459      858.203
11/20/2014  16:17:00      -97.738       69.832      -24.428       24.919       32.083       17.413      620.947     1029.330      303.228        0.849        0.098      120.121       13.555        0.013      338.673       11.485      858.208
11/20/2014  16:18:00      -60.462       25.631      -14.584       26.061       48.299       16.913      679.183     2332.769      286.042        0.391        0.165       65.670       16.912        0.066      338.725       11.573      858.207
11/20/2014  16:19:00      -73.498      -61.849       -4.473       41.524       28.875       20.962     1724.246      833.759      439.426        0.612        0.150       96.058       20.204        0.044      338.540       11.261      858.203
11/20/2014  16:20:00      -35.001      -42.559       -0.599       54.246       31.880       25.867     2942.660     1016.341      669.088        0.383        0.231       55.103       26.433        0.230      338.523       11.234      858.200
11/20/2014  16:21:00      -74.673      -41.753        0.232       65.995       37.277       25.984     4355.295     1389.582      675.187        0.687        0.321       85.553       30.586        0.128      338.545       11.270      858.196
11/20/2014  16:22:00      -38.630      -55.689       14.024       83.845       68.408       36.445     7029.905     4679.651     1328.257        0.891        0.652       67.776       44.417        0.429      338.510       11.210      858.192
11/20/2014  16:23:00     -290.529     -189.002      -30.393      174.027      116.808       69.430    30285.451    13644.214     4820.516        8.489        2.438      346.596       79.758        0.053      338.374       10.979      858.199
11/20/2014  16:24:00     -243.185     -106.313       -5.616      100.669      102.738       53.046    10134.257    10555.130     2813.861        4.698        1.175      265.408       40.809        0.024      338.202       10.690      858.182
11/20/2014  16:25:00     -222.179      -65.890      -10.914      131.877       84.264       53.975    17391.432     7100.485     2913.307        4.061        1.370      231.744       61.186        0.070      338.240       10.755      858.179
11/20/2014  16:26:00     -206.178     -120.746       -5.532      157.360      127.087       67.974    24762.017    16151.060     4620.407        5.132        2.277      238.933       69.643        0.085      338.153       10.607      858.173
11/20/2014  16:27:00     -387.236      -36.018      -32.454      156.232      120.283       74.936    24408.587    14467.914     5615.403        9.839        2.225      388.907       68.911        0.031      338.249       10.770      858.233
11/20/2014  16:28:00     -416.270      -76.977      -22.121      200.340      103.822       74.425    40136.253    10779.068     5539.111       11.806        2.823      423.327       81.348        0.037      338.025       10.392      858.274
11/20/2014  16:29:00     -281.174       19.083       -7.689      155.335      130.303       61.598    24128.860    16978.832     3794.325        6.218        2.245      281.821       70.705        0.063      338.187       10.665      858.310
11/20/2014  16:30:00     -137.955      -59.974       -5.631       73.552       73.427       37.313     5409.866     5391.551     1392.276        1.742        0.610      150.428       35.367        0.055      338.079       10.487      858.336
11/20/2014  16:31:00     -261.892     -141.285        3.998      138.857      121.017       58.777    19281.198    14645.008     3454.748        6.297        1.869      297.572       62.015        0.043      337.934       10.240      858.337
11/20/2014  16:32:00     -268.368     -190.877        4.627      161.532      100.258       78.691    26092.693    10051.693     6192.347        7.540        2.117      329.326       86.003        0.068      337.882       10.151      858.308
11/20/2014  16:33:00     -166.357     -130.788        4.202      137.040      130.905       71.232    18779.897    17136.029     5073.952        4.289        2.049      211.613       82.676        0.153      337.876       10.142      858.331
11/20/2014  16:34:00     -121.280      -34.765       34.393      151.076      128.764       67.864    22823.886    16580.067     4605.574        3.055        2.200      126.164       75.714        0.360      337.859       10.117      858.348
11/20/2014  16:35:00     -369.133      -50.840      -20.977      200.333      141.876       67.251    40133.136    20128.877     4522.653       10.202        3.239      372.617       58.740        0.025      337.927       10.228      858.328
11/20/2014  16:36:00     -453.816      -78.874      -14.973      194.671      111.825       74.853    37896.964    12504.740     5603.002       13.419        2.800      460.619       90.923        0.039      337.747        9.928      858.313
11/20/2014  16:37:00     -418.426     -129.690      -19.294      233.752      146.605       79.883    54640.059    21492.888     6381.303       13.738        4.126      438.063      104.650        0.057      337.769        9.966      858.315
11/20/2014  16:38:00     -382.134       -7.166      -25.335      158.127      130.183       76.158    25004.275    16947.501     5799.974        9.723        2.388      382.201       74.370        0.038      337.903       10.189      858.343
11/20/2014  16:39:00     -416.709      -12.127      -39.203       97.906       88.780       59.801     9585.585     7881.864     3576.195        9.818        1.052      416.885       52.564        0.016      337.784        9.988      858.385
11/20/2014  16:40:00     -348.652       -5.015      -40.598      167.292      128.732       53.980    27986.451    16571.846     2913.887        8.534        2.374      348.688       64.585        0.034      337.734        9.907      858.386
11/20/2014  16:41:00     -244.765      -78.030       -0.278      157.341       80.248       50.915    24756.156     6439.717     2592.349        4.989        1.689      256.902       56.994        0.049      337.678        9.812      858.374
11/20/2014  16:42:00     -315.513      -47.824       -5.630      126.728      116.431       68.838    16059.972    13556.062     4738.662        6.810        1.718      319.117       54.635        0.029      337.666        9.790      858.396
11/20/2014  16:43:00     -362.476      -36.443      -21.629      213.422      118.973       73.605    45548.806    14154.637     5417.633        9.914        3.256      364.303       91.496        0.063      337.616        9.708      858.418
11/20/2014  16:44:00     -237.157      -78.249        3.666      148.852      105.134       66.244    22156.976    11053.171     4388.279        4.998        1.880      249.733       72.567        0.084      337.602        9.684      858.432
11/20/2014  16:45:00     -334.303      -86.012      -23.342      157.842      101.189       59.657    24913.997    10239.175     3558.948        7.920        1.936      345.190       57.062        0.027      337.549        9.594      858.447
11/20/2014  16:46:00     -327.865     -165.546      -28.411      174.527      138.305       71.685    30459.840    19128.233     5138.675        9.521        2.736      367.288       67.825        0.034      337.487        9.491      858.475
11/20/2014  16:47:00     -273.377     -122.355       -3.104      181.136      134.067       85.717    32810.322    17974.046     7347.365        7.391        2.907      299.509       97.664        0.106      337.459        9.446      858.482
11/20/2014  16:48:00     -347.499     -105.359       -7.172      136.666      169.544       78.660    18677.614    28745.287     6187.360        9.275        2.681      363.120       76.260        0.044      337.484        9.485      858.467
11/20/2014  16:49:00     -435.662     -219.321      -40.346      144.550      129.821       76.113    20894.645    16853.601     5793.235       14.153        2.177      487.753       69.110        0.020      337.447        9.425      858.490
11/20/2014  16:50:00     -360.483      -85.000      -25.877      135.914       92.587       64.492    18472.595     8572.279     4159.271        8.452        1.560      370.368       59.690        0.026      337.514        9.536      858.456
11/20/2014  16:51:00     -385.932      -10.923      -20.391      170.119       85.087       71.160    28940.428     7239.776     5063.742        9.535        2.062      386.086       82.292        0.045      337.554        9.604      858.468
11/20/2014  16:52:00     -429.366      -82.059      -17.558      137.265      104.940       63.893    18841.786    11012.338     4082.271       11.266        1.697      437.137       63.164        0.021      337.459        9.444      858.477
11/20/2014  16:53:00     -250.772      -51.399        3.173      169.504      141.439       72.098    28731.613    20004.882     5198.120        5.973        2.697      255.986       79.631        0.097      337.544        9.588      858.502
11/20/2014  16:54:00     -367.957      -23.748      -23.566      148.662      130.590       73.183    22100.517    17053.876     5355.740        9.050        2.226      368.722       75.384        0.042      337.535        9.572      858.508
11/20/2014  16:55:00     -439.040      -78.001      -35.351      141.177      148.143       75.154    19930.842    21946.321     5648.086       12.380        2.376      445.915       78.897        0.031      337.559        9.611      858.488
11/20/2014  16:56:00     -355.942     -103.023      -10.115      154.276      126.062       80.569    23800.977    15891.548     6491.378        9.179        2.309      370.551       68.882        0.035      337.526        9.557      858.501
11/20/2014  16:57:00     -365.007     -104.337      -22.144      130.204       92.398       66.689    16953.152     8537.425     4447.372        8.727        1.497      379.626       62.138        0.027      337.438        9.409      858.523
11/20/2014  16:58:00     -298.615      -63.585      -18.374      166.787      128.272       57.516    27817.775    16453.730     3308.055        7.056        2.379      305.309       71.677        0.055      337.501        9.515      858.520
11/20/2014  16:59:00     -457.113     -107.562      -33.578      118.534      147.856       61.928    14050.349    21861.411     3835.063       13.069        1.987      469.598       47.103        0.010      337.460        9.445      858.496
11/20/2014  17:00:00     -478.233      -48.039      -37.333      141.520      122.661       63.295    20028.048    15045.800     4006.197       13.574        1.954      480.640       59.655        0.015      337.483        9.484      858.498
11/20/2014  17:01:00     -255.843      -75.726       10.582      192.402      118.900       67.693    37018.498    14137.306     4582.386        6.351        2.787      266.815       86.374        0.105      337.516        9.539      858.549
11/20/2014  17:02:00     -239.711     -138.824       -0.218      165.957      116.398       70.237    27541.821    13548.448     4933.236        6.137        2.301      277.009       78.840        0.081      337.472        9.467      858.607
11/20/2014  17:03:00     -212.043     -112.816       11.629      126.183       89.639       60.170    15922.073     8035.207     3620.475        4.270        1.379      240.186       62.816        0.068      337.467        9.458      858.635
11/20/2014  17:04:00     -182.756     -100.990       -1.958      128.446       93.666       51.085    16498.355     8773.357     2609.657        3.574        1.394      208.803       60.117        0.083      337.472        9.467      858.678
11/20/2014  17:05:00      -99.543      -58.903       -5.422       74.872       78.356       42.668     5605.772     6139.703     1820.528        1.348        0.678      115.665       32.970        0.081      337.475        9.473      858.626
11/20/2014  17:06:00     -172.604     -183.910       10.259      110.590      145.028       64.094    12230.135    21033.158     4107.989        5.054        1.869      252.220       70.886        0.079      337.649        9.764      858.609
11/20/2014  17:07:00     -224.475     -140.876       -9.680      149.594      102.236       69.339    22378.285    10452.267     4807.852        5.398        1.882      265.019       82.493        0.097      337.989       10.332      858.600
11/20/2014  17:08:00     -141.722     -176.362       -2.521       64.880       65.088       40.099     4209.350     4236.441     1607.911        3.062        0.503      226.250       38.960        0.030      338.063       10.458      858.626
11/20/2014  17:09:00     -118.492     -105.150        9.592      108.116       95.238       54.025    11689.103     9070.368     2918.713        2.443        1.184      158.419       62.376        0.155      337.974       10.310      858.685
11/20/2014  17:10:00       10.789     -105.053      -11.567       72.056       70.982       48.826     5191.996     5038.482     2383.944        1.195        0.631      105.606       44.934        0.181      337.987       10.333      858.723
11/20/2014  17:11:00       -0.129     -189.587      -12.429      111.629       93.144       44.866    12460.939     8675.781     2012.962        2.962        1.157      189.587       25.905        0.019      337.966       10.296      858.748
11/20/2014  17:12:00       37.126     -158.119      -25.254      115.489       80.390       48.196    13337.818     6462.476     2322.858        2.457        1.106      162.419       27.006        0.028      337.963       10.291      858.749
11/20/2014  17:13:00      -62.761      -50.568       -6.755       75.324       62.785       32.223     5673.729     3941.894     1038.322        0.860        0.533       80.598       25.844        0.103      337.905       10.196      858.731
11/20/2014  17:14:00      -20.964       14.733       50.393       72.078       68.669       56.364     5195.231     4715.454     3176.894        0.814        0.654       25.623       62.488        5.947      337.804       10.026      858.717
11/20/2014  17:15:00       -0.360      -40.395        1.059       31.921       46.448       22.301     1018.978     2157.426      497.354        0.265        0.184       40.397       20.761        0.264      337.973       10.311      858.703
11/20/2014  17:16:00      -41.125      -36.884      -15.587       51.359       42.180       19.037     2637.708     1779.136      362.395        0.404        0.239       55.242       20.466        0.137      337.798       10.017      858.702
11/20/2014  17:17:00       24.003      -28.576       18.977       33.548       55.481       40.222     1125.445     3078.091     1617.802        0.379        0.291       37.319       44.499        1.422      337.831       10.071      858.689
11/20/2014  17:18:00       -5.419      -24.539       25.433       32.385       57.284       37.798     1048.784     3281.477     1428.714        0.352        0.288       25.130       40.789        2.635      337.813       10.041      858.690
11/20/2014  17:19:00       13.032      -16.787       33.188       55.011       77.886       43.558     3026.173     6066.281     1897.288        0.627        0.549       21.252       43.755        4.239      337.897       10.182      858.700
11/20/2014  17:20:00      -67.121       -7.663       24.845       44.503       45.643       35.033     1980.476     2083.272     1227.314        0.524        0.265       67.557       37.307        0.305      337.989       10.337      858.699
11/20/2014  17:21:00      -76.264      -38.866        3.574       39.239       38.883       20.064     1539.729     1511.868      402.571        0.540        0.173       85.597       17.279        0.041      337.805       10.027      858.706
11/20/2014  17:22:00      -28.418      -22.360        8.887       33.027       32.636       17.794     1090.792     1065.102      316.620        0.193        0.124       36.160       16.378        0.205      337.787        9.996      858.708
11/20/2014  17:23:00        9.396      -61.345       -9.892       25.112       40.266       22.026      630.623     1621.329      485.130        0.334        0.137       62.061       19.514        0.099      337.824       10.058      858.719
11/20/2014  17:24:00      -15.963       -9.227       -3.475       21.032       44.639       23.546      442.336     1992.656      554.397        0.167        0.149       18.438       14.619        0.629      337.796       10.011      858.718
11/20/2014  17:25:00       23.297       -8.985        3.025       60.099       23.928       27.126     3611.889      572.563      735.822        0.278        0.246       24.969       14.201        0.323      337.742        9.920      858.700
11/20/2014  17:26:00      -27.971        2.712       -8.023       35.521       31.046       20.573     1261.727      963.884      423.251        0.175        0.132       28.102       11.972        0.182      337.849       10.101      858.685
11/20/2014  17:27:00      -35.869      -39.922       -1.978       63.519       57.529       29.745     4034.654     3309.637      884.778        0.556        0.411       53.669       33.114        0.381      337.850       10.103      858.668
11/20/2014  17:28:00      -81.829       -8.626        3.095       47.007       55.312       26.004     2209.683     3059.423      676.183        0.636        0.297       82.282       22.704        0.076      337.785        9.995      858.656
11/20/2014  17:29:00      -80.260      -11.286        8.724       42.592       37.714       26.013     1814.106     1422.375      676.666        0.528        0.196       81.050       22.655        0.078      337.872       10.140      858.654
11/20/2014  17:30:00      -41.593      -16.782       -0.594       33.173       28.207       18.004     1100.424      795.621      324.137        0.212        0.111       44.851       17.279        0.148      337.822       10.055      858.657
11/20/2014  17:31:00      -85.044      -47.904        1.599       29.056       23.958       17.765      844.243      573.966      315.588        0.563        0.087       97.608       12.095        0.015      337.731        9.904      858.654
11/20/2014  17:32:00      -78.714      -57.973       -7.424       25.559       21.484       15.083      653.286      461.549      227.493        0.548        0.067       97.758       11.220        0.013      337.809       10.034      858.633
11/20/2014  17:33:00      -41.361       -3.531       -1.195       25.750       44.562       15.670      663.074     1985.761      245.564        0.231        0.145       41.511       12.248        0.087      337.918       10.217      858.614
11/20/2014  17:34:00      -61.984       67.715      -22.522       18.149       30.061       13.070      329.378      903.683      170.814        0.517        0.070       91.800        9.124        0.010      337.724        9.888      858.600
11/20/2014  17:35:00      -44.813       78.532      -13.099       27.459       32.286       19.672      754.014     1042.411      386.993        0.526        0.109       90.418       16.661        0.034      337.814       10.043      858.593
11/20/2014  17:36:00      -36.255       88.648        1.520       29.512       60.066       31.687      870.941     3607.940     1004.088        0.733        0.274       95.775       16.968        0.031      337.817       10.047      858.583
11/20/2014  17:37:00      -95.461       19.623       -5.798       36.220       46.259       20.807     1311.915     2139.884      432.917        0.671        0.194       97.457       15.306        0.025      338.155       10.614      858.573
11/20/2014  17:38:00     -132.465      145.969      -34.245       45.687       41.194       29.128     2087.306     1696.979      848.460        2.233        0.232      197.115       20.456        0.011      337.694        9.841      858.565
11/20/2014  17:39:00     -160.635       55.755      -13.994       64.460       40.672       32.014     4155.075     1654.252     1024.886        1.797        0.342      170.036       29.472        0.030      337.899       10.186      858.539
11/20/2014  17:40:00     -113.468       64.701      -20.790       60.795       47.902       38.336     3696.072     2294.613     1469.640        1.248        0.373      130.619       30.728        0.055      337.813       10.040      858.508
11/20/2014  17:41:00     -118.986       33.946      -10.125       86.531       62.176       44.192     7487.643     3865.907     1952.941        1.436        0.665      123.734       54.425        0.193      337.730        9.900      858.472
11/20/2014  17:42:00      -83.866       15.746       -3.907       55.341       30.450       29.671     3062.607      927.179      880.368        0.608        0.244       85.332       31.076        0.133      337.823       10.058      858.451
11/20/2014  17:43:00     -117.871       48.830      -15.900       50.968       37.870       32.191     2597.758     1434.125     1036.241        1.080        0.253      127.585       30.630        0.058      337.794       10.008      858.429
11/20/2014  17:44:00     -118.117        4.822      -12.181       54.761       63.356       24.184     2998.727     4013.928      584.880        1.086        0.380      118.216       26.339        0.050      337.729        9.900      858.407
11/20/2014  17:45:00     -161.031      -42.538      -21.864       48.329       48.777       31.799     2335.710     2379.243     1011.201        1.697        0.286      166.554       25.373        0.023      337.564        9.620      858.386
11/20/2014  17:46:00     -187.532      -80.481      -19.267      105.943       63.562       39.188    11223.973     4040.162     1535.663        2.940        0.840      204.072       44.698        0.048      337.473        9.468      858.356
11/20/2014  17:47:00     -205.183      -78.990      -15.064      122.799       81.824       48.123    15079.512     6695.144     2315.847        3.632        1.205      219.863       52.534        0.057      337.419        9.378      858.366
11/20/2014  17:48:00     -326.343        8.779      -27.658       96.236      103.055       51.930     9261.382    10620.252     2696.746        6.496        1.129      326.461       43.558        0.018      337.471        9.463      858.364
11/20/2014  17:49:00     -272.680      -21.181      -44.169       68.729       73.518       32.597     4723.730     5404.910     1062.596        4.397        0.560      273.501       11.387        0.002      337.355        9.269      858.369
11/20/2014  17:50:00     -177.019      -35.280      -11.037      113.312       85.714       59.571    12839.681     7346.954     3548.660        2.821        1.187      180.500       55.254        0.094      337.394        9.336      858.368
11/20/2014  17:51:00     -270.477      -73.945      -23.520       86.876       84.820       52.621     7547.366     7194.387     2768.926        4.834        0.876      280.403       48.737        0.030      337.311        9.196      858.376
11/20/2014  17:52:00     -332.290      -49.726       -3.419      143.177      110.463       61.306    20499.718    12202.124     3758.371        7.467        1.823      335.990       66.022        0.039      337.294        9.169      858.373
11/20/2014  17:53:00     -321.551      -32.289      -30.809      128.006       77.660       63.329    16385.426     6031.137     4010.572        6.590        1.321      323.168       63.493        0.039      337.384        9.319      858.389
11/20/2014  17:54:00     -327.328       -2.916      -23.974      126.899       80.459       58.013    16103.313     6473.690     3365.453        6.683        1.297      327.341       62.668        0.037      337.377        9.307      858.384
11/20/2014  17:55:00     -182.322      -89.001        2.121       90.643       89.002       43.074     8216.129     7921.275     1855.412        2.958        0.900      202.886       43.825        0.047      337.359        9.278      858.395
11/20/2014  17:56:00     -220.630      -51.660      -10.704      137.917       83.004       52.668    19021.163     6889.653     2773.867        4.007        1.434      226.597       47.835        0.045      337.328        9.227      858.399
11/20/2014  17:57:00     -275.132      -75.451      -18.310      128.932       83.995       51.859    16623.526     7055.079     2689.324        5.404        1.318      285.290       53.428        0.035      337.252        9.099      858.423
11/20/2014  17:58:00     -200.737      -22.102       -8.600      106.138       83.780       36.609    11265.311     7019.102     1340.250        3.024        0.981      201.950       35.648        0.031      337.291        9.164      858.454
11/20/2014  17:59:00     -214.753      -50.936      -14.393      108.735       64.430       45.985    11823.220     4151.214     2114.605        3.350        0.904      220.711       55.556        0.063      337.257        9.107      858.487
11/20/2014  18:00:00     -153.171      -41.553        2.481       90.027       60.365       39.768     8104.877     3643.916     1581.520        1.926        0.667      158.708       43.439        0.075      337.233        9.067      858.518
11/20/2014  18:01:00     -101.413       27.481       -4.458       83.741       63.056       39.589     7012.523     3976.107     1567.284        1.181        0.628      105.070       43.225        0.169      337.371        9.299      858.519
11/20/2014  18:02:00      -63.548       16.077       11.927       55.506       51.222       32.149     3080.951     2623.722     1033.540        0.559        0.337       65.550       31.600        0.232      337.379        9.314      858.531
11/20/2014  18:03:00      -66.026      -33.255        2.179       54.174       43.476       23.081     2934.809     1890.169      532.716        0.541        0.268       73.928       18.568        0.063      337.245        9.089      858.548
11/20/2014  18:04:00      -25.359      -30.289       15.398       56.399       53.989       33.760     3180.805     2914.766     1139.767        0.452        0.362       39.504       29.598        0.561      337.269        9.130      858.550
11/20/2014  18:05:00       44.380       31.897       16.882       28.181       29.147       23.291      794.166      849.537      542.457        0.273        0.109       54.654       17.683        0.105      337.261        9.115      858.548
11/20/2014  18:06:00        6.158       -3.959       11.914       32.851       51.647       29.003     1079.202     2667.392      841.202        0.239        0.229        7.321       22.647        9.569      337.332        9.233      858.550
11/20/2014  18:07:00      -80.721     -133.411       -7.919       67.022       49.116       39.588     4491.993     2412.343     1567.241        1.642        0.424      155.931       34.511        0.049      337.228        9.062      858.541
11/20/2014  18:08:00      -17.153      -99.674        9.716       52.316       40.254       21.324     2736.997     1620.414      454.696        0.757        0.241      101.140       12.606        0.016      337.187        8.995      858.525
11/20/2014  18:09:00      -54.688      -68.105        9.324       67.405       52.393       34.671     4543.491     2744.999     1202.079        0.810        0.425       87.344       39.070        0.200      337.227        9.059      858.545
11/20/2014  18:10:00      -89.130      -50.539        1.816       65.132       57.056       33.134     4242.136     3255.411     1097.892        0.955        0.430      102.462       36.481        0.127      337.228        9.060      858.563
11/20/2014  18:11:00      -63.200      -33.216      -11.126       39.885       54.391       20.723     1590.834     2958.328      429.453        0.510        0.249       71.398       15.828        0.049      337.213        9.038      858.574
11/20/2014  18:12:00      -11.511     -215.124        4.246       49.450       86.068       41.534     2445.263     7407.684     1725.058        2.900        0.579      215.431       29.500        0.019      337.239        9.077      858.565
11/20/2014  18:13:00     -134.918      -82.558        7.376      141.364       81.163       52.571    19983.752     6587.386     2763.694        2.720        1.467      158.173       64.210        0.165      337.177        8.975      858.557
11/20/2014  18:14:00     -189.760      -53.040      -10.046       94.699       59.718       45.202     8967.895     3566.292     2043.257        2.675        0.729      197.033       42.643        0.047      337.178        8.974      858.560
11/20/2014  18:15:00     -246.737      -75.880      -17.535      147.768       86.858       62.500    21835.513     7544.334     3906.207        5.011        1.664      258.141       71.593        0.077      337.210        9.030      858.559
11/20/2014  18:16:00     -190.323      -25.169       -3.354      105.030       94.093       50.859    11031.337     8853.447     2586.649        2.966        1.124      191.980       46.113        0.058      337.379        9.311      858.565
11/20/2014  18:17:00      -54.401      -35.070       -8.966      100.182       62.325       37.901    10036.474     3884.438     1436.469        0.981        0.768       64.725       38.909        0.361      337.177        8.973      858.583
11/20/2014  18:18:00       47.242       27.117       -5.628       33.363       47.680       40.980     1113.118     2273.343     1679.339        0.403        0.253       54.472       24.971        0.210      337.192        9.001      858.551
11/20/2014  18:19:00        1.335      -11.591       28.506       73.524       81.071       51.597     5405.814     6572.439     2662.234        0.779        0.732       11.668       45.885       15.466      337.179        8.980      858.559
11/20/2014  18:20:00     -189.915     -145.952        8.228      136.874       97.231       66.934    18734.562     9453.886     4480.182        4.505        1.633      239.519       71.044        0.088      337.109        8.858      858.560
11/20/2014  18:21:00     -147.861     -102.491        0.897       77.980      124.357       47.128     6080.910    15464.597     2221.036        2.806        1.188      179.909       44.539        0.061      337.107        8.856      858.547
11/20/2014  18:22:00     -141.200      -54.800       -3.492      106.680      113.738       40.616    11380.628    12936.430     1649.626        2.445        1.298      151.461       41.676        0.076      337.159        8.943      858.535
11/20/2014  18:23:00     -239.905      -21.985      -25.502      108.559      115.873       53.598    11785.091    13426.635     2872.750        4.338        1.404      240.911       56.280        0.055      337.331        9.230      858.529
11/20/2014  18:24:00     -190.611      -95.032        0.606       91.914       93.199       49.943     8448.200     8686.092     2494.326        3.249        0.981      212.987       52.419        0.061      337.229        9.061      858.530
11/20/2014  18:25:00     -134.513     -112.959       14.886       95.356       85.488       51.190     9092.717     7308.265     2620.458        2.504        0.951      175.652       46.304        0.069      337.245        9.089      858.532
11/20/2014  18:26:00     -160.447      -74.756       -4.959      108.772       80.663       47.935    11831.267     6506.483     2297.791        2.599        1.032      177.007       42.425        0.057      337.258        9.109      858.549
11/20/2014  18:27:00     -176.162      -72.460      -15.402      113.832      100.012       54.050    12957.769    10002.410     2921.392        3.120        1.294      190.482       52.617        0.076      337.291        9.163      858.567
11/20/2014  18:28:00     -156.083      -18.273       -3.033       97.801       56.311       39.788     9564.941     3170.889     1583.069        1.951        0.716      157.149       48.508        0.095      337.387        9.325      858.586
11/20/2014  18:29:00     -260.807       -1.773      -27.860      137.505       71.301       52.722    18907.667     5083.768     2779.590        4.778        1.339      260.813       66.987        0.066      337.230        9.062      858.577
11/20/2014  18:30:00     -351.216     -113.343      -31.603       84.859      135.389       53.428     7201.025    18330.293     2854.547        8.279        1.419      369.052       43.347        0.014      337.257        9.106      858.552
11/20/2014  18:31:00     -231.529      -35.699        1.329      137.096      108.048       61.366    18795.201    11674.391     3765.832        4.455        1.712      234.265       67.579        0.083      337.195        9.003      858.516
11/20/2014  18:32:00     -218.071      -46.018      -10.174       93.816       70.837       36.338     8801.411     5017.908     1320.425        3.245        0.757      222.874       38.101        0.029      337.133        8.898      858.518
11/20/2014  18:33:00     -218.083      -16.570      -18.192       57.950       62.444       39.598     3358.147     3899.274     1568.026        2.849        0.441      218.712       29.492        0.018      337.284        9.150      858.522
11/20/2014  18:34:00     -292.401      -40.396      -14.753      114.695      119.093       56.483    13155.025    14183.150     3190.327        5.893        1.526      295.179       62.793        0.045      337.304        9.186      858.524
11/20/2014  18:35:00     -196.476      -88.726       -7.283      113.898       93.502       61.259    12972.719     8742.536     3752.648        3.599        1.273      215.581       59.286        0.076      337.158        8.941      858.533
11/20/2014  18:36:00     -209.606      -28.154        7.935      180.746      113.321       71.521    32668.991    12841.635     5115.291        4.770        2.531      211.488       83.766        0.157      337.215        9.037      858.547
11/20/2014  18:37:00     -170.098      -42.478       15.549      152.509       91.271       55.184    23258.970     8330.432     3045.278        3.280        1.732      175.322       70.290        0.161      337.145        8.920      858.564
11/20/2014  18:38:00     -172.559      -91.482       -2.950      120.061       88.802       55.331    14414.542     7885.778     3061.506        3.175        1.268      195.309       55.823        0.082      337.126        8.887      858.571
11/20/2014  18:39:00     -235.884      -73.641      -13.705       91.367       72.512       49.952     8348.014     5257.981     2495.241        3.867        0.805      247.112       35.597        0.021      337.163        8.949      858.597
11/20/2014  18:40:00     -156.802       17.948        1.160       53.149       64.999       33.708     2824.850     4224.814     1136.234        1.655        0.409      157.826       29.303        0.034      337.342        9.252      858.612
11/20/2014  18:41:00     -129.922      -14.830      -13.617       69.642       47.615       31.546     4849.957     2267.153      995.153        1.270        0.406      130.765       33.438        0.065      337.244        9.089      858.631
11/20/2014  18:42:00     -120.025      -57.621       -7.443       46.533       36.500       28.648     2165.281     1332.254      820.729        1.105        0.216      133.140       23.154        0.030      337.230        9.067      858.631
11/20/2014  18:43:00     -159.606      -59.001        0.470      108.429       79.446       45.611    11756.750     6311.618     2080.338        2.455        1.007      170.163       53.375        0.098      337.265        9.121      858.638
11/20/2014  18:44:00     -125.971      -28.556       15.425      100.419       83.838       51.142    10083.909     7028.842     2615.470        1.832        0.986      129.167       53.179        0.170      337.331        9.232      858.646
11/20/2014  18:45:00     -268.879      -72.201      -15.946       94.998       83.445       46.498     9024.633     6962.986     2162.055        4.795        0.907      278.404       46.987        0.028      337.210        9.028      858.645
11/20/2014  18:46:00     -176.395        7.443       -2.909       87.431       60.708       38.955     7644.256     3685.493     1517.473        2.201        0.642      176.552       41.240        0.055      337.223        9.050      858.653
11/20/2014  18:47:00     -154.683      -53.457       -9.591       61.845       58.665       38.397     3824.788     3441.632     1474.326        1.781        0.437      163.659       34.062        0.043      337.178        8.977      858.641
11/20/2014  18:48:00      -46.928      -46.901       10.242       41.101       53.807       27.452     1689.251     2895.145      753.615        0.492        0.267       66.348       20.201        0.093      337.156        8.937      858.630
11/20/2014  18:49:00      -70.201      -32.199        3.571       56.332       51.085       33.378     3173.276     2609.727     1114.065        0.644        0.345       77.233       33.038        0.183      337.198        9.012      858.623
11/20/2014  18:50:00     -145.348      -56.867       -5.854       98.813       62.743       35.726     9763.952     3936.730     1276.368        1.968        0.749      156.077       36.085        0.053      337.349        9.261      858.622
11/20/2014  18:51:00     -213.445      -50.595      -17.280       31.525       47.915       27.626      993.826     2295.870      763.179        2.623        0.203      219.359       15.867        0.005      337.155        8.934      858.624
11/20/2014  18:52:00     -123.685      -20.226        0.974       47.577       60.426       30.333     2263.577     3651.253      920.083        1.127        0.342      125.328       25.413        0.041      337.347        9.259      858.633
11/20/2014  18:53:00     -197.370      -99.016       10.856      121.497      120.930       67.278    14761.561    14624.124     4526.383        4.139        1.696      220.814       61.963        0.079      337.307        9.190      858.622
11/20/2014  18:54:00     -221.348     -167.772      -14.280      115.736       92.861       61.953    13394.711     8623.165     3838.185        5.160        1.293      277.745       55.398        0.040      337.213        9.034      858.626
11/20/2014  18:55:00     -272.431     -199.362      -25.697      105.465       84.389       65.296    11122.931     7121.585     4263.600        6.856        1.125      337.585       67.670        0.040      337.184        8.984      858.630
11/20/2014  18:56:00     -186.624     -158.899        0.913       92.402       76.936       57.549     8538.064     5919.123     3311.942        3.892        0.888      245.107       55.924        0.052      337.201        9.013      858.640
11/20/2014  18:57:00     -189.029     -107.897       -3.275      101.014       64.219       48.363    10203.765     4124.089     2338.980        3.202        0.833      217.655       43.798        0.040      337.227        9.057      858.635
11/20/2014  18:58:00      -76.300      -60.573        9.722       73.240       57.392       46.494     5364.164     3293.883     2161.714        1.020        0.541       97.421       44.590        0.209      337.275        9.140      858.638
11/20/2014  18:59:00     -137.306      -42.787        1.006       58.219       59.935       32.878     3389.449     3592.171     1080.975        1.437        0.403      143.818       34.543        0.058      337.329        9.228      858.638
11/20/2014  19:00:00     -115.113      -67.713      -12.898       50.416       37.404       25.641     2541.814     1399.056      657.455        1.130        0.230      133.552       24.648        0.034      337.253        9.103      858.643
11/20/2014  19:01:00      -77.579       -3.671        1.904       42.487       39.851       24.742     1805.129     1588.065      612.190        0.502        0.200       77.666       21.306        0.075      337.531        9.568      858.644
11/20/2014  19:02:00      -58.449      -64.171       -7.269       29.321       42.472       15.639      859.700     1803.845      244.586        0.525        0.145       86.800       16.350        0.035      337.392        9.334      858.651
11/20/2014  19:03:00     -125.869      -69.605      -13.880       55.503       40.101       29.203     3080.581     1608.065      852.790        1.321        0.277      143.833       26.350        0.034      337.271        9.134      858.651
11/20/2014  19:04:00     -155.057     -110.227        0.764       84.070       70.149       37.179     7067.784     4920.815     1382.294        2.478        0.669      190.244       34.823        0.034      337.301        9.180      858.652
11/20/2014  19:05:00     -124.584     -124.334       -7.004       63.616       66.418       47.139     4047.043     4411.340     2222.061        2.085        0.534      176.011       39.398        0.050      337.283        9.151      858.657
11/20/2014  19:06:00     -106.793      -24.349       11.560       77.740       65.337       44.709     6043.531     4268.959     1998.899        1.222        0.616      109.534       45.386        0.172      337.293        9.170      858.667
11/20/2014  19:07:00      -73.455       -8.378        8.905       90.446       66.125       39.061     8180.487     4372.463     1525.796        0.981        0.704       73.931       50.072        0.459      337.319        9.212      858.676
11/20/2014  19:08:00     -189.668      -46.405      -14.853       68.887       53.856       33.047     4745.424     2900.426     1092.082        2.354        0.437      195.262       28.182        0.021      337.326        9.222      858.695
11/20/2014  19:09:00     -209.539       16.825      -19.175       83.873       49.236       42.970     7034.660     2424.176     1846.383        2.793        0.565      210.213       35.616        0.029      337.317        9.207      858.694
11/20/2014  19:10:00     -145.241      -30.886       -4.513       71.014       60.805       35.512     5042.956     3697.279     1261.092        1.603        0.500      148.488       32.707        0.049      337.240        9.080      858.698
11/20/2014  19:11:00     -224.422      -93.029       -2.385      107.221       94.437       51.229    11496.261     8918.421     2624.459        4.103        1.152      242.939       55.284        0.052      337.206        9.021      858.705
11/20/2014  19:12:00     -176.092      -68.901       -4.654       80.102       68.204       43.434     6416.305     4651.772     1886.542        2.436        0.648      189.092       38.552        0.042      337.232        9.066      858.720
11/20/2014  19:13:00     -207.792      -37.447      -10.168       61.265       82.253       39.819     3753.448     6765.490     1585.520        2.839        0.605      211.139       27.410        0.017      337.166        8.954      858.731
11/20/2014  19:14:00     -178.865      -11.230      -14.284       88.175       44.711       31.565     7774.804     1999.084      996.330        2.154        0.539      179.217       39.557        0.049      337.332        9.233      858.730
11/20/2014  19:15:00     -157.928      -87.580        0.018       86.095       79.302       44.472     7412.274     6288.795     1977.783        2.414        0.784      180.587       44.157        0.060      337.177        8.974      858.707
11/20/2014  19:16:00     -291.579     -157.280      -17.386      118.038       79.577       47.347    13932.897     6332.508     2241.735        6.628        1.125      331.294       54.132        0.027      337.147        8.920      858.694
11/20/2014  19:17:00     -171.109      -58.479      -10.830      112.773      108.498       60.291    12717.751    11771.772     3634.997        3.046        1.406      180.826       67.135        0.138      337.203        9.016      858.692
11/20/2014  19:18:00     -221.346      -41.890      -17.593       89.403       93.506       41.689     7992.946     8743.294     1737.932        3.476        0.924      225.275       35.468        0.025      337.137        8.905      858.674
11/20/2014  19:19:00     -179.759      -37.784       -3.018      161.247       84.626       59.046    26000.687     7161.530     3486.472        3.519        1.832      183.687       70.842        0.149      337.173        8.966      858.687
11/20/2014  19:20:00     -191.412      -79.535       -0.204      132.360       82.625       52.184    17519.102     6826.910     2723.221        3.501        1.353      207.279       62.484        0.091      337.165        8.953      858.685
11/20/2014  19:21:00     -201.280     -148.625      -11.327      168.871      126.319       66.239    28517.268    15956.414     4387.543        5.579        2.443      250.206       76.887        0.094      337.052        8.762      858.668
11/20/2014  19:22:00     -300.686     -109.154       -3.889      166.155      109.045       70.171    27607.343    11890.707     4923.950        7.337        2.221      319.886       77.860        0.059      337.008        8.688      858.650
11/20/2014  19:23:00     -200.874      -70.211        4.494      102.012      128.978       60.930    10406.518    16635.362     3712.520        3.802        1.538      212.791       62.170        0.085      337.075        8.800      858.673
11/20/2014  19:24:00     -200.514      -94.100        1.535      129.581      119.895       58.682    16791.170    14374.898     3443.564        4.183        1.730      221.497       63.600        0.082      336.962        8.611      858.681
11/20/2014  19:25:00     -257.721      -99.239       -2.029      166.163      110.050       71.115    27609.988    12111.080     5057.405        6.052        2.239      276.167       74.097        0.072      336.948        8.587      858.714
11/20/2014  19:26:00     -395.547        0.956      -11.922      187.086      113.258       81.573    35001.034    12827.464     6654.204       10.553        2.724      395.548       92.934        0.055      336.969        8.624      858.745
11/20/2014  19:27:00     -387.521      -52.706      -24.290      161.987      135.923       68.192    26239.901    18475.124     4650.090       10.144        2.468      391.089       75.055        0.037      336.927        8.552      858.764
11/20/2014  19:28:00     -311.696      -62.227      -12.162      142.094      108.806       76.574    20190.607    11838.847     5863.505        6.953        1.895      317.847       78.324        0.061      336.957        8.604      858.787
11/20/2014  19:29:00     -299.175      -45.020      -14.329      109.127      103.129       59.898    11908.652    10635.582     3587.813        5.893        1.307      302.543       57.619        0.036      336.974        8.632      858.809
11/20/2014  19:30:00     -217.892      -54.403        2.029      125.090       94.571       58.487    15647.463     8943.607     3420.672        3.922        1.401      224.580       61.831        0.076      336.918        8.539      858.848
11/20/2014  19:31:00     -249.456      -93.147        3.976      143.476       92.996       48.799    20585.390     8648.341     2381.313        5.126        1.581      266.279       49.157        0.034      336.924        8.550      858.845
11/20/2014  19:32:00     -133.701     -151.733        4.376      103.143       93.112       38.492    10638.459     8669.823     1481.630        3.085        1.039      202.234       42.031        0.043      336.949        8.591      858.852
11/20/2014  19:33:00     -180.299     -147.336       -3.968      105.834      106.158       54.408    11200.867    11269.445     2960.247        3.983        1.272      232.843       53.597        0.053      336.940        8.576      858.861
11/20/2014  19:34:00     -263.808      -86.265      -17.388      116.684       97.552       53.828    13615.061     9516.356     2897.433        5.168        1.301      277.554       54.692        0.039      336.891        8.494      858.873
11/20/2014  19:35:00     -223.948      -72.297      -14.623      115.099       93.847       53.642    13247.681     8807.230     2877.440        4.026        1.247      235.329       62.063        0.070      336.862        8.444      858.871
11/20/2014  19:36:00     -183.487      -24.881        4.756      114.758      107.725       53.511    13169.320    11604.571     2863.424        3.097        1.382      185.166       58.837        0.101      336.910        8.526      858.878
11/20/2014  19:37:00     -255.457      -21.326      -10.009      122.157      102.300       50.524    14922.358    10465.267     2552.678        4.687        1.397      256.346       54.392        0.045      336.967        8.620      858.884
11/20/2014  19:38:00     -197.636     -110.165       -4.242       90.606       93.508       44.694     8209.370     8743.700     1997.559        3.508        0.948      226.266       43.920        0.038      336.899        8.507      858.896
11/20/2014  19:39:00     -302.958      -74.299      -10.230      141.158      110.110       57.826    19925.533    12124.301     3343.892        6.639        1.770      311.936       62.215        0.040      336.874        8.464      858.911
11/20/2014  19:40:00     -386.682     -101.367      -28.370      113.192      106.949       48.799    12812.362    11438.035     2381.380        9.361        1.332      399.747       38.757        0.009      336.853        8.429      858.932
11/20/2014  19:41:00     -345.674      -89.138      -18.409      112.275      110.802       51.365    12605.638    12277.006     2638.313        7.764        1.376      356.982       48.014        0.018      336.840        8.409      858.936
11/20/2014  19:42:00     -219.309      -79.282      -12.783       98.609       92.538       55.836     9723.822     8563.334     3117.665        3.797        1.070      233.200       44.194        0.036      336.844        8.415      858.965
11/20/2014  19:43:00     -228.063       18.773       -1.747      124.808       84.726       47.228    15576.918     7178.457     2230.463        3.867        1.249      228.834       55.026        0.058      337.067        8.790      858.953
11/20/2014  19:44:00     -112.380      -40.075        6.295      109.846       69.259       43.411    12066.138     4796.820     1884.493        1.651        0.937      119.312       44.806        0.141      336.844        8.418      858.977
11/20/2014  19:45:00     -161.524     -151.285        7.255      143.740      125.350       63.553    20661.074    15712.517     4039.035        4.471        2.021      221.308       77.328        0.122      336.836        8.401      859.003
11/20/2014  19:46:00     -243.604     -110.247      -20.567       62.945       85.197       38.841     3962.112     7258.576     1508.607        4.232        0.636      267.390       21.044        0.006      336.843        8.413      859.031
11/20/2014  19:47:00     -185.409     -106.172       -2.637      117.941      104.586       58.494    13910.101    10938.278     3421.511        3.696        1.413      213.657       55.491        0.067      336.809        8.358      859.061
11/20/2014  19:48:00     -163.240     -125.720        4.280      116.072       91.531       63.485    13472.597     8377.878     4030.306        3.417        1.294      206.040       69.345        0.113      336.816        8.371      859.061
11/20/2014  19:49:00     -117.562      -70.586        1.393      119.148       84.826       59.801    14196.230     7195.488     3576.180        2.188        1.248      137.125       54.112        0.156      336.841        8.412      859.080
11/20/2014  19:50:00     -315.716      -35.341      -21.964      148.434      123.320       54.841    22032.581    15207.882     3007.533        7.082        2.012      317.688       52.976        0.028      336.848        8.422      859.099
11/20/2014  19:51:00     -139.354     -109.881       -9.567       91.811       85.896       47.748     8429.196     7378.183     2279.837        2.483        0.904      177.464       51.169        0.083      336.803        8.347      859.103
11/20/2014  19:52:00     -260.478      -98.617        3.718      167.584       95.786       67.205    28084.396     9175.012     4516.539        5.967        2.089      278.521       80.516        0.084      336.763        8.281      859.110
11/20/2014  19:53:00     -334.455     -207.260       -8.882      138.046       97.434       63.437    19056.719     9493.333     4024.206        9.373        1.629      393.468       61.171        0.024      336.796        8.334      859.127
11/20/2014  19:54:00     -243.268     -203.210      -10.892       97.287       97.336       52.306     9464.753     9474.313     2735.945        6.113        1.084      316.975       51.718        0.027      336.815        8.366      859.169
11/20/2014  19:55:00     -164.097     -123.530       -0.744       95.754       67.425       43.370     9168.848     4546.181     1881.000        2.889        0.780      205.396       42.979        0.044      336.822        8.378      859.185
11/20/2014  19:56:00      -81.788      -79.303       17.064       61.425       54.514       28.307     3773.009     2971.799      801.281        1.041        0.377      113.922       17.714        0.024      336.815        8.370      859.220
11/20/2014  19:57:00      -67.397      -42.777        1.614       46.424       67.203       25.770     2155.213     4516.278      664.085        0.685        0.367       79.826       12.601        0.025      336.847        8.424      859.230
11/20/2014  19:58:00      -18.629      -37.349       -6.262       21.866       33.632       15.094      478.112     1131.122      227.818        0.181        0.092       41.737        4.252        0.010      336.846        8.421      859.236
11/20/2014  19:59:00       26.313      -50.350       12.253       41.989       36.032       32.914     1763.068     1298.336     1083.364        0.376        0.207       56.811       26.163        0.212      336.750        8.264      859.260
11/20/2014  20:00:00       27.101       -6.608       45.749       43.258       66.107       38.187     1871.222     4370.074     1458.239        0.528        0.385       27.895       31.950        1.312      336.673        8.134      859.281
11/20/2014  20:01:00       69.914      -58.871       21.244       58.835       83.877       54.002     3461.524     7035.372     2916.179        1.111        0.671       91.399       60.122        0.433      336.565        7.954      859.301
11/20/2014  20:02:00       71.556      -92.913      -10.013       41.587       75.562       39.088     1729.487     5709.613     1527.879        1.141        0.448      117.273       42.395        0.131      336.549        7.927      859.328
11/20/2014  20:03:00       32.993      -25.359        4.973       36.637       50.802       36.246     1342.283     2580.881     1313.779        0.350        0.262       41.613       36.226        0.758      336.522        7.882      859.336
11/20/2014  20:04:00       30.802        4.862       20.972       33.846       16.998       15.224     1145.547      288.915      231.774        0.154        0.083       31.183        9.604        0.095      336.498        7.840      859.341
11/20/2014  20:05:00        6.612       12.985       31.328       22.778       15.936       13.237      518.858      253.945      175.210        0.107        0.047       14.572       16.186        1.234      336.480        7.809      859.354
11/20/2014  20:06:00      -18.738       -2.218        0.443       12.203       15.991       11.911      148.919      255.725      141.874        0.045        0.027       18.869        9.764        0.268      336.591        7.997      859.361
11/20/2014  20:07:00       12.951       20.690        8.995        9.966       16.907       17.050       99.316      285.851      290.691        0.068        0.034       24.409       15.905        0.425      336.478        7.805      859.368
11/20/2014  20:08:00      -27.604       51.290      -11.715       23.925       13.271        9.908      572.426      176.112       98.168        0.219        0.042       58.246       12.550        0.046      336.490        7.825      859.388
11/20/2014  20:09:00      -51.141       55.454       -6.607       20.516       19.676       18.434      420.919      387.133      339.798        0.344        0.057       75.436        8.520        0.013      336.747        8.257      859.401
11/20/2014  20:10:00      -66.971       50.852      -10.421       22.809       27.704       18.514      520.229      767.494      342.755        0.440        0.082       84.090       17.300        0.042      336.675        8.137      859.405
11/20/2014  20:11:00      -84.368       84.512      -27.656       15.617       24.353       15.152      243.902      593.049      229.580        0.805        0.053      119.416       13.948        0.014      336.722        8.217      859.407
11/20/2014  20:12:00      -74.788       28.223       -8.766       23.571       35.180       21.421      555.589     1237.612      458.844        0.436        0.113       79.936       17.072        0.046      336.737        8.240      859.420
11/20/2014  20:13:00      -91.264      -30.121      -11.729       17.046       15.294       11.300      290.553      233.905      127.692        0.501        0.033       96.106        8.878        0.009      336.594        8.003      859.439
11/20/2014  20:14:00      -48.694      -41.535        1.679       36.406       16.357       13.972     1325.428      267.558      195.212        0.294        0.089       64.002       13.809        0.047      336.664        8.119      859.443
11/20/2014  20:15:00      -25.116      -39.530       -1.005       17.503       14.996       11.182      306.361      224.891      125.034        0.143        0.033       46.834       10.135        0.047      336.752        8.266      859.450
11/20/2014  20:16:00      -15.285      -18.742       14.727       32.565       22.424       18.314     1060.473      502.845      335.393        0.135        0.095       24.184       16.089        0.443      336.805        8.354      859.461
11/20/2014  20:17:00     -114.088      -72.022        0.977       47.162       45.455       24.580     2224.251     2066.126      604.166        1.155        0.245      134.919       15.822        0.014      336.739        8.245      859.476
11/20/2014  20:18:00     -212.450      -70.747      -13.000       74.098       50.223       39.840     5490.451     2522.370     1587.245        2.995        0.480      223.920       38.274        0.029      336.671        8.127      859.496
11/20/2014  20:19:00     -138.026      -83.634      -16.260       81.095       56.816       37.566     6576.421     3228.066     1411.189        1.876        0.561      161.388       38.932        0.058      336.670        8.127      859.496
11/20/2014  20:20:00     -104.414      -62.497        0.017       64.026       58.075       35.952     4099.382     3372.724     1292.565        1.178        0.438      121.689       43.284        0.127      336.664        8.118      859.493
11/20/2014  20:21:00      -64.432      -17.274        3.589       47.835       45.253       28.603     2288.174     2047.809      818.157        0.481        0.258       66.707       30.976        0.216      336.666        8.122      859.494
11/20/2014  20:22:00      -92.672      -49.083       -1.973       47.311       31.448       20.673     2238.329      988.977      427.357        0.733        0.183      104.868       14.609        0.019      336.681        8.145      859.480
11/20/2014  20:23:00     -149.980     -127.260        2.360       80.343       55.570       42.784     6455.065     3088.014     1830.451        2.503        0.569      196.695       46.639        0.056      336.650        8.092      859.464
11/20/2014  20:24:00     -172.348     -127.270      -16.316       68.894       86.486       33.032     4746.440     7479.852     1091.119        2.974        0.666      214.246       33.998        0.025      336.681        8.143      859.463
11/20/2014  20:25:00     -131.375      -85.026       -2.179       70.092       72.800       35.662     4912.845     5299.883     1271.803        1.799        0.574      156.489       29.538        0.036      336.687        8.157      859.454
11/20/2014  20:26:00      -77.715     -114.472        4.729       51.416       70.078       26.032     2643.631     4910.988      677.684        1.370        0.412      138.360       29.493        0.045      336.721        8.213      859.445
11/20/2014  20:27:00      -23.206      -64.810        7.450       91.327       87.267       30.036     8340.542     7615.451      902.172        1.082        0.843       68.839       36.084        0.275      336.790        8.328      859.415
11/20/2014  20:28:00      -53.264      -71.371        9.281       62.303       54.630       34.116     3881.664     2984.383     1163.917        0.802        0.401       89.056       37.400        0.176      336.714        8.203      859.406
11/20/2014  20:29:00     -140.661      -33.489       -2.652       80.512       51.513       33.652     6482.187     2653.627     1132.485        1.559        0.513      144.593       33.236        0.053      336.760        8.278      859.394
11/20/2014  20:30:00      -86.264     -101.640        7.712       74.277       59.780       32.777     5517.095     3573.680     1074.361        1.400        0.508      133.312       31.880        0.057      336.767        8.291      859.395
11/20/2014  20:31:00     -123.767     -141.293        1.630       63.456       60.830       44.162     4026.702     3700.333     1950.283        2.248        0.484      187.835       33.302        0.031      336.754        8.265      859.410
11/20/2014  20:32:00     -128.287     -141.455        5.533       84.554       77.956       42.154     7149.304     6077.117     1776.976        2.575        0.750      190.963       39.310        0.042      336.749        8.258      859.424
11/20/2014  20:33:00      -70.086     -116.403       -6.397       91.951       62.856       46.169     8454.959     3950.888     2131.546        1.652        0.727      135.874       43.639        0.103      336.744        8.251      859.445
11/20/2014  20:34:00       -5.358      -76.196       -8.525       62.487       56.421       30.996     3904.644     3183.314      960.735        0.698        0.402       76.384       21.946        0.083      336.765        8.287      859.454
11/20/2014  20:35:00      -44.982      -62.488        3.045       69.314       40.660       30.510     4804.485     1653.219      930.841        0.666        0.369       76.995       23.360        0.092      336.681        8.147      859.455
11/20/2014  20:36:00       20.307      -31.255       24.460       36.593       51.854       24.781     1339.046     2688.873      614.093        0.331        0.232       37.272       32.447        0.758      336.575        7.968      859.464
11/20/2014  20:37:00       88.493      -92.549        0.277       54.458       36.695       32.433     2965.670     1346.536     1051.926        1.088        0.268      128.048       21.959        0.029      336.573        7.967      859.478
11/20/2014  20:38:00       69.273      -38.773       29.755       82.061       88.025       48.983     6733.966     7748.347     2399.383        1.203        0.844       79.386       65.278        0.676      336.466        7.785      859.487
11/20/2014  20:39:00      105.746      -74.676       23.869       61.152       62.585       37.942     3739.522     3916.933     1439.586        1.321        0.455      129.455       41.163        0.101      336.449        7.756      859.489
11/20/2014  20:40:00       27.269       38.714       58.357       48.755       49.977       41.902     2377.079     2497.737     1755.814        0.614        0.332       47.354       36.203        0.584      336.465        7.784      859.489
11/20/2014  20:41:00       63.938      -72.152       27.352       42.764       53.214       44.183     1828.740     2831.716     1952.121        0.833        0.331       96.405       43.940        0.208      336.483        7.815      859.480
11/20/2014  20:42:00       72.491       50.901       52.085       33.069       49.108       41.417     1093.564     2411.547     1715.351        0.789        0.261       88.577       27.705        0.098      336.442        7.745      859.482
11/20/2014  20:43:00       97.860       85.915       77.889       54.985       48.750       36.964     3023.404     2376.560     1366.318        1.489        0.338      130.222       29.320        0.051      336.365        7.617      859.471
11/20/2014  20:44:00       74.141      119.667      103.611       49.851       43.811       30.004     2485.135     1919.429      900.233        1.793        0.265      140.773       24.811        0.031      336.323        7.548      859.460
11/20/2014  20:45:00       84.680       83.174       62.759       48.589       47.505       45.638     2360.933     2256.733     2082.787        1.236        0.335      118.696       27.024        0.052      336.264        7.448      859.460
11/20/2014  20:46:00       84.740       75.583       64.306       52.652       55.572       43.569     2772.273     3088.193     1898.252        1.239        0.388      113.551       30.982        0.074      336.247        7.422      859.468
11/20/2014  20:47:00       82.857       19.523       43.174       59.501       52.290       40.029     3540.406     2734.273     1602.307        0.849        0.394       85.126       27.882        0.107      336.264        7.448      859.482
11/20/2014  20:48:00       27.048       31.884       39.730       41.790       33.202       29.737     1746.403     1102.382      884.286        0.353        0.187       41.811       23.522        0.317      336.270        7.460      859.502
11/20/2014  20:49:00      103.869       64.721       55.489       52.851       32.646       32.884     2793.278     1065.751     1081.365        1.150        0.247      122.383       28.941        0.056      336.253        7.433      859.531
11/20/2014  20:50:00       87.514       57.348       45.473       53.866       39.777       39.623     2901.585     1582.248     1569.948        0.953        0.303      104.630       27.992        0.072      336.266        7.454      859.536
11/20/2014  20:51:00      107.267       60.954       44.130       57.744       47.469       44.618     3334.407     2253.322     1990.757        1.237        0.379      123.376       29.549        0.057      336.293        7.496      859.532
11/20/2014  20:52:00      134.981       78.467       31.281       68.941       39.275       40.841     4752.876     1542.499     1667.972        1.666        0.398      156.131       33.809        0.047      336.219        7.372      859.531
11/20/2014  20:53:00      164.814       67.422       11.615       59.346       52.539       38.198     3521.966     2760.299     1459.101        1.979        0.387      178.071       25.097        0.020      336.156        7.267      859.526
11/20/2014  20:54:00      145.247       73.117       22.775       45.775       44.424       35.870     2095.364     1973.529     1286.644        1.616        0.268      162.612       22.725        0.020      336.132        7.228      859.526
11/20/2014  20:55:00      157.228       65.994       14.511       65.844       49.752       39.834     4335.423     2475.301     1586.721        1.884        0.420      170.516       32.762        0.037      336.114        7.197      859.522
11/20/2014  20:56:00      106.962       72.872       28.159       56.562       38.192       36.545     3199.233     1458.640     1335.540        1.177        0.300      129.426       34.485        0.071      336.089        7.153      859.517
11/20/2014  20:57:00      104.083       56.929       40.742       55.735       39.710       40.097     3106.370     1576.912     1607.792        1.101        0.315      118.635       25.645        0.047      336.100        7.176      859.511
11/20/2014  20:58:00      137.715       58.574       39.018       61.107       45.263       49.331     3734.012     2048.722     2433.535        1.607        0.411      149.654       39.308        0.069      336.119        7.207      859.507
11/20/2014  20:59:00       81.335       42.564       58.729       61.694       48.655       37.160     3806.088     2367.337     1380.855        0.971        0.378       91.799       38.098        0.172      336.137        7.235      859.500
11/20/2014  21:00:00      111.561       46.129       44.844       72.608       64.806       57.834     5271.967     4199.805     3344.735        1.470        0.641      120.722       42.743        0.125      336.119        7.206      859.502
11/20/2014  21:01:00      128.131       59.448       52.641       61.182       52.381       41.963     3743.208     2743.811     1760.879        1.548        0.412      141.250       33.886        0.058      336.129        7.223      859.502
11/20/2014  21:02:00      122.232       54.027       37.018       63.517       38.837       48.421     4034.374     1508.277     2344.591        1.356        0.394      133.640       39.746        0.088      336.131        7.227      859.504
11/20/2014  21:03:00      129.994       65.400       17.923       50.971       39.916       35.857     2598.082     1593.317     1285.714        1.349        0.274      145.519       27.499        0.036      336.113        7.197      859.503
11/20/2014  21:04:00      159.631       72.577       19.410       42.331       37.192       23.588     1791.884     1383.249      556.382        1.743        0.187      175.355       18.244        0.011      336.092        7.159      859.505
11/20/2014  21:05:00      108.412       36.675       18.192       34.543       31.545       26.650     1193.191      995.082      710.206        0.816        0.145      114.447       15.977        0.019      336.089        7.156      859.509
11/20/2014  21:06:00       79.288       31.743       42.625       47.271       37.161       31.915     2234.593     1380.928     1018.580        0.687        0.232       85.406       28.869        0.114      336.081        7.141      859.511
11/20/2014  21:07:00      141.950       88.162       58.881       51.871       58.188       57.613     2690.574     3385.834     3319.226        2.039        0.470      167.100       46.203        0.076      336.057        7.101      859.501
11/20/2014  21:08:00      107.448       96.650       78.807       53.190       46.947       42.718     2829.203     2203.980     1824.856        1.698        0.343      144.521       31.548        0.048      335.999        7.005      859.506
11/20/2014  21:09:00      114.723       67.776       50.854       72.325       67.049       61.474     5230.946     4495.522     3779.060        1.692        0.675      133.248       44.850        0.113      335.991        6.993      859.509
11/20/2014  21:10:00       61.130       89.551       76.512       46.277       41.557       33.977     2141.554     1727.010     1154.434        1.132        0.251      108.426       24.205        0.050      335.986        6.987      859.535
11/20/2014  21:11:00       52.933       60.086       62.351       41.582       37.025       22.565     1729.079     1370.837      509.172        0.695        0.180       80.076       18.284        0.052      336.045        7.082      859.566
11/20/2014  21:12:00       94.837       91.684       72.353       51.482       33.202       32.236     2650.402     1102.346     1039.129        1.371        0.240      131.909       29.361        0.050      336.072        7.128      859.605
11/20/2014  21:13:00       77.284       88.714       74.879       38.716       27.818       26.717     1498.967      773.857      713.774        1.122        0.149      117.656        9.932        0.007      336.070        7.122      859.630
11/20/2014  21:14:00       68.154       -8.912       14.627       57.237       61.019       35.546     3276.031     3723.303     1263.511        0.660        0.413       68.735       23.857        0.120      336.023        7.046      859.653
11/20/2014  21:15:00       26.338       29.682       56.116       28.295       51.648       30.474      800.599     2667.522      928.667        0.456        0.220       39.683       34.069        0.737      336.031        7.059      859.672
11/20/2014  21:16:00      108.768      -89.646       -4.734       44.885       41.798       30.090     2014.659     1747.097      905.407        1.228        0.233      140.950       25.738        0.033      336.021        7.042      859.679
11/20/2014  21:17:00      115.754     -113.780        5.137       39.764       52.668       34.853     1581.199     2773.920     1214.727        1.597        0.278      162.310       32.504        0.040      335.956        6.933      859.674
11/20/2014  21:18:00       29.756       12.532       51.971       29.142       50.431       32.777      849.283     2543.295     1074.364        0.410        0.223       32.287       34.832        1.164      335.971        6.959      859.678
11/20/2014  21:19:00       45.421       21.782       66.052       39.135       44.379       25.730     1531.547     1969.520      662.056        0.553        0.208       50.373       28.615        0.323      335.990        6.991      859.673
11/20/2014  21:20:00       49.192       -8.327       36.574       43.910       62.356       30.559     1928.108     3888.282      933.860        0.529        0.338       49.892       36.112        0.524      335.976        6.967      859.668
11/20/2014  21:21:00       24.528       26.307       56.945       25.436       57.937       34.920      647.005     3356.737     1219.417        0.488        0.261       35.968       41.111        1.306      335.993        6.996      859.672
11/20/2014  21:22:00       15.881       31.054       55.338       23.179       62.117       33.729      537.271     3858.554     1137.626        0.491        0.277       34.879       42.978        1.518      335.984        6.981      859.677
11/20/2014  21:23:00        9.269       28.597       42.792       30.180       40.396       26.446      910.854     1631.797      699.388        0.299        0.162       30.061       24.297        0.653      335.965        6.948      859.682
11/20/2014  21:24:00       48.451       50.912       46.491       48.526       36.904       34.737     2354.766     1361.902     1206.672        0.601        0.246       70.282       24.845        0.125      335.924        6.882      859.699
11/20/2014  21:25:00       16.099      -18.983       30.076       31.223       45.892       27.936      974.898     2106.120      780.427        0.269        0.193       24.891       26.762        1.156      335.957        6.935      859.715
11/20/2014  21:26:00        7.002       14.535       21.424       22.794       24.082       21.898      519.551      579.964      479.518        0.115        0.079       16.134       15.169        0.884      335.908        6.856      859.734
11/20/2014  21:27:00       28.616       42.093       46.495       39.770       29.180       21.839     1581.649      851.460      476.953        0.383        0.146       50.899       15.961        0.098      335.868        6.788      859.752
11/20/2014  21:28:00       90.817       71.842       46.876       33.456       29.697       27.280     1119.333      881.911      744.182        0.918        0.137      115.797       15.098        0.017      335.846        6.751      859.757
11/20/2014  21:29:00       83.204       56.895       47.701       49.353       37.996       31.537     2435.752     1443.683      994.568        0.865        0.244      100.796       28.796        0.082      335.869        6.789      859.767
11/20/2014  21:30:00       49.573       39.594       50.124       35.420       30.546       28.076     1254.566      933.040      788.236        0.476        0.149       63.444       19.619        0.096      335.842        6.746      859.761
11/20/2014  21:31:00       90.558       58.250       17.701       40.246       29.972       29.730     1619.763      898.315      883.898        0.765        0.170      107.675       22.230        0.043      335.832        6.727      859.752
11/20/2014  21:32:00       78.482       50.487       10.144       43.710       33.609       29.673     1910.608     1129.555      880.464        0.637        0.196       93.318       21.909        0.055      335.838        6.739      859.744
11/20/2014  21:33:00       49.261       46.687       51.939       38.589       23.277       23.969     1489.091      541.834      574.521        0.495        0.130       67.870       20.905        0.095      335.860        6.776      859.741
11/20/2014  21:34:00       37.291       60.263       54.741       28.765       24.217       25.547      827.449      586.473      652.641        0.504        0.103       70.868       20.964        0.088      335.820        6.707      859.741
11/20/2014  21:35:00       65.102       32.800       18.388       24.234       22.169       23.029      587.289      491.484      530.331        0.363        0.080       72.898       14.135        0.038      335.786        6.653      859.753
11/20/2014  21:36:00       51.121       34.995       34.829       26.020       22.051       20.910      677.027      486.232      437.238        0.333        0.080       61.952       11.541        0.035      335.788        6.655      859.761
11/20/2014  21:37:00       63.020       32.502       19.978       31.257       24.247       22.312      976.997      587.901      497.833        0.374        0.103       70.908       16.215        0.052      335.828        6.724      859.773
11/20/2014  21:38:00       37.396       33.738       26.515       24.181       14.268       12.199      584.740      203.572      148.814        0.209        0.047       50.366       11.165        0.049      335.798        6.672      859.791
11/20/2014  21:39:00       37.333       13.569       24.367       18.948       22.676       16.504      359.009      514.214      272.390        0.166        0.057       39.722       13.145        0.110      335.793        6.664      859.810
11/20/2014  21:40:00        4.839      -13.503        6.808       13.235       14.154       10.746      175.158      200.338      115.469        0.037        0.025       14.343        9.126        0.405      335.891        6.825      859.829
11/20/2014  21:41:00      -15.257      -16.353        6.076       15.374       14.794       11.784      236.366      218.871      138.863        0.057        0.030       22.365       10.553        0.223      335.778        6.640      859.845
11/20/2014  21:42:00      -51.314       12.053       -1.764       10.851       12.336        8.252      117.741      152.180       68.097        0.156        0.017       52.711        3.390        0.004      335.852        6.764      859.855
11/20/2014  21:43:00      -41.282        6.843       -5.155       11.751       17.481        7.575      138.086      305.574       57.383        0.114        0.025       41.845        5.046        0.015      335.888        6.821      859.856
11/20/2014  21:44:00      -46.721      -19.812       -1.784       11.395       11.382       10.513      129.854      129.546      110.525        0.147        0.018       50.748        8.268        0.027      335.863        6.779      859.856
11/20/2014  21:45:00      -49.141      -12.688       -1.771       22.433       17.409       12.935      503.245      303.072      167.309        0.178        0.049       50.753       10.277        0.041      335.858        6.773      859.857
11/20/2014  21:46:00       -2.631       -3.894       15.203       37.604       14.113       16.866     1414.074      199.165      284.468        0.108        0.095        4.700       18.025       14.710      335.867        6.788      859.851
11/20/2014  21:47:00       35.464       -6.942       -1.628       14.046       16.482       15.306      197.290      271.667      234.278        0.101        0.035       36.137        8.380        0.054      335.898        6.838      859.854
11/20/2014  21:48:00       37.274        7.659       12.213       18.071       13.576       17.525      326.566      184.295      307.123        0.121        0.041       38.053        7.924        0.043      335.851        6.760      859.857
11/20/2014  21:49:00       21.280       34.575       15.268       16.964       12.450       17.988      287.766      154.995      323.579        0.132        0.038       40.599       11.187        0.076      335.792        6.661      859.865
11/20/2014  21:50:00       -8.833       10.518       47.433       13.693       30.555       18.960      187.502      933.595      359.482        0.196        0.074       13.735       20.413        2.209      335.829        6.723      859.867
11/20/2014  21:51:00      -23.046       -8.888       13.731       25.884       30.557       23.340      669.998      933.716      544.740        0.147        0.107       24.701       15.130        0.375      335.888        6.823      859.869
11/20/2014  21:52:00      -33.116       -9.900       16.016       40.159       33.600       24.277     1612.712     1128.946      589.351        0.239        0.167       34.565       23.205        0.451      335.893        6.830      859.846
11/20/2014  21:53:00       22.964        9.311       40.914       43.311       47.499       44.504     1875.880     2256.187     1980.580        0.420        0.306       24.780       42.176        2.897      335.964        6.948      859.833
11/20/2014  21:54:00       72.768      -52.921       -5.597       76.008       71.812       61.311     5777.202     5157.022     3758.981        1.141        0.735       89.977       66.432        0.545      335.840        6.741      859.807
11/20/2014  21:55:00      104.985     -112.569      -25.760       38.027       59.499       31.803     1446.067     3540.131     1011.409        1.518        0.300      153.927       26.678        0.030      335.835        6.732      859.794
11/20/2014  21:56:00       32.845       -7.595       29.511       28.268       47.559       40.043      799.095     2261.890     1603.474        0.333        0.233       33.712       36.890        1.197      335.784        6.649      859.793
11/20/2014  21:57:00       67.528      -48.661       13.608       54.582       48.151       36.410     2979.218     2318.480     1325.711        0.687        0.331       83.234       34.989        0.177      335.798        6.672      859.787
11/20/2014  21:58:00       57.811        5.972       34.964       54.195       29.053       30.366     2937.085      844.067      922.104        0.465        0.235       58.118       30.499        0.275      335.801        6.677      859.781
11/20/2014  21:59:00       44.614      -19.967       24.429       36.333       30.489       26.103     1320.059      929.609      681.391        0.296        0.147       48.878       21.528        0.194      335.804        6.682      859.788
11/20/2014  22:00:00       15.443       -5.008       13.173       27.639       28.240       19.152      763.930      797.481      366.816        0.118        0.096       16.235       20.615        1.612      335.821        6.710      859.793
11/20/2014  22:01:00       16.290       19.206        9.374       18.940       22.659       14.920      358.708      513.421      222.605        0.091        0.055       25.184       10.557        0.176      335.755        6.602      859.802
11/20/2014  22:02:00       40.242       40.907        2.881       11.046       10.234       17.515      122.024      104.740      306.768        0.192        0.027       57.383        4.660        0.007      335.764        6.615      859.805
11/20/2014  22:03:00       16.363       47.185       -6.707       19.649       13.473        9.973      386.072      181.532       99.469        0.160        0.033       49.942        9.072        0.033      335.736        6.566      859.811
11/20/2014  22:04:00       -6.605       30.383       -9.100       10.235       10.038        4.518      104.761      100.752       20.408        0.064        0.011       31.092        2.638        0.007      335.731        6.561      859.811
11/20/2014  22:05:00      -51.248      -17.581       -4.649       32.420       25.448       12.118     1051.061      647.614      146.852        0.240        0.092       54.180       12.398        0.052      335.759        6.609      859.804
11/20/2014  22:06:00      -37.403       -2.926       -3.665       23.954       33.937       16.783      573.804     1151.716      281.664        0.171        0.100       37.517       16.444        0.192      335.708        6.523      859.801
11/20/2014  22:07:00      -45.283      -12.603        5.322       27.182       20.375       14.253      738.851      415.125      203.150        0.180        0.068       47.004       13.535        0.083      335.680        6.474      859.791
11/20/2014  22:08:00      -31.491      -13.384        5.543       29.249       33.054       16.647      855.522     1092.565      277.138        0.171        0.111       34.217       16.155        0.223      335.679        6.474      859.779
11/20/2014  22:09:00      -11.477        6.820        7.682       20.560       19.125       15.093      422.712      365.765      227.807        0.063        0.051       13.351       10.979        0.676      335.685        6.483      859.783
11/20/2014  22:10:00      -22.419      -10.420        8.777       12.933       14.279       11.333      167.273      203.888      128.437        0.059        0.025       24.723       10.692        0.187      335.665        6.452      859.793
11/20/2014  22:11:00      -28.713       -6.184        5.469       10.800       13.264        9.490      116.641      175.922       90.053        0.064        0.019       29.372        8.579        0.085      335.695        6.502      859.796
11/20/2014  22:12:00      -10.773       -3.869        3.921       11.690       14.182        9.676      136.652      201.119       93.620        0.029        0.022       11.447        6.413        0.314      335.794        6.666      859.807
11/20/2014  22:13:00       -6.736        4.905        0.027       19.099       28.877       13.399      364.774      833.872      179.525        0.072        0.069        8.332        9.965        1.430      335.823        6.712      859.822
11/20/2014  22:14:00       -0.016      -10.100        8.413        9.617       21.987       10.604       92.494      483.415      112.443        0.043        0.034       10.100        8.846        0.767      335.759        6.606      859.830
11/20/2014  22:15:00      -11.091       -8.765        7.450       18.311       17.599       12.246      335.277      309.742      149.974        0.053        0.040       14.136       11.196        0.627      335.750        6.594      859.831
11/20/2014  22:16:00      -31.685       -6.037       -1.478       19.210       15.039        9.322      369.039      226.159       86.892        0.086        0.034       32.255        5.913        0.034      335.705        6.519      859.830
11/20/2014  22:17:00        0.004       -2.768        9.060       15.586       10.370        7.580      242.914      107.532       57.460        0.025        0.020        2.768        8.842       10.204      335.698        6.506      859.825
11/20/2014  22:18:00      -22.445      -13.409       -1.867       15.937        7.587        8.921      254.003       57.563       79.592        0.054        0.020       26.146        3.615        0.019      335.649        6.426      859.812
11/20/2014  22:19:00      -12.746       -5.355        1.869       11.063        7.041        7.518      122.383       49.580       56.513        0.021        0.011       13.825        5.587        0.163      335.658        6.441      859.798
11/20/2014  22:20:00      -33.307       -7.442        2.482        7.584        9.883        7.118       57.515       97.675       50.663        0.069        0.010       34.128        4.166        0.015      335.652        6.429      859.772
11/20/2014  22:21:00      -39.198      -27.066        0.280       13.874       12.157        9.432      192.487      147.791       88.970        0.135        0.021       47.635        6.443        0.018      335.593        6.330      859.743
11/20/2014  22:22:00       -9.622       -6.082       11.379       18.318       25.673       16.184      335.567      659.112      261.934        0.076        0.063       11.383       11.476        1.016      335.616        6.368      859.730
11/20/2014  22:23:00      -34.302       29.318        7.286       26.738       19.549       18.490      714.918      382.152      341.885        0.176        0.072       45.124       14.401        0.102      335.684        6.482      859.719
11/20/2014  22:24:00      -96.103       24.810       -6.811       20.817       24.446       15.008      433.368      597.586      225.254        0.558        0.063       99.254       10.853        0.012      336.003        7.014      859.715
11/20/2014  22:25:00      -77.559       -5.917       -8.191       49.414       29.651       23.799     2441.790      879.176      566.399        0.500        0.194       77.784       26.234        0.114      335.857        6.770      859.730
11/20/2014  22:26:00      -59.841      -12.688       -2.890       39.342       25.988       19.856     1547.773      675.351      394.252        0.318        0.131       61.171       18.262        0.089      335.622        6.379      859.751
11/20/2014  22:27:00      -95.881      -24.616       -9.137       24.017       23.203       16.917      576.793      538.384      286.191        0.564        0.070       98.991        7.696        0.006      335.525        6.217      859.765
11/20/2014  22:28:00      -78.778       -6.806       -5.377       33.880       26.634       21.251     1147.875      709.389      451.608        0.429        0.115       79.071       22.388        0.080      335.571        6.293      859.777
11/20/2014  22:29:00     -101.974        4.405      -14.930       28.264       31.215       20.799      798.853      974.398      432.598        0.642        0.110      102.069       14.717        0.021      335.622        6.378      859.778
11/20/2014  22:30:00     -105.565       -5.147      -13.647       35.532       29.401       23.095     1262.550      864.397      533.380        0.701        0.133      105.690       17.205        0.026      335.517        6.202      859.783
11/20/2014  22:31:00      -86.486       14.788       -6.794       32.940       35.605       16.289     1085.073     1267.749      265.338        0.518        0.131       87.741       12.157        0.019      335.436        6.069      859.773
11/20/2014  22:32:00     -117.317       30.980       -5.175       39.974       26.630       19.878     1597.955      709.162      395.142        0.873        0.135      121.338       16.538        0.019      335.543        6.248      859.770
11/20/2014  22:33:00     -134.463       13.907      -17.016       42.587       29.382       20.715     1813.651      863.326      429.113        1.083        0.155      135.180       19.096        0.020      335.363        5.947      859.764
11/20/2014  22:34:00     -118.663       12.913      -11.995       19.102       24.343       16.475      364.903      592.603      271.422        0.781        0.061      119.364        8.263        0.005      335.274        5.797      859.770
11/20/2014  22:35:00      -92.236       13.692      -11.088       35.264       26.006       19.327     1243.542      676.296      373.519        0.556        0.115       93.247       21.054        0.051      335.350        5.924      859.764
11/20/2014  22:36:00      -89.999       11.515       -7.031       27.320       25.541       19.197      746.363      652.350      368.542        0.502        0.088       90.732       15.828        0.030      335.404        6.013      859.752
11/20/2014  22:37:00      -68.643        6.280       -6.349       23.261       23.393       18.086      541.074      547.222      327.091        0.310        0.071       68.929       16.132        0.055      335.401        6.010      859.742
11/20/2014  22:38:00      -50.318      -10.500       -5.804       32.073       16.019       14.081     1028.668      256.598      198.288        0.208        0.074       51.402       17.242        0.113      335.305        5.850      859.734
11/20/2014  22:39:00      -13.739       -7.558        3.403       11.807       14.623        8.673      139.403      213.835       75.217        0.034        0.021       15.680        4.760        0.092      335.341        5.908      859.725
11/20/2014  22:40:00        4.702      -18.729        4.343       12.298        8.613        8.587      151.233       74.191       73.741        0.035        0.015       19.310        2.521        0.017      335.431        6.060      859.708
11/20/2014  22:41:00       10.754       -7.496        2.476       10.126       11.811        7.705      102.527      139.500       59.366        0.024        0.015       13.109        5.276        0.162      335.397        6.002      859.706
11/20/2014  22:42:00       19.130       15.155        4.909        8.556        9.079        6.865       73.199       82.426       47.126        0.041        0.010       24.406        4.740        0.038      335.262        5.778      859.701
11/20/2014  22:43:00        3.246       15.138       -1.453       11.747        7.914        7.318      137.990       62.636       53.548        0.025        0.013       15.482        5.302        0.117      335.297        5.836      859.703
11/20/2014  22:44:00      -31.424       28.751       -6.341       22.264       18.517       10.978      495.685      342.862      120.512        0.141        0.048       42.592        9.064        0.045      335.423        6.046      859.695
11/20/2014  22:45:00      -46.312        3.767        0.232       32.278       22.170       14.868     1041.870      491.527      221.047        0.196        0.088       46.465       17.311        0.139      335.368        5.956      859.690
11/20/2014  22:46:00      -67.021       12.233      -10.252       29.322       27.515       18.474      859.754      757.048      341.275        0.335        0.098       68.128       16.573        0.059      335.379        5.972      859.687
11/20/2014  22:47:00      -38.429        2.766       -2.887       29.863       25.597       15.158      891.785      655.211      229.776        0.163        0.089       38.528       11.599        0.091      335.360        5.942      859.692
11/20/2014  22:48:00      -38.074      -19.960       -5.344       15.162       12.737        7.334      229.894      162.239       53.792        0.116        0.022       42.989        5.297        0.015      335.143        5.581      859.691
11/20/2014  22:49:00      -20.399      -22.311        7.240       21.566        9.496       10.716      465.113       90.181      114.827        0.082        0.034       30.230        6.769        0.050      335.121        5.545      859.688
11/20/2014  22:50:00      -27.898       -4.531        0.561       13.868       10.279       10.383      192.315      105.650      107.809        0.060        0.020       28.263       10.183        0.130      335.382        5.980      859.690
11/20/2014  22:51:00      -22.447      -12.422       -3.523        5.891        5.821        4.918       34.710       33.885       24.190        0.038        0.005       25.655        1.304        0.003      335.438        6.074      859.685
11/20/2014  22:52:00      -31.303      -17.104       -3.531        7.988        5.716        5.599       63.803       32.674       31.350        0.071        0.006       35.671        2.781        0.006      335.312        5.858      859.682
11/20/2014  22:53:00       -9.194      -17.019       -1.249        8.722        6.137        2.773       76.067       37.664        7.690        0.025        0.006       19.344        0.864        0.002      335.274        5.798      859.663
11/20/2014  22:54:00        2.047       -5.706       -1.112        8.934        5.397        4.112       79.821       29.127       16.906        0.008        0.006        6.062        2.521        0.173      335.247        5.752      859.648
11/20/2014  22:55:00      -21.621      -19.845       -1.164       15.145        8.303        7.561      229.364       68.936       57.164        0.061        0.018       29.348        8.264        0.079      335.317        5.868      859.643
11/20/2014  22:56:00      -50.118      -20.754       -4.090       11.107        9.633        6.108      123.366       92.803       37.312        0.161        0.013       54.246        4.356        0.006      335.300        5.841      859.655
11/20/2014  22:57:00      -54.586      -19.909       -4.586       14.338        7.763        6.806      205.574       60.270       46.324        0.185        0.016       58.103        7.701        0.018      335.191        5.659      859.660
11/20/2014  22:58:00      -59.139      -31.627       -1.980       10.057        8.241        7.185      101.136       67.920       51.625        0.236        0.011       67.065        4.734        0.005      335.191        5.660      859.662
11/20/2014  22:59:00      -36.447      -20.828        0.104       12.234       14.377        8.009      149.668      206.697       64.148        0.109        0.021       41.978        6.707        0.026      335.108        5.522      859.656
11/20/2014  23:00:00      -30.779      -19.785       -4.879        9.081        7.381        5.862       82.470       54.477       34.368        0.077        0.009       36.590        3.501        0.009      335.227        5.720      859.657
11/20/2014  23:01:00      -14.775      -14.673       -1.186        8.705        6.947        5.675       75.771       48.259       32.201        0.030        0.008       20.823        2.495        0.014      335.218        5.705      859.666
11/20/2014  23:02:00      -12.191       -3.660       -2.524        9.230        3.916        4.113       85.194       15.332       16.919        0.014        0.006       12.729        4.216        0.110      335.233        5.729      859.680
11/20/2014  23:03:00        8.683        2.306       -1.303        8.872        5.930        3.801       78.712       35.164       14.444        0.011        0.006        8.984        3.965        0.195      335.333        5.895      859.685
11/20/2014  23:04:00       26.706       18.697        9.423        5.311        5.267        5.679       28.211       27.743       32.256        0.062        0.004       32.601        3.862        0.014      335.208        5.689      859.678
11/20/2014  23:05:00       20.747        3.935        0.881        7.863        9.190        7.524       61.820       84.465       56.609        0.032        0.010       21.117        6.278        0.088      335.164        5.615      859.672
11/20/2014  23:06:00        0.158        3.009        5.823        6.648        5.468        8.493       44.202       29.904       72.125        0.009        0.007        3.013        5.018        2.773      335.013        5.364      859.662
11/20/2014  23:07:00       -2.417       -3.937        1.171        5.520        8.786        5.586       30.472       77.194       31.202        0.008        0.007        4.620        4.802        1.081      334.933        5.234      859.664
11/20/2014  23:08:00      -26.569      -11.463       -5.792        8.752        4.773        5.116       76.589       22.784       26.173        0.050        0.006       28.936        4.709        0.026      335.036        5.404      859.675
11/20/2014  23:09:00      -34.990       -9.175       -6.893        6.093        5.690        6.684       37.121       32.371       44.679        0.074        0.006       36.172        3.791        0.011      335.152        5.595      859.701
11/20/2014  23:10:00      -57.326       -6.971       -7.523       15.260        8.706        8.219      232.859       75.793       67.544        0.188        0.019       57.748        7.700        0.018      334.982        5.314      859.730
11/20/2014  23:11:00      -82.896       -9.118      -14.098       23.295       15.025       11.142      542.657      225.745      124.151        0.402        0.045       83.395       10.512        0.016      334.790        4.996      859.752
11/20/2014  23:12:00     -108.599       -4.371       -8.562       45.065       33.997       25.949     2030.814     1155.799      673.344        0.787        0.193      108.687       25.286        0.054      334.601        4.680      859.772
11/20/2014  23:13:00      -88.527       16.337       -3.212       55.297       36.758       30.830     3057.709     1351.150      950.466        0.674        0.268       90.022       31.185        0.120      334.806        5.023      859.781
11/20/2014  23:14:00     -162.430       -6.644      -14.092       49.999       44.552       27.985     2499.933     1984.914      783.158        1.595        0.263      162.566       27.909        0.029      334.703        4.849      859.789
11/20/2014  23:15:00     -124.556       -1.008       -5.590       45.330       34.882       25.314     2054.784     1216.747      640.790        0.973        0.196      124.560       24.069        0.037      334.802        5.014      859.791
11/20/2014  23:16:00     -100.139       16.050       -6.441       59.822       41.426       24.741     3578.656     1716.096      612.130        0.812        0.295      101.417       27.995        0.076      334.807        5.024      859.790
11/20/2014  23:17:00     -115.812       18.938      -12.856       38.265       34.956       17.955     1464.240     1221.902      322.375        0.847        0.150      117.350       15.467        0.017      334.729        4.892      859.800
11/20/2014  23:18:00      -57.283        6.590       -0.905       41.842       27.047       19.789     1750.779      731.545      391.592        0.310        0.144       57.661       20.864        0.131      334.635        4.737      859.797
11/20/2014  23:19:00      -35.863      -22.848        0.862       32.662       15.389       17.468     1066.836      236.831      305.134        0.171        0.080       42.523       18.095        0.181      334.553        4.602      859.792
11/20/2014  23:20:00      -67.945      -36.056       -6.586       14.766       14.770       10.721      218.026      218.154      114.941        0.326        0.028       76.919        5.550        0.005      334.551        4.597      859.785
11/20/2014  23:21:00      -90.841       -2.653       -7.785       36.391       25.994       17.352     1324.331      675.695      301.080        0.531        0.115       90.880       11.795        0.017      334.457        4.443      859.779
11/20/2014  23:22:00      -96.203      -19.210      -10.672       21.580       15.901       14.016      465.716      252.830      196.461        0.533        0.046       98.102       10.756        0.012      334.421        4.384      859.778
11/20/2014  23:23:00      -88.896      -24.393      -18.062       14.125       11.842        9.708      199.517      140.231       94.246        0.463        0.022       92.182        2.071        0.001      334.522        4.550      859.772
11/20/2014  23:24:00      -66.742      -39.964       -7.734       17.806       15.102       13.897      317.045      228.076      193.132        0.342        0.037       77.792        6.353        0.007      334.527        4.557      859.770
11/20/2014  23:25:00      -80.357      -44.621        2.757       36.265       27.743       22.079     1315.145      769.682      487.490        0.551        0.129       91.915       20.740        0.051      334.579        4.645      859.758
11/20/2014  23:26:00      -64.692      -45.633        4.895       40.329       31.243       23.148     1626.418      976.130      535.837        0.471        0.157       79.167       19.192        0.059      334.698        4.843      859.765
11/20/2014  23:27:00      -98.542      -43.501        7.274       29.431       24.532       16.180      866.157      601.814      261.779        0.669        0.086      107.717       16.571        0.024      334.881        5.147      859.770
11/20/2014  23:28:00     -121.429      -28.345      -14.836       18.986       25.284       12.593      360.467      639.303      158.579        0.846        0.058      124.693        8.578        0.005      335.070        5.459      859.787
11/20/2014  23:29:00     -115.399      -11.110      -11.188       23.996       28.511       19.869      575.786      812.905      394.770        0.767        0.089      115.932       15.217        0.017      335.043        5.414      859.812
11/20/2014  23:30:00     -103.039      -44.989       -4.141       22.028       24.501       18.037      485.219      600.276      325.331        0.703        0.071      112.432       10.401        0.009      334.684        4.819      859.829
11/20/2014  23:31:00      -79.469      -21.117       -7.587       27.804       27.478       15.364      773.063      755.015      236.041        0.429        0.088       82.227       16.248        0.039      334.617        4.708      859.842
11/20/2014  23:32:00      -97.845       39.856       -5.301       42.117       26.942       18.445     1773.811      725.890      340.214        0.701        0.142      105.651       15.359        0.021      334.759        4.944      859.847
11/20/2014  23:33:00     -166.169       11.003      -19.018       44.682       57.162       27.503     1996.492     3267.499      756.392        1.706        0.301      166.532       25.159        0.023      334.495        4.503      859.857
11/20/2014  23:34:00      -90.090       -8.830       -9.202       69.812       35.193       28.497     4873.672     1238.571      812.090        0.760        0.346       90.522       30.332        0.112      334.426        4.392      859.876
11/20/2014  23:35:00      -74.090        8.364       -9.827       44.585       40.435       35.166     1987.848     1634.972     1236.680        0.526        0.243       74.561       27.487        0.136      334.481        4.482      859.897
11/20/2014  23:36:00     -111.327       42.323       -9.362       41.094       38.484       22.093     1688.677     1481.040      488.091        0.896        0.183      119.101       19.450        0.027      334.686        4.821      859.920
11/20/2014  23:37:00      -87.494       21.458       -8.519       27.003       30.752       22.897      729.147      945.671      524.293        0.519        0.110       90.087       14.578        0.026      334.691        4.831      859.936
11/20/2014  23:38:00      -84.698       -5.009      -12.996       23.094       34.358       13.878      533.337     1180.493      192.606        0.464        0.095       84.846        7.866        0.009      334.595        4.672      859.954
11/20/2014  23:39:00      -46.437        0.294       -8.136       21.057       19.299       16.115      443.385      372.457      259.698        0.165        0.054       46.437       14.977        0.104      334.716        4.872      859.966
11/20/2014  23:40:00      -46.202       25.846       -2.853       27.605       41.611       17.645      762.013     1731.504      311.355        0.281        0.140       52.940       17.241        0.106      334.928        5.224      859.980
11/20/2014  23:41:00      -57.700       62.446      -19.469       30.561       29.299       21.991      933.963      858.460      483.591        0.494        0.114       85.022       15.486        0.033      335.009        5.358      859.985
11/20/2014  23:42:00      -39.831       73.505      -20.089       38.554       40.764       15.010     1486.433     1661.734      225.308        0.538        0.169       83.603       16.313        0.038      334.826        5.053      859.988
11/20/2014  23:43:00      -15.319       32.429       -2.323       15.934       20.292       16.524      253.906      411.784      273.049        0.112        0.047       35.865        6.324        0.031      334.867        5.123      859.988
11/20/2014  23:44:00       -9.522       37.434       -9.761       20.697       32.145       16.794      428.369     1033.325      282.052        0.167        0.087       38.626       16.855        0.190      334.797        5.005      859.992
11/20/2014  23:45:00      -18.454        4.918        7.953       19.380       22.031       11.743      375.595      485.361      137.895        0.071        0.050       19.098        6.227        0.106      334.681        4.815      860.003
11/20/2014  23:46:00      -17.987        6.466       -0.662       25.363       18.263       14.753      643.293      333.530      217.640        0.078        0.060       19.114        7.851        0.169      334.738        4.909      859.996
11/20/2014  23:47:00      -43.258      -21.442       -8.318       26.633       21.825       14.316      709.320      476.315      204.947        0.190        0.070       48.280        7.359        0.023      334.675        4.805      859.983
11/20/2014  23:48:00      -53.854       -1.404       -7.467       25.137       31.650       13.469      631.856     1001.734      181.415        0.239        0.091       53.872       11.700        0.047      334.767        4.958      859.971
11/20/2014  23:49:00      -23.031       -7.152        0.672       25.124       23.790       17.349      631.217      565.971      300.971        0.104        0.075       24.116       14.530        0.363      334.807        5.022      859.959
11/20/2014  23:50:00      -26.044      -12.943       -0.874       51.811       20.487       13.355     2684.425      419.712      178.343        0.206        0.164       29.083       20.058        0.476      334.753        4.933      859.948
11/20/2014  23:51:00      -84.247       -0.670       -0.714       43.403       24.056       15.096     1883.826      578.675      227.889        0.489        0.135       84.250       18.539        0.048      334.583        4.650      859.928
11/20/2014  23:52:00      -52.540      -15.267       -8.533       34.441       21.881       11.438     1186.163      478.790      130.831        0.243        0.090       54.714        9.936        0.033      334.734        4.900      859.907
11/20/2014  23:53:00      -66.185       60.905       -8.723       34.107       37.218       24.344     1163.294     1385.163      592.635        0.565        0.157       89.944       20.008        0.049      335.030        5.394      859.907
11/20/2014  23:54:00      -55.235       78.962      -15.492       33.181       31.276       19.974     1101.000      978.170      398.951        0.600        0.124       96.363       14.243        0.022      335.041        5.413      859.907
11/20/2014  23:55:00      -85.956        4.872      -12.063       34.095       34.307       16.066     1162.454     1176.956      258.107        0.508        0.130       86.094       15.182        0.031      334.818        5.041      859.922
11/20/2014  23:56:00     -133.002        4.916      -16.077       42.806       41.645       23.415     1832.336     1734.289      548.280        1.104        0.206      133.092       20.345        0.023      334.723        4.884      859.937
11/20/2014  23:57:00      -49.521      -22.652        3.635       40.091       36.736       21.423     1607.325     1349.515      458.954        0.320        0.171       54.456       21.927        0.162      334.590        4.664      859.944
11/20/2014  23:58:00      -62.254       18.776       -9.213       30.107       36.633       19.782      906.440     1341.963      391.327        0.348        0.132       65.024       22.250        0.117      334.590        4.664      859.949
11/20/2014  23:59:00      -69.895      -15.885       -8.019       30.096       20.358       14.146      905.757      414.430      200.096        0.336        0.076       71.677       14.349        0.040      334.561        4.615      859.938
